Wetterdaten: aktuell Donnerstag, 22.10.2020 23:53
Datum Zeit Temp. A. Feuchte A. Luftdruck Regen Wind Richtung Richtung Sonnenschein Windben
21.10.2020 23:53 9.5 C 87 % 1010.5 hPa 0.0 l/m 0.0 km/h (0 Bft) W-NW 293 0 min 0.0 km/h (0 Bft)
21.10.2020 23:52 9.5 C 87 % 1010.5 hPa 0.0 l/m 0.0 km/h (0 Bft) W-NW 293 0 min 0.0 km/h (0 Bft)
21.10.2020 23:51 9.5 C 87 % 1010.3 hPa 0.0 l/m 0.0 km/h (0 Bft) N-NO 23 0 min 0.0 km/h (0 Bft)
21.10.2020 23:50 9.5 C 87 % 1010.3 hPa 0.0 l/m 0.0 km/h (0 Bft) N-NO 23 0 min 0.0 km/h (0 Bft)
21.10.2020 23:49 9.4 C 87 % 1010.3 hPa 0.0 l/m 0.0 km/h (0 Bft) N-NO 23 0 min 0.0 km/h (0 Bft)
21.10.2020 23:48 9.4 C 87 % 1010.3 hPa 0.0 l/m 0.0 km/h (0 Bft) N-NO 23 0 min 0.0 km/h (0 Bft)
21.10.2020 23:47 9.5 C 87 % 1010.3 hPa 0.0 l/m 0.0 km/h (0 Bft) W-NW 293 0 min 0.0 km/h (0 Bft)
21.10.2020 23:46 9.5 C 87 % 1010.3 hPa 0.0 l/m 0.0 km/h (0 Bft) W-NW 293 0 min 0.0 km/h (0 Bft)
21.10.2020 23:45 9.4 C 87 % 1010.3 hPa 0.0 l/m 0.0 km/h (0 Bft) W 270 0 min 0.0 km/h (0 Bft)
21.10.2020 23:44 9.4 C 87 % 1010.3 hPa 0.0 l/m 0.0 km/h (0 Bft) W 270 0 min 0.0 km/h (0 Bft)
21.10.2020 23:43 9.4 C 87 % 1010.3 hPa 0.0 l/m 0.0 km/h (0 Bft) NW 315 0 min 0.0 km/h (0 Bft)
21.10.2020 23:42 9.4 C 86 % 1010.3 hPa 0.0 l/m 0.2 km/h (0 Bft) NW 315 0 min 0.0 km/h (0 Bft)
21.10.2020 23:41 9.4 C 86 % 1010.3 hPa 0.0 l/m 0.4 km/h (0 Bft) NW 315 0 min 0.0 km/h (0 Bft)
21.10.2020 23:40 9.4 C 87 % 1010.3 hPa 0.0 l/m 0.4 km/h (0 Bft) S-SO 158 0 min 0.0 km/h (0 Bft)
21.10.2020 23:39 9.4 C 87 % 1010.3 hPa 0.0 l/m 0.4 km/h (0 Bft) S-SO 158 0 min 0.0 km/h (0 Bft)
21.10.2020 23:38 9.4 C 87 % 1010.3 hPa 0.0 l/m 0.4 km/h (0 Bft) O-SO 113 0 min 0.0 km/h (0 Bft)
21.10.2020 23:37 9.4 C 87 % 1010.3 hPa 0.0 l/m 0.4 km/h (0 Bft) O-SO 113 0 min 0.0 km/h (0 Bft)
21.10.2020 23:36 9.4 C 86 % 1010.3 hPa 0.0 l/m 0.4 km/h (0 Bft) SW 225 0 min 0.0 km/h (0 Bft)
21.10.2020 23:35 9.4 C 86 % 1010.3 hPa 0.0 l/m 0.4 km/h (0 Bft) SW 225 0 min 0.0 km/h (0 Bft)
21.10.2020 23:34 9.4 C 86 % 1010.3 hPa 0.0 l/m 0.7 km/h (0 Bft) W-SW 248 0 min 0.0 km/h (0 Bft)
21.10.2020 23:33 9.4 C 86 % 1010.3 hPa 0.0 l/m 0.7 km/h (0 Bft) W-SW 248 0 min 0.0 km/h (0 Bft)
21.10.2020 23:32 9.4 C 86 % 1010.5 hPa 0.0 l/m 1.4 km/h (1 Bft) W-NW 293 0 min 0.0 km/h (0 Bft)
21.10.2020 23:31 9.4 C 86 % 1010.5 hPa 0.0 l/m 1.4 km/h (1 Bft) W-NW 293 0 min 0.0 km/h (0 Bft)
21.10.2020 23:30 9.5 C 86 % 1010.5 hPa 0.0 l/m 1.4 km/h (1 Bft) W-NW 293 0 min 0.0 km/h (0 Bft)
21.10.2020 23:29 9.5 C 86 % 1010.5 hPa 0.0 l/m 1.4 km/h (1 Bft) W-NW 293 0 min 0.0 km/h (0 Bft)
21.10.2020 23:28 9.5 C 86 % 1010.5 hPa 0.0 l/m 2.2 km/h (1 Bft) NO 45 0 min 0.0 km/h (0 Bft)
21.10.2020 23:27 9.5 C 86 % 1010.5 hPa 0.0 l/m 2.2 km/h (1 Bft) NO 45 0 min 0.0 km/h (0 Bft)
21.10.2020 23:26 9.5 C 86 % 1010.5 hPa 0.0 l/m 2.5 km/h (1 Bft) SO 135 0 min 0.0 km/h (0 Bft)
21.10.2020 23:25 9.5 C 86 % 1010.5 hPa 0.0 l/m 2.5 km/h (1 Bft) SO 135 0 min 0.0 km/h (0 Bft)
21.10.2020 23:24 9.6 C 86 % 1010.5 hPa 0.0 l/m 2.9 km/h (1 Bft) S-SW 203 0 min 0.0 km/h (0 Bft)
21.10.2020 23:23 9.6 C 86 % 1010.5 hPa 0.0 l/m 2.9 km/h (1 Bft) S-SW 203 0 min 0.0 km/h (0 Bft)
21.10.2020 23:22 9.6 C 86 % 1010.5 hPa 0.0 l/m 3.6 km/h (1 Bft) W-SW 248 0 min 2.5 km/h (1 Bft)
21.10.2020 23:21 9.6 C 86 % 1010.5 hPa 0.0 l/m 3.6 km/h (1 Bft) W-SW 248 0 min 2.5 km/h (1 Bft)
21.10.2020 23:20 9.7 C 86 % 1010.5 hPa 0.0 l/m 2.9 km/h (1 Bft) W-NW 293 0 min 4.3 km/h (1 Bft)
21.10.2020 23:19 9.7 C 86 % 1010.5 hPa 0.0 l/m 2.9 km/h (1 Bft) W-NW 293 0 min 4.3 km/h (1 Bft)
21.10.2020 23:18 9.7 C 86 % 1010.5 hPa 0.0 l/m 2.2 km/h (1 Bft) W 270 0 min 4.0 km/h (1 Bft)
21.10.2020 23:17 9.7 C 86 % 1010.5 hPa 0.0 l/m 2.2 km/h (1 Bft) W 270 0 min 4.0 km/h (1 Bft)
21.10.2020 23:16 9.7 C 86 % 1010.5 hPa 0.0 l/m 1.8 km/h (1 Bft) W-SW 248 0 min 3.6 km/h (1 Bft)
21.10.2020 23:15 9.7 C 86 % 1010.5 hPa 0.0 l/m 1.8 km/h (1 Bft) W-SW 248 0 min 3.6 km/h (1 Bft)
21.10.2020 23:14 9.7 C 86 % 1010.5 hPa 0.0 l/m 1.8 km/h (1 Bft) W-SW 248 0 min 3.6 km/h (1 Bft)
21.10.2020 23:13 9.6 C 86 % 1010.5 hPa 0.0 l/m 1.4 km/h (1 Bft) W-SW 248 0 min 4.7 km/h (1 Bft)
21.10.2020 23:12 9.6 C 86 % 1010.5 hPa 0.0 l/m 1.4 km/h (1 Bft) W-SW 248 0 min 4.7 km/h (1 Bft)
21.10.2020 23:11 9.6 C 86 % 1010.3 hPa 0.0 l/m 0.4 km/h (0 Bft) W 270 0 min 0.0 km/h (0 Bft)
21.10.2020 23:10 9.6 C 86 % 1010.3 hPa 0.0 l/m 0.4 km/h (0 Bft) W 270 0 min 0.0 km/h (0 Bft)
21.10.2020 23:09 9.7 C 86 % 1010.3 hPa 0.0 l/m 0.4 km/h (0 Bft) W 270 0 min 0.0 km/h (0 Bft)
21.10.2020 23:08 9.7 C 86 % 1010.3 hPa 0.0 l/m 0.4 km/h (0 Bft) W 270 0 min 0.0 km/h (0 Bft)
21.10.2020 23:07 9.7 C 86 % 1010.3 hPa 0.0 l/m 0.4 km/h (0 Bft) W 270 0 min 0.0 km/h (0 Bft)
21.10.2020 23:06 9.7 C 86 % 1010.3 hPa 0.0 l/m 0.4 km/h (0 Bft) W 270 0 min 0.0 km/h (0 Bft)
21.10.2020 23:05 9.7 C 86 % 1010.3 hPa 0.0 l/m 0.4 km/h (0 Bft) NW 315 0 min 3.6 km/h (1 Bft)
21.10.2020 23:04 9.7 C 86 % 1010.3 hPa 0.0 l/m 0.4 km/h (0 Bft) NW 315 0 min 3.6 km/h (1 Bft)
21.10.2020 23:03 9.8 C 86 % 1010.3 hPa 0.0 l/m 0.4 km/h (0 Bft) W 270 0 min 0.0 km/h (0 Bft)
21.10.2020 23:02 9.8 C 86 % 1010.3 hPa 0.0 l/m 0.2 km/h (0 Bft) W 270 0 min 2.5 km/h (1 Bft)
21.10.2020 23:01 9.8 C 86 % 1010.3 hPa 0.0 l/m 0.0 km/h (0 Bft) W 270 0 min 2.5 km/h (1 Bft)
21.10.2020 23:00 9.9 C 86 % 1010.3 hPa 0.0 l/m 0.4 km/h (0 Bft) W-NW 293 0 min 0.0 km/h (0 Bft)
21.10.2020 22:59 9.9 C 86 % 1010.3 hPa 0.0 l/m 0.4 km/h (0 Bft) W-NW 293 0 min 0.0 km/h (0 Bft)
21.10.2020 22:58 9.9 C 86 % 1010.3 hPa 0.0 l/m 0.4 km/h (0 Bft) W-SW 248 0 min 0.0 km/h (0 Bft)
21.10.2020 22:57 9.9 C 86 % 1010.3 hPa 0.0 l/m 0.4 km/h (0 Bft) W-SW 248 0 min 0.0 km/h (0 Bft)
21.10.2020 22:56 9.9 C 85 % 1010.3 hPa 0.0 l/m 0.4 km/h (0 Bft) S-SW 203 0 min 0.0 km/h (0 Bft)
21.10.2020 22:55 9.9 C 85 % 1010.3 hPa 0.0 l/m 0.4 km/h (0 Bft) S-SW 203 0 min 0.0 km/h (0 Bft)
21.10.2020 22:54 10.1 C 86 % 1010.3 hPa 0.0 l/m 0.4 km/h (0 Bft) NW 315 0 min 0.0 km/h (0 Bft)
21.10.2020 22:53 10.1 C 86 % 1010.3 hPa 0.0 l/m 0.4 km/h (0 Bft) NW 315 0 min 0.0 km/h (0 Bft)
21.10.2020 22:52 10.1 C 86 % 1010.2 hPa 0.0 l/m 0.4 km/h (0 Bft) W 270 0 min 2.5 km/h (1 Bft)
21.10.2020 22:51 10.1 C 86 % 1010.2 hPa 0.0 l/m 0.4 km/h (0 Bft) W 270 0 min 2.5 km/h (1 Bft)
21.10.2020 22:50 10.0 C 85 % 1010.2 hPa 0.0 l/m 0.4 km/h (0 Bft) W 270 0 min 2.5 km/h (1 Bft)
21.10.2020 22:49 10.0 C 85 % 1010.2 hPa 0.0 l/m 0.4 km/h (0 Bft) W 270 0 min 2.5 km/h (1 Bft)
21.10.2020 22:48 10.1 C 85 % 1010.2 hPa 0.0 l/m 0.4 km/h (0 Bft) W-NW 293 0 min 0.0 km/h (0 Bft)
21.10.2020 22:47 10.1 C 85 % 1010.2 hPa 0.0 l/m 0.4 km/h (0 Bft) W-NW 293 0 min 0.0 km/h (0 Bft)
21.10.2020 22:46 10.1 C 85 % 1010.2 hPa 0.0 l/m 0.4 km/h (0 Bft) W-SW 248 0 min 0.0 km/h (0 Bft)
21.10.2020 22:45 10.1 C 85 % 1010.2 hPa 0.0 l/m 0.4 km/h (0 Bft) W-SW 248 0 min 0.0 km/h (0 Bft)
21.10.2020 22:44 10.1 C 85 % 1010.2 hPa 0.0 l/m 0.4 km/h (0 Bft) SW 225 0 min 2.5 km/h (1 Bft)
21.10.2020 22:43 10.1 C 85 % 1010.2 hPa 0.0 l/m 0.4 km/h (0 Bft) SW 225 0 min 2.5 km/h (1 Bft)
21.10.2020 22:42 10.2 C 85 % 1010.2 hPa 0.0 l/m 0.4 km/h (0 Bft) SO 135 0 min 0.0 km/h (0 Bft)
21.10.2020 22:41 10.2 C 85 % 1010.2 hPa 0.0 l/m 0.4 km/h (0 Bft) SO 135 0 min 0.0 km/h (0 Bft)
21.10.2020 22:40 10.2 C 85 % 1010.2 hPa 0.0 l/m 0.4 km/h (0 Bft) W-NW 293 0 min 0.0 km/h (0 Bft)
21.10.2020 22:39 10.2 C 85 % 1010.2 hPa 0.0 l/m 0.4 km/h (0 Bft) W-NW 293 0 min 0.0 km/h (0 Bft)
21.10.2020 22:38 10.2 C 85 % 1010.2 hPa 0.0 l/m 0.0 km/h (0 Bft) W-SW 248 0 min 0.0 km/h (0 Bft)
21.10.2020 22:37 10.2 C 85 % 1010.2 hPa 0.0 l/m 0.0 km/h (0 Bft) W-SW 248 0 min 0.0 km/h (0 Bft)
21.10.2020 22:36 10.2 C 85 % 1010.2 hPa 0.0 l/m 0.0 km/h (0 Bft) W-NW 293 0 min 0.0 km/h (0 Bft)
21.10.2020 22:35 10.3 C 85 % 1010.2 hPa 0.0 l/m 0.0 km/h (0 Bft) W-NW 293 0 min 0.0 km/h (0 Bft)
21.10.2020 22:34 10.3 C 85 % 1010.2 hPa 0.0 l/m 0.0 km/h (0 Bft) W-NW 293 0 min 0.0 km/h (0 Bft)
21.10.2020 22:33 10.3 C 85 % 1010.2 hPa 0.0 l/m 0.0 km/h (0 Bft) S 180 0 min 0.0 km/h (0 Bft)
21.10.2020 22:32 10.3 C 85 % 1010.2 hPa 0.0 l/m 0.0 km/h (0 Bft) S 180 0 min 0.0 km/h (0 Bft)
21.10.2020 22:31 10.2 C 85 % 1009.9 hPa 0.0 l/m 0.0 km/h (0 Bft) W-SW 248 0 min 0.0 km/h (0 Bft)
21.10.2020 22:30 10.2 C 85 % 1009.9 hPa 0.0 l/m 0.0 km/h (0 Bft) W-SW 248 0 min 0.0 km/h (0 Bft)
21.10.2020 22:29 10.2 C 85 % 1009.9 hPa 0.0 l/m 0.0 km/h (0 Bft) W-SW 248 0 min 0.0 km/h (0 Bft)
21.10.2020 22:28 10.2 C 85 % 1009.9 hPa 0.0 l/m 0.0 km/h (0 Bft) W-SW 248 0 min 0.0 km/h (0 Bft)
21.10.2020 22:27 10.2 C 85 % 1009.9 hPa 0.0 l/m 0.0 km/h (0 Bft) NO 45 0 min 0.0 km/h (0 Bft)
21.10.2020 22:26 10.2 C 85 % 1009.9 hPa 0.0 l/m 0.0 km/h (0 Bft) NO 45 0 min 0.0 km/h (0 Bft)
21.10.2020 22:25 10.2 C 85 % 1009.9 hPa 0.0 l/m 0.0 km/h (0 Bft) O-NO 68 0 min 0.0 km/h (0 Bft)
21.10.2020 22:24 10.2 C 85 % 1009.9 hPa 0.0 l/m 0.0 km/h (0 Bft) O-NO 68 0 min 0.0 km/h (0 Bft)
21.10.2020 22:23 10.2 C 85 % 1009.9 hPa 0.0 l/m 0.0 km/h (0 Bft) SW 225 0 min 0.0 km/h (0 Bft)
21.10.2020 22:22 10.2 C 85 % 1009.9 hPa 0.0 l/m 0.0 km/h (0 Bft) SW 225 0 min 0.0 km/h (0 Bft)
21.10.2020 22:21 10.2 C 85 % 1009.9 hPa 0.0 l/m 0.0 km/h (0 Bft) W 270 0 min 0.0 km/h (0 Bft)
21.10.2020 22:20 10.3 C 85 % 1009.9 hPa 0.0 l/m 0.0 km/h (0 Bft) W-NW 293 0 min 0.0 km/h (0 Bft)
21.10.2020 22:19 10.3 C 85 % 1009.9 hPa 0.0 l/m 0.0 km/h (0 Bft) W-NW 293 0 min 0.0 km/h (0 Bft)
21.10.2020 22:18 10.3 C 85 % 1009.9 hPa 0.0 l/m 0.0 km/h (0 Bft) W-NW 293 0 min 0.0 km/h (0 Bft)
21.10.2020 22:17 10.3 C 85 % 1009.9 hPa 0.0 l/m 0.0 km/h (0 Bft) W-NW 293 0 min 0.0 km/h (0 Bft)
21.10.2020 22:16 10.3 C 85 % 1009.9 hPa 0.0 l/m 0.0 km/h (0 Bft) W-SW 248 0 min 0.0 km/h (0 Bft)
21.10.2020 22:15 10.3 C 85 % 1009.9 hPa 0.0 l/m 0.0 km/h (0 Bft) W-SW 248 0 min 0.0 km/h (0 Bft)
21.10.2020 22:14 10.3 C 84 % 1009.9 hPa 0.0 l/m 0.4 km/h (0 Bft) SW 225 0 min 0.0 km/h (0 Bft)
21.10.2020 22:13 10.3 C 84 % 1009.9 hPa 0.0 l/m 0.4 km/h (0 Bft) SW 225 0 min 0.0 km/h (0 Bft)
21.10.2020 22:12 10.3 C 84 % 1009.7 hPa 0.0 l/m 0.4 km/h (0 Bft) O-SO 113 0 min 0.0 km/h (0 Bft)
21.10.2020 22:11 10.3 C 84 % 1009.7 hPa 0.0 l/m 0.4 km/h (0 Bft) O-SO 113 0 min 0.0 km/h (0 Bft)
21.10.2020 22:10 10.3 C 84 % 1009.7 hPa 0.0 l/m 0.4 km/h (0 Bft) O-SO 113 0 min 0.0 km/h (0 Bft)
21.10.2020 22:09 10.3 C 84 % 1009.7 hPa 0.0 l/m 0.4 km/h (0 Bft) O-SO 113 0 min 0.0 km/h (0 Bft)
21.10.2020 22:08 10.3 C 84 % 1009.7 hPa 0.0 l/m 0.4 km/h (0 Bft) W 270 0 min 2.5 km/h (1 Bft)
21.10.2020 22:07 10.3 C 84 % 1009.7 hPa 0.0 l/m 0.4 km/h (0 Bft) W 270 0 min 2.5 km/h (1 Bft)
21.10.2020 22:06 10.4 C 84 % 1009.7 hPa 0.0 l/m 0.0 km/h (0 Bft) W-SW 248 0 min 0.0 km/h (0 Bft)
21.10.2020 22:05 10.4 C 84 % 1009.7 hPa 0.0 l/m 0.0 km/h (0 Bft) W-SW 248 0 min 0.0 km/h (0 Bft)
21.10.2020 22:04 10.4 C 84 % 1009.7 hPa 0.0 l/m 0.4 km/h (0 Bft) W-SW 248 0 min 0.0 km/h (0 Bft)
21.10.2020 22:03 10.4 C 84 % 1009.7 hPa 0.0 l/m 0.4 km/h (0 Bft) W-SW 248 0 min 0.0 km/h (0 Bft)
21.10.2020 22:02 10.5 C 84 % 1009.7 hPa 0.0 l/m 0.4 km/h (0 Bft) SW 225 0 min 0.0 km/h (0 Bft)
21.10.2020 22:01 10.5 C 84 % 1009.7 hPa 0.0 l/m 0.4 km/h (0 Bft) SW 225 0 min 0.0 km/h (0 Bft)
21.10.2020 22:00 10.5 C 84 % 1009.7 hPa 0.0 l/m 0.4 km/h (0 Bft) W-SW 248 0 min 0.0 km/h (0 Bft)
21.10.2020 21:59 10.5 C 84 % 1009.7 hPa 0.0 l/m 0.4 km/h (0 Bft) W-SW 248 0 min 0.0 km/h (0 Bft)
21.10.2020 21:58 10.5 C 84 % 1009.7 hPa 0.0 l/m 0.7 km/h (0 Bft) NW 315 0 min 0.0 km/h (0 Bft)
21.10.2020 21:57 10.5 C 84 % 1009.7 hPa 0.0 l/m 0.7 km/h (0 Bft) NW 315 0 min 0.0 km/h (0 Bft)
21.10.2020 21:56 10.5 C 84 % 1009.7 hPa 0.0 l/m 0.7 km/h (0 Bft) NW 315 0 min 0.0 km/h (0 Bft)
21.10.2020 21:55 10.5 C 84 % 1009.7 hPa 0.0 l/m 0.7 km/h (0 Bft) NW 315 0 min 0.0 km/h (0 Bft)
21.10.2020 21:54 10.5 C 84 % 1009.7 hPa 0.0 l/m 0.7 km/h (0 Bft) NW 315 0 min 0.0 km/h (0 Bft)
21.10.2020 21:53 10.5 C 84 % 1009.7 hPa 0.0 l/m 0.7 km/h (0 Bft) W-SW 248 0 min 4.3 km/h (1 Bft)
21.10.2020 21:52 10.5 C 84 % 1009.7 hPa 0.0 l/m 0.7 km/h (0 Bft) W-SW 248 0 min 4.3 km/h (1 Bft)
21.10.2020 21:51 10.5 C 84 % 1009.4 hPa 0.0 l/m 1.4 km/h (1 Bft) SW 225 0 min 0.0 km/h (0 Bft)
21.10.2020 21:50 10.5 C 84 % 1009.4 hPa 0.0 l/m 1.4 km/h (1 Bft) SW 225 0 min 0.0 km/h (0 Bft)
21.10.2020 21:49 10.5 C 83 % 1009.4 hPa 0.0 l/m 1.4 km/h (1 Bft) SW 225 0 min 0.0 km/h (0 Bft)
21.10.2020 21:48 10.5 C 83 % 1009.4 hPa 0.0 l/m 1.4 km/h (1 Bft) SW 225 0 min 0.0 km/h (0 Bft)
21.10.2020 21:47 10.6 C 83 % 1009.4 hPa 0.0 l/m 1.4 km/h (1 Bft) NO 45 0 min 0.0 km/h (0 Bft)
21.10.2020 21:46 10.6 C 83 % 1009.4 hPa 0.0 l/m 1.4 km/h (1 Bft) NO 45 0 min 0.0 km/h (0 Bft)
21.10.2020 21:45 10.6 C 83 % 1009.4 hPa 0.0 l/m 0.7 km/h (0 Bft) W-NW 293 0 min 2.5 km/h (1 Bft)
21.10.2020 21:44 10.6 C 83 % 1009.4 hPa 0.0 l/m 0.7 km/h (0 Bft) W-NW 293 0 min 2.5 km/h (1 Bft)
21.10.2020 21:43 10.6 C 83 % 1009.4 hPa 0.0 l/m 1.4 km/h (1 Bft) O-SO 113 0 min 0.0 km/h (0 Bft)
21.10.2020 21:42 10.7 C 83 % 1009.4 hPa 0.0 l/m 1.4 km/h (1 Bft) O-SO 113 0 min 2.9 km/h (1 Bft)
21.10.2020 21:41 10.7 C 83 % 1009.4 hPa 0.0 l/m 1.4 km/h (1 Bft) W-NW 293 0 min 2.9 km/h (1 Bft)
21.10.2020 21:40 10.7 C 83 % 1009.4 hPa 0.0 l/m 1.4 km/h (1 Bft) W-SW 248 0 min 4.7 km/h (1 Bft)
21.10.2020 21:39 10.7 C 83 % 1009.4 hPa 0.0 l/m 1.4 km/h (1 Bft) W-SW 248 0 min 4.7 km/h (1 Bft)
21.10.2020 21:38 10.7 C 83 % 1009.4 hPa 0.0 l/m 0.7 km/h (0 Bft) W-SW 248 0 min 0.0 km/h (0 Bft)
21.10.2020 21:37 10.7 C 83 % 1009.4 hPa 0.0 l/m 0.7 km/h (0 Bft) W-SW 248 0 min 0.0 km/h (0 Bft)
21.10.2020 21:36 10.8 C 84 % 1009.4 hPa 0.0 l/m 0.7 km/h (0 Bft) W-SW 248 0 min 0.0 km/h (0 Bft)
21.10.2020 21:35 10.8 C 84 % 1009.4 hPa 0.0 l/m 0.7 km/h (0 Bft) W-SW 248 0 min 0.0 km/h (0 Bft)
21.10.2020 21:34 10.9 C 84 % 1009.4 hPa 0.0 l/m 0.4 km/h (0 Bft) W-SW 248 0 min 2.5 km/h (1 Bft)
21.10.2020 21:33 10.9 C 84 % 1009.4 hPa 0.0 l/m 0.4 km/h (0 Bft) W-SW 248 0 min 2.5 km/h (1 Bft)
21.10.2020 21:32 10.8 C 83 % 1009.3 hPa 0.0 l/m 0.4 km/h (0 Bft) O 90 0 min 0.0 km/h (0 Bft)
21.10.2020 21:31 10.8 C 83 % 1009.3 hPa 0.0 l/m 0.4 km/h (0 Bft) O 90 0 min 0.0 km/h (0 Bft)
21.10.2020 21:30 10.9 C 83 % 1009.3 hPa 0.0 l/m 0.4 km/h (0 Bft) O 90 0 min 0.0 km/h (0 Bft)
21.10.2020 21:29 10.9 C 83 % 1009.3 hPa 0.0 l/m 0.4 km/h (0 Bft) O 90 0 min 0.0 km/h (0 Bft)
21.10.2020 21:28 10.8 C 83 % 1009.3 hPa 0.0 l/m 0.4 km/h (0 Bft) SO 135 0 min 2.5 km/h (1 Bft)
21.10.2020 21:27 10.8 C 83 % 1009.3 hPa 0.0 l/m 0.4 km/h (0 Bft) SO 135 0 min 2.5 km/h (1 Bft)
21.10.2020 21:26 10.9 C 83 % 1009.3 hPa 0.0 l/m 0.4 km/h (0 Bft) W-SW 248 0 min 0.0 km/h (0 Bft)
21.10.2020 21:25 10.9 C 83 % 1009.3 hPa 0.0 l/m 0.4 km/h (0 Bft) W-SW 248 0 min 0.0 km/h (0 Bft)
21.10.2020 21:24 10.9 C 83 % 1009.3 hPa 0.0 l/m 0.7 km/h (0 Bft) W-NW 293 0 min 2.5 km/h (1 Bft)
21.10.2020 21:23 10.9 C 83 % 1009.3 hPa 0.0 l/m 0.7 km/h (0 Bft) W-NW 293 0 min 2.5 km/h (1 Bft)
21.10.2020 21:22 11.0 C 83 % 1009.3 hPa 0.0 l/m 1.4 km/h (1 Bft) W-NW 293 0 min 0.0 km/h (0 Bft)
21.10.2020 21:21 11.0 C 83 % 1009.3 hPa 0.0 l/m 1.4 km/h (1 Bft) W-NW 293 0 min 0.0 km/h (0 Bft)
21.10.2020 21:20 11.0 C 83 % 1009.3 hPa 0.0 l/m 2.2 km/h (1 Bft) S 180 0 min 0.0 km/h (0 Bft)
21.10.2020 21:19 11.0 C 83 % 1009.3 hPa 0.0 l/m 2.2 km/h (1 Bft) S 180 0 min 0.0 km/h (0 Bft)
21.10.2020 21:18 11.0 C 83 % 1009.3 hPa 0.0 l/m 2.5 km/h (1 Bft) W-SW 248 0 min 2.9 km/h (1 Bft)
21.10.2020 21:17 11.0 C 83 % 1009.3 hPa 0.0 l/m 2.5 km/h (1 Bft) W-SW 248 0 min 2.9 km/h (1 Bft)
21.10.2020 21:16 11.0 C 83 % 1009.3 hPa 0.0 l/m 3.6 km/h (1 Bft) W-SW 248 0 min 0.0 km/h (0 Bft)
21.10.2020 21:15 11.0 C 83 % 1009.3 hPa 0.0 l/m 3.6 km/h (1 Bft) W-SW 248 0 min 0.0 km/h (0 Bft)
21.10.2020 21:14 11.0 C 83 % 1009.3 hPa 0.0 l/m 3.6 km/h (1 Bft) W-SW 248 0 min 0.0 km/h (0 Bft)
21.10.2020 21:13 11.1 C 83 % 1009.3 hPa 0.0 l/m 3.6 km/h (1 Bft) W-NW 293 0 min 4.0 km/h (1 Bft)
21.10.2020 21:12 11.1 C 83 % 1009.3 hPa 0.0 l/m 3.6 km/h (1 Bft) W-NW 293 0 min 4.0 km/h (1 Bft)
21.10.2020 21:11 11.2 C 83 % 1009.3 hPa 0.0 l/m 2.5 km/h (1 Bft) W-NW 293 0 min 2.9 km/h (1 Bft)
21.10.2020 21:10 11.2 C 83 % 1009.3 hPa 0.0 l/m 2.5 km/h (1 Bft) W-NW 293 0 min 2.9 km/h (1 Bft)
21.10.2020 21:09 11.3 C 83 % 1009.3 hPa 0.0 l/m 2.5 km/h (1 Bft) W-NW 293 0 min 2.9 km/h (1 Bft)
21.10.2020 21:08 11.3 C 83 % 1009.3 hPa 0.0 l/m 2.5 km/h (1 Bft) W-NW 293 0 min 2.9 km/h (1 Bft)
21.10.2020 21:07 11.2 C 82 % 1009.3 hPa 0.0 l/m 2.2 km/h (1 Bft) W-SW 248 0 min 4.3 km/h (1 Bft)
21.10.2020 21:06 11.2 C 82 % 1009.3 hPa 0.0 l/m 2.2 km/h (1 Bft) W-SW 248 0 min 4.3 km/h (1 Bft)
21.10.2020 21:05 11.3 C 82 % 1009.3 hPa 0.0 l/m 1.4 km/h (1 Bft) W-SW 248 0 min 5.0 km/h (1 Bft)
21.10.2020 21:04 11.3 C 82 % 1009.3 hPa 0.0 l/m 1.4 km/h (1 Bft) W-SW 248 0 min 5.0 km/h (1 Bft)
21.10.2020 21:03 11.3 C 82 % 1009.3 hPa 0.0 l/m 0.7 km/h (0 Bft) W-NW 293 0 min 4.0 km/h (1 Bft)
21.10.2020 21:02 11.3 C 82 % 1009.3 hPa 0.0 l/m 0.5 km/h (0 Bft) W-NW 293 0 min 4.0 km/h (1 Bft)
21.10.2020 21:01 11.4 C 82 % 1009.3 hPa 0.0 l/m 0.4 km/h (0 Bft) W 270 0 min 3.6 km/h (1 Bft)
21.10.2020 21:00 11.5 C 82 % 1009.3 hPa 0.0 l/m 0.0 km/h (0 Bft) W 270 0 min 0.0 km/h (0 Bft)
21.10.2020 20:59 11.5 C 82 % 1009.3 hPa 0.0 l/m 0.0 km/h (0 Bft) W 270 0 min 0.0 km/h (0 Bft)
21.10.2020 20:58 11.4 C 82 % 1009.3 hPa 0.0 l/m 0.0 km/h (0 Bft) NO 45 0 min 0.0 km/h (0 Bft)
21.10.2020 20:57 11.4 C 82 % 1009.3 hPa 0.0 l/m 0.0 km/h (0 Bft) NO 45 0 min 0.0 km/h (0 Bft)
21.10.2020 20:56 11.5 C 82 % 1009.3 hPa 0.0 l/m 0.0 km/h (0 Bft) O-NO 68 0 min 0.0 km/h (0 Bft)
21.10.2020 20:55 11.5 C 82 % 1009.3 hPa 0.0 l/m 0.0 km/h (0 Bft) O-NO 68 0 min 0.0 km/h (0 Bft)
21.10.2020 20:54 11.6 C 82 % 1009.3 hPa 0.0 l/m 0.0 km/h (0 Bft) S-SW 203 0 min 0.0 km/h (0 Bft)
21.10.2020 20:53 11.6 C 82 % 1009.3 hPa 0.0 l/m 0.0 km/h (0 Bft) S-SW 203 0 min 0.0 km/h (0 Bft)
21.10.2020 20:52 11.7 C 82 % 1008.9 hPa 0.0 l/m 0.0 km/h (0 Bft) W 270 0 min 0.0 km/h (0 Bft)
21.10.2020 20:51 11.7 C 82 % 1008.9 hPa 0.0 l/m 0.0 km/h (0 Bft) W 270 0 min 0.0 km/h (0 Bft)
21.10.2020 20:50 11.6 C 82 % 1008.9 hPa 0.0 l/m 0.0 km/h (0 Bft) W 270 0 min 0.0 km/h (0 Bft)
21.10.2020 20:49 11.6 C 82 % 1008.9 hPa 0.0 l/m 0.0 km/h (0 Bft) W 270 0 min 0.0 km/h (0 Bft)
21.10.2020 20:48 11.7 C 81 % 1008.9 hPa 0.0 l/m 0.4 km/h (0 Bft) W 270 0 min 0.0 km/h (0 Bft)
21.10.2020 20:47 11.7 C 81 % 1008.9 hPa 0.0 l/m 0.4 km/h (0 Bft) W 270 0 min 0.0 km/h (0 Bft)
21.10.2020 20:46 11.7 C 81 % 1008.9 hPa 0.0 l/m 0.4 km/h (0 Bft) O-NO 68 0 min 0.0 km/h (0 Bft)
21.10.2020 20:45 11.7 C 81 % 1008.9 hPa 0.0 l/m 0.4 km/h (0 Bft) O-NO 68 0 min 0.0 km/h (0 Bft)
21.10.2020 20:44 11.8 C 81 % 1008.9 hPa 0.0 l/m 0.4 km/h (0 Bft) SW 225 0 min 0.0 km/h (0 Bft)
21.10.2020 20:43 11.8 C 81 % 1008.9 hPa 0.0 l/m 0.4 km/h (0 Bft) SW 225 0 min 0.0 km/h (0 Bft)
21.10.2020 20:42 11.9 C 81 % 1008.9 hPa 0.0 l/m 0.4 km/h (0 Bft) O-NO 68 0 min 0.0 km/h (0 Bft)
21.10.2020 20:41 11.9 C 81 % 1008.9 hPa 0.0 l/m 0.4 km/h (0 Bft) O-NO 68 0 min 0.0 km/h (0 Bft)
21.10.2020 20:40 11.8 C 81 % 1008.9 hPa 0.0 l/m 0.4 km/h (0 Bft) W-SW 248 0 min 0.0 km/h (0 Bft)
21.10.2020 20:39 11.8 C 81 % 1008.9 hPa 0.0 l/m 0.4 km/h (0 Bft) W-SW 248 0 min 0.0 km/h (0 Bft)
21.10.2020 20:38 11.8 C 81 % 1008.9 hPa 0.0 l/m 0.4 km/h (0 Bft) W-SW 248 0 min 2.9 km/h (1 Bft)
21.10.2020 20:37 11.8 C 81 % 1008.9 hPa 0.0 l/m 0.4 km/h (0 Bft) W-SW 248 0 min 2.9 km/h (1 Bft)
21.10.2020 20:36 11.8 C 81 % 1008.9 hPa 0.0 l/m 0.4 km/h (0 Bft) SO 135 0 min 0.0 km/h (0 Bft)
21.10.2020 20:35 11.9 C 81 % 1008.9 hPa 0.0 l/m 0.4 km/h (0 Bft) SO 135 0 min 0.0 km/h (0 Bft)
21.10.2020 20:34 11.9 C 81 % 1008.9 hPa 0.0 l/m 0.4 km/h (0 Bft) SO 135 0 min 0.0 km/h (0 Bft)
21.10.2020 20:33 11.9 C 81 % 1008.9 hPa 0.0 l/m 0.4 km/h (0 Bft) W-NW 293 0 min 0.0 km/h (0 Bft)
21.10.2020 20:32 11.9 C 81 % 1008.9 hPa 0.0 l/m 0.4 km/h (0 Bft) W-NW 293 0 min 0.0 km/h (0 Bft)
21.10.2020 20:31 12.0 C 81 % 1008.8 hPa 0.0 l/m 1.4 km/h (1 Bft) W-NW 293 0 min 0.0 km/h (0 Bft)
21.10.2020 20:30 12.0 C 81 % 1008.8 hPa 0.0 l/m 1.4 km/h (1 Bft) W-NW 293 0 min 0.0 km/h (0 Bft)
21.10.2020 20:29 12.1 C 81 % 1008.8 hPa 0.0 l/m 1.4 km/h (1 Bft) W-NW 293 0 min 0.0 km/h (0 Bft)
21.10.2020 20:28 12.1 C 81 % 1008.8 hPa 0.0 l/m 1.4 km/h (1 Bft) W-NW 293 0 min 0.0 km/h (0 Bft)
21.10.2020 20:27 12.0 C 81 % 1008.8 hPa 0.0 l/m 2.2 km/h (1 Bft) W-NW 293 0 min 2.9 km/h (1 Bft)
21.10.2020 20:26 12.0 C 81 % 1008.8 hPa 0.0 l/m 2.2 km/h (1 Bft) W-NW 293 0 min 2.9 km/h (1 Bft)
21.10.2020 20:25 12.1 C 81 % 1008.8 hPa 0.0 l/m 2.5 km/h (1 Bft) NW 315 0 min 2.5 km/h (1 Bft)
21.10.2020 20:24 12.1 C 81 % 1008.8 hPa 0.0 l/m 2.5 km/h (1 Bft) NW 315 0 min 2.5 km/h (1 Bft)
21.10.2020 20:23 12.1 C 81 % 1008.8 hPa 0.0 l/m 2.5 km/h (1 Bft) N-NO 23 0 min 0.0 km/h (0 Bft)
21.10.2020 20:22 12.1 C 81 % 1008.8 hPa 0.0 l/m 3.2 km/h (1 Bft) N-NO 23 0 min 4.3 km/h (1 Bft)
21.10.2020 20:21 12.1 C 81 % 1008.8 hPa 0.0 l/m 4.0 km/h (1 Bft) W-SW 248 0 min 4.3 km/h (1 Bft)
21.10.2020 20:20 12.1 C 81 % 1008.8 hPa 0.0 l/m 4.0 km/h (1 Bft) W-SW 248 0 min 4.0 km/h (1 Bft)
21.10.2020 20:19 12.1 C 81 % 1008.8 hPa 0.0 l/m 4.0 km/h (1 Bft) W-SW 248 0 min 4.0 km/h (1 Bft)
21.10.2020 20:18 12.2 C 81 % 1008.8 hPa 0.0 l/m 4.0 km/h (1 Bft) W 270 0 min 4.0 km/h (1 Bft)
21.10.2020 20:17 12.2 C 81 % 1008.8 hPa 0.0 l/m 4.0 km/h (1 Bft) W 270 0 min 4.0 km/h (1 Bft)
21.10.2020 20:16 12.2 C 81 % 1008.8 hPa 0.0 l/m 2.9 km/h (1 Bft) W-NW 293 0 min 2.5 km/h (1 Bft)
21.10.2020 20:15 12.2 C 81 % 1008.8 hPa 0.0 l/m 2.9 km/h (1 Bft) W-NW 293 0 min 2.5 km/h (1 Bft)
21.10.2020 20:14 12.2 C 81 % 1008.8 hPa 0.0 l/m 2.5 km/h (1 Bft) W-SW 248 0 min 5.8 km/h (2 Bft)
21.10.2020 20:13 12.2 C 81 % 1008.8 hPa 0.0 l/m 2.5 km/h (1 Bft) W-SW 248 0 min 5.8 km/h (2 Bft)
21.10.2020 20:12 12.2 C 81 % 1008.7 hPa 0.0 l/m 0.7 km/h (0 Bft) W-SW 248 0 min 4.7 km/h (1 Bft)
21.10.2020 20:11 12.2 C 81 % 1008.7 hPa 0.0 l/m 0.7 km/h (0 Bft) W-SW 248 0 min 4.7 km/h (1 Bft)
21.10.2020 20:10 12.3 C 81 % 1008.7 hPa 0.0 l/m 0.7 km/h (0 Bft) W-SW 248 0 min 4.7 km/h (1 Bft)
21.10.2020 20:09 12.3 C 81 % 1008.7 hPa 0.0 l/m 0.7 km/h (0 Bft) W-SW 248 0 min 4.7 km/h (1 Bft)
21.10.2020 20:08 12.2 C 81 % 1008.7 hPa 0.0 l/m 0.7 km/h (0 Bft) NW 315 0 min 2.5 km/h (1 Bft)
21.10.2020 20:07 12.2 C 81 % 1008.7 hPa 0.0 l/m 0.7 km/h (0 Bft) NW 315 0 min 2.5 km/h (1 Bft)
21.10.2020 20:06 12.2 C 81 % 1008.7 hPa 0.0 l/m 1.4 km/h (1 Bft) S-SO 158 0 min 0.0 km/h (0 Bft)
21.10.2020 20:05 12.2 C 81 % 1008.7 hPa 0.0 l/m 1.4 km/h (1 Bft) S-SO 158 0 min 0.0 km/h (0 Bft)
21.10.2020 20:04 12.3 C 81 % 1008.7 hPa 0.0 l/m 2.2 km/h (1 Bft) W-SW 248 0 min 0.0 km/h (0 Bft)
21.10.2020 20:03 12.3 C 81 % 1008.7 hPa 0.0 l/m 2.2 km/h (1 Bft) W-SW 248 0 min 0.0 km/h (0 Bft)
21.10.2020 20:02 12.3 C 81 % 1008.7 hPa 0.0 l/m 2.5 km/h (1 Bft) O 90 0 min 3.6 km/h (1 Bft)
21.10.2020 20:01 12.3 C 81 % 1008.7 hPa 0.0 l/m 2.5 km/h (1 Bft) O 90 0 min 3.6 km/h (1 Bft)
21.10.2020 20:00 12.3 C 81 % 1008.7 hPa 0.0 l/m 2.5 km/h (1 Bft) S-SO 158 0 min 0.0 km/h (0 Bft)
21.10.2020 19:59 12.3 C 81 % 1008.7 hPa 0.0 l/m 2.5 km/h (1 Bft) S-SO 158 0 min 0.0 km/h (0 Bft)
21.10.2020 19:58 12.3 C 81 % 1008.7 hPa 0.0 l/m 2.5 km/h (1 Bft) NW 315 0 min 5.0 km/h (1 Bft)
21.10.2020 19:57 12.3 C 81 % 1008.7 hPa 0.0 l/m 2.5 km/h (1 Bft) NW 315 0 min 5.0 km/h (1 Bft)
21.10.2020 19:56 12.3 C 81 % 1008.7 hPa 0.0 l/m 2.2 km/h (1 Bft) W 270 0 min 4.0 km/h (1 Bft)
21.10.2020 19:55 12.3 C 81 % 1008.7 hPa 0.0 l/m 2.2 km/h (1 Bft) W 270 0 min 4.0 km/h (1 Bft)
21.10.2020 19:54 12.3 C 81 % 1008.7 hPa 0.0 l/m 2.2 km/h (1 Bft) W 270 0 min 4.0 km/h (1 Bft)
21.10.2020 19:53 12.3 C 81 % 1008.7 hPa 0.0 l/m 1.4 km/h (1 Bft) W 270 0 min 2.5 km/h (1 Bft)
21.10.2020 19:52 12.3 C 81 % 1008.7 hPa 0.0 l/m 1.4 km/h (1 Bft) W 270 0 min 2.5 km/h (1 Bft)
21.10.2020 19:51 12.4 C 81 % 1008.5 hPa 0.0 l/m 0.4 km/h (0 Bft) W-SW 248 0 min 4.0 km/h (1 Bft)
21.10.2020 19:50 12.4 C 81 % 1008.5 hPa 0.0 l/m 0.4 km/h (0 Bft) W-SW 248 0 min 4.0 km/h (1 Bft)
21.10.2020 19:49 12.5 C 81 % 1008.5 hPa 0.0 l/m 0.4 km/h (0 Bft) W-SW 248 0 min 4.0 km/h (1 Bft)
21.10.2020 19:48 12.5 C 81 % 1008.5 hPa 0.0 l/m 0.4 km/h (0 Bft) W-SW 248 0 min 4.0 km/h (1 Bft)
21.10.2020 19:47 12.4 C 81 % 1008.5 hPa 0.0 l/m 0.4 km/h (0 Bft) O-SO 113 0 min 0.0 km/h (0 Bft)
21.10.2020 19:46 12.4 C 81 % 1008.5 hPa 0.0 l/m 0.4 km/h (0 Bft) O-SO 113 0 min 0.0 km/h (0 Bft)
21.10.2020 19:45 12.5 C 81 % 1008.5 hPa 0.0 l/m 0.4 km/h (0 Bft) W-SW 248 0 min 0.0 km/h (0 Bft)
21.10.2020 19:44 12.5 C 81 % 1008.5 hPa 0.0 l/m 0.4 km/h (0 Bft) W-SW 248 0 min 0.0 km/h (0 Bft)
21.10.2020 19:43 12.5 C 80 % 1008.5 hPa 0.0 l/m 0.4 km/h (0 Bft) O-NO 68 0 min 0.0 km/h (0 Bft)
21.10.2020 19:42 12.5 C 80 % 1008.5 hPa 0.0 l/m 0.4 km/h (0 Bft) O-NO 68 0 min 0.0 km/h (0 Bft)
21.10.2020 19:41 12.5 C 80 % 1008.5 hPa 0.0 l/m 0.4 km/h (0 Bft) SO 135 0 min 0.0 km/h (0 Bft)
21.10.2020 19:40 12.6 C 80 % 1008.5 hPa 0.0 l/m 0.7 km/h (0 Bft) W 270 0 min 0.0 km/h (0 Bft)
21.10.2020 19:39 12.6 C 80 % 1008.5 hPa 0.0 l/m 0.7 km/h (0 Bft) W 270 0 min 0.0 km/h (0 Bft)
21.10.2020 19:38 12.6 C 80 % 1008.5 hPa 0.0 l/m 1.4 km/h (1 Bft) W-SW 248 0 min 4.0 km/h (1 Bft)
21.10.2020 19:37 12.6 C 80 % 1008.5 hPa 0.0 l/m 1.4 km/h (1 Bft) W-SW 248 0 min 4.0 km/h (1 Bft)
21.10.2020 19:36 12.6 C 80 % 1008.5 hPa 0.0 l/m 0.7 km/h (0 Bft) W-NW 293 0 min 0.0 km/h (0 Bft)
21.10.2020 19:35 12.6 C 80 % 1008.5 hPa 0.0 l/m 0.7 km/h (0 Bft) W-NW 293 0 min 0.0 km/h (0 Bft)
21.10.2020 19:34 12.6 C 81 % 1008.5 hPa 0.0 l/m 1.4 km/h (1 Bft) NW 315 0 min 0.0 km/h (0 Bft)
21.10.2020 19:33 12.6 C 81 % 1008.5 hPa 0.0 l/m 1.4 km/h (1 Bft) NW 315 0 min 0.0 km/h (0 Bft)
21.10.2020 19:32 12.7 C 81 % 1008.0 hPa 0.0 l/m 2.5 km/h (1 Bft) W 270 0 min 5.0 km/h (1 Bft)
21.10.2020 19:31 12.7 C 81 % 1008.0 hPa 0.0 l/m 2.5 km/h (1 Bft) W 270 0 min 5.0 km/h (1 Bft)
21.10.2020 19:30 12.6 C 81 % 1008.0 hPa 0.0 l/m 2.5 km/h (1 Bft) W 270 0 min 5.0 km/h (1 Bft)
21.10.2020 19:29 12.6 C 81 % 1008.0 hPa 0.0 l/m 2.5 km/h (1 Bft) W 270 0 min 5.0 km/h (1 Bft)
21.10.2020 19:28 12.6 C 81 % 1008.0 hPa 0.0 l/m 2.5 km/h (1 Bft) SW 225 0 min 0.0 km/h (0 Bft)
21.10.2020 19:27 12.6 C 81 % 1008.0 hPa 0.0 l/m 2.5 km/h (1 Bft) SW 225 0 min 0.0 km/h (0 Bft)
21.10.2020 19:26 12.7 C 81 % 1008.0 hPa 0.0 l/m 3.6 km/h (1 Bft) W-NW 293 0 min 0.0 km/h (0 Bft)
21.10.2020 19:25 12.7 C 81 % 1008.0 hPa 0.0 l/m 3.6 km/h (1 Bft) W-NW 293 0 min 0.0 km/h (0 Bft)
21.10.2020 19:24 12.7 C 80 % 1008.0 hPa 0.0 l/m 2.5 km/h (1 Bft) W-SW 248 0 min 2.5 km/h (1 Bft)
21.10.2020 19:23 12.7 C 80 % 1008.0 hPa 0.0 l/m 2.5 km/h (1 Bft) W-SW 248 0 min 2.5 km/h (1 Bft)
21.10.2020 19:22 12.7 C 80 % 1008.0 hPa 0.0 l/m 2.2 km/h (1 Bft) W 270 0 min 3.6 km/h (1 Bft)
21.10.2020 19:21 12.7 C 80 % 1008.0 hPa 0.0 l/m 2.2 km/h (1 Bft) W 270 0 min 3.6 km/h (1 Bft)
21.10.2020 19:20 12.8 C 80 % 1008.0 hPa 0.0 l/m 2.2 km/h (1 Bft) W 270 0 min 5.0 km/h (1 Bft)
21.10.2020 19:19 12.8 C 80 % 1008.0 hPa 0.0 l/m 2.2 km/h (1 Bft) W 270 0 min 5.0 km/h (1 Bft)
21.10.2020 19:18 12.8 C 80 % 1008.0 hPa 0.0 l/m 1.4 km/h (1 Bft) W-NW 293 0 min 4.7 km/h (1 Bft)
21.10.2020 19:17 12.9 C 80 % 1008.0 hPa 0.0 l/m 1.4 km/h (1 Bft) W-NW 293 0 min 4.7 km/h (1 Bft)
21.10.2020 19:16 12.9 C 80 % 1008.0 hPa 0.0 l/m 0.7 km/h (0 Bft) W-NW 293 0 min 2.9 km/h (1 Bft)
21.10.2020 19:15 12.9 C 80 % 1008.0 hPa 0.0 l/m 0.7 km/h (0 Bft) W-NW 293 0 min 2.9 km/h (1 Bft)
21.10.2020 19:14 12.9 C 80 % 1008.0 hPa 0.0 l/m 0.7 km/h (0 Bft) W-NW 293 0 min 2.9 km/h (1 Bft)
21.10.2020 19:13 12.9 C 80 % 1008.0 hPa 0.0 l/m 0.7 km/h (0 Bft) W-SW 248 0 min 0.0 km/h (0 Bft)
21.10.2020 19:12 12.9 C 80 % 1008.0 hPa 0.0 l/m 0.7 km/h (0 Bft) W-SW 248 0 min 0.0 km/h (0 Bft)
21.10.2020 19:11 12.9 C 80 % 1007.8 hPa 0.0 l/m 0.4 km/h (0 Bft) W-NW 293 0 min 3.6 km/h (1 Bft)
21.10.2020 19:10 12.9 C 80 % 1007.8 hPa 0.0 l/m 0.4 km/h (0 Bft) W-NW 293 0 min 3.6 km/h (1 Bft)
21.10.2020 19:09 12.9 C 80 % 1007.8 hPa 0.0 l/m 0.4 km/h (0 Bft) W-NW 293 0 min 3.6 km/h (1 Bft)
21.10.2020 19:08 12.9 C 80 % 1007.8 hPa 0.0 l/m 0.4 km/h (0 Bft) W-NW 293 0 min 3.6 km/h (1 Bft)
21.10.2020 19:07 12.9 C 80 % 1007.8 hPa 0.0 l/m 0.4 km/h (0 Bft) W-NW 293 0 min 4.7 km/h (1 Bft)
21.10.2020 19:06 12.9 C 80 % 1007.8 hPa 0.0 l/m 0.4 km/h (0 Bft) W-NW 293 0 min 4.7 km/h (1 Bft)
21.10.2020 19:05 13.0 C 80 % 1007.8 hPa 0.0 l/m 0.4 km/h (0 Bft) W 270 0 min 0.0 km/h (0 Bft)
21.10.2020 19:04 13.0 C 80 % 1007.8 hPa 0.0 l/m 0.4 km/h (0 Bft) W 270 0 min 0.0 km/h (0 Bft)
21.10.2020 19:03 13.0 C 79 % 1007.8 hPa 0.0 l/m 1.4 km/h (1 Bft) W 270 0 min 0.0 km/h (0 Bft)
21.10.2020 19:02 13.0 C 79 % 1007.8 hPa 0.0 l/m 1.8 km/h (1 Bft) W 270 0 min 0.0 km/h (0 Bft)
21.10.2020 19:01 13.0 C 79 % 1007.8 hPa 0.0 l/m 2.2 km/h (1 Bft) W-NW 293 0 min 0.0 km/h (0 Bft)
21.10.2020 19:00 13.1 C 79 % 1007.8 hPa 0.0 l/m 2.5 km/h (1 Bft) W-SW 248 0 min 0.0 km/h (0 Bft)
21.10.2020 18:59 13.1 C 79 % 1007.8 hPa 0.0 l/m 2.5 km/h (1 Bft) W-SW 248 0 min 0.0 km/h (0 Bft)
21.10.2020 18:58 13.1 C 79 % 1007.8 hPa 0.0 l/m 3.6 km/h (1 Bft) NW 315 0 min 0.0 km/h (0 Bft)
21.10.2020 18:57 13.1 C 79 % 1007.8 hPa 0.0 l/m 3.6 km/h (1 Bft) NW 315 0 min 0.0 km/h (0 Bft)
21.10.2020 18:56 13.1 C 79 % 1007.8 hPa 0.0 l/m 4.3 km/h (1 Bft) W-SW 248 0 min 3.6 km/h (1 Bft)
21.10.2020 18:55 13.1 C 79 % 1007.8 hPa 0.0 l/m 4.3 km/h (1 Bft) W-SW 248 0 min 3.6 km/h (1 Bft)
21.10.2020 18:54 13.1 C 79 % 1007.8 hPa 0.0 l/m 4.0 km/h (1 Bft) W-NW 293 0 min 5.0 km/h (1 Bft)
21.10.2020 18:53 13.1 C 79 % 1007.8 hPa 0.0 l/m 4.0 km/h (1 Bft) W-NW 293 0 min 5.0 km/h (1 Bft)
21.10.2020 18:52 13.2 C 79 % 1007.3 hPa 0.0 l/m 3.6 km/h (1 Bft) NO 45 0 min 7.2 km/h (2 Bft)
21.10.2020 18:51 13.2 C 79 % 1007.3 hPa 0.0 l/m 3.6 km/h (1 Bft) NO 45 0 min 7.2 km/h (2 Bft)
21.10.2020 18:50 13.3 C 79 % 1007.3 hPa 0.0 l/m 3.6 km/h (1 Bft) NO 45 0 min 7.2 km/h (2 Bft)
21.10.2020 18:49 13.3 C 79 % 1007.3 hPa 0.0 l/m 3.6 km/h (1 Bft) NO 45 0 min 7.2 km/h (2 Bft)
21.10.2020 18:48 13.3 C 79 % 1007.3 hPa 0.0 l/m 2.5 km/h (1 Bft) W 270 0 min 4.0 km/h (1 Bft)
21.10.2020 18:47 13.3 C 79 % 1007.3 hPa 0.0 l/m 2.5 km/h (1 Bft) W 270 0 min 4.0 km/h (1 Bft)
21.10.2020 18:46 13.3 C 79 % 1007.3 hPa 0.0 l/m 2.2 km/h (1 Bft) W-NW 293 0 min 4.0 km/h (1 Bft)
21.10.2020 18:45 13.3 C 79 % 1007.3 hPa 0.0 l/m 2.2 km/h (1 Bft) W-NW 293 0 min 4.0 km/h (1 Bft)
21.10.2020 18:44 13.2 C 79 % 1007.3 hPa 0.0 l/m 1.4 km/h (1 Bft) W-NW 293 0 min 3.6 km/h (1 Bft)
21.10.2020 18:43 13.2 C 79 % 1007.3 hPa 0.0 l/m 1.4 km/h (1 Bft) W-NW 293 0 min 3.6 km/h (1 Bft)
21.10.2020 18:42 13.4 C 79 % 1007.3 hPa 0.0 l/m 0.7 km/h (0 Bft) W-NW 293 0 min 3.6 km/h (1 Bft)
21.10.2020 18:41 13.4 C 79 % 1007.3 hPa 0.0 l/m 0.7 km/h (0 Bft) W-NW 293 0 min 3.6 km/h (1 Bft)
21.10.2020 18:40 13.4 C 78 % 1007.3 hPa 0.0 l/m 0.4 km/h (0 Bft) N-NW 338 0 min 4.0 km/h (1 Bft)
21.10.2020 18:39 13.4 C 78 % 1007.3 hPa 0.0 l/m 0.4 km/h (0 Bft) N-NW 338 0 min 4.0 km/h (1 Bft)
21.10.2020 18:38 13.4 C 78 % 1007.3 hPa 0.0 l/m 0.0 km/h (0 Bft) W 270 0 min 0.0 km/h (0 Bft)
21.10.2020 18:37 13.4 C 78 % 1007.3 hPa 0.0 l/m 0.0 km/h (0 Bft) W 270 0 min 0.0 km/h (0 Bft)
21.10.2020 18:36 13.4 C 78 % 1007.3 hPa 0.0 l/m 0.0 km/h (0 Bft) W 270 0 min 0.0 km/h (0 Bft)
21.10.2020 18:35 13.5 C 78 % 1007.3 hPa 0.0 l/m 0.0 km/h (0 Bft) W 270 0 min 0.0 km/h (0 Bft)
21.10.2020 18:34 13.5 C 78 % 1007.3 hPa 0.0 l/m 0.0 km/h (0 Bft) W 270 0 min 0.0 km/h (0 Bft)
21.10.2020 18:33 13.7 C 78 % 1007.3 hPa 0.0 l/m 0.0 km/h (0 Bft) W-SW 248 0 min 0.0 km/h (0 Bft)
21.10.2020 18:32 13.7 C 78 % 1007.3 hPa 0.0 l/m 0.0 km/h (0 Bft) W-SW 248 0 min 0.0 km/h (0 Bft)
21.10.2020 18:31 13.7 C 77 % 1007.2 hPa 0.0 l/m 0.4 km/h (0 Bft) W-NW 293 0 min 0.0 km/h (0 Bft)
21.10.2020 18:30 13.7 C 77 % 1007.2 hPa 0.0 l/m 0.4 km/h (0 Bft) W-NW 293 0 min 0.0 km/h (0 Bft)
21.10.2020 18:29 13.7 C 77 % 1007.2 hPa 0.0 l/m 0.4 km/h (0 Bft) W-NW 293 0 min 0.0 km/h (0 Bft)
21.10.2020 18:28 13.7 C 77 % 1007.2 hPa 0.0 l/m 0.4 km/h (0 Bft) W-NW 293 0 min 0.0 km/h (0 Bft)
21.10.2020 18:27 13.8 C 77 % 1007.2 hPa 0.0 l/m 0.4 km/h (0 Bft) NW 315 0 min 0.0 km/h (0 Bft)
21.10.2020 18:26 13.8 C 77 % 1007.2 hPa 0.0 l/m 0.4 km/h (0 Bft) NW 315 0 min 0.0 km/h (0 Bft)
21.10.2020 18:25 13.8 C 77 % 1007.2 hPa 0.0 l/m 0.4 km/h (0 Bft) W-NW 293 0 min 0.0 km/h (0 Bft)
21.10.2020 18:24 13.8 C 77 % 1007.2 hPa 0.0 l/m 0.4 km/h (0 Bft) W-NW 293 0 min 0.0 km/h (0 Bft)
21.10.2020 18:23 13.9 C 76 % 1007.2 hPa 0.0 l/m 0.0 km/h (0 Bft) W 270 0 min 0.0 km/h (0 Bft)
21.10.2020 18:22 13.9 C 76 % 1007.2 hPa 0.0 l/m 0.0 km/h (0 Bft) W 270 0 min 0.0 km/h (0 Bft)
21.10.2020 18:21 14.0 C 76 % 1007.2 hPa 0.0 l/m 0.0 km/h (0 Bft) S-SW 203 0 min 0.0 km/h (0 Bft)
21.10.2020 18:20 14.0 C 75 % 1007.2 hPa 0.0 l/m 0.4 km/h (0 Bft) O-NO 68 0 min 0.0 km/h (0 Bft)
21.10.2020 18:19 14.0 C 75 % 1007.2 hPa 0.0 l/m 0.4 km/h (0 Bft) O-NO 68 0 min 0.0 km/h (0 Bft)
21.10.2020 18:18 14.1 C 75 % 1007.2 hPa 0.0 l/m 0.4 km/h (0 Bft) SO 135 0 min 0.0 km/h (0 Bft)
21.10.2020 18:17 14.1 C 75 % 1007.2 hPa 0.0 l/m 0.4 km/h (0 Bft) SO 135 0 min 0.0 km/h (0 Bft)
21.10.2020 18:16 14.1 C 75 % 1007.2 hPa 0.0 l/m 0.4 km/h (0 Bft) S-SO 158 0 min 0.0 km/h (0 Bft)
21.10.2020 18:15 14.1 C 75 % 1007.2 hPa 0.0 l/m 0.4 km/h (0 Bft) S-SO 158 0 min 0.0 km/h (0 Bft)
21.10.2020 18:14 14.2 C 75 % 1007.2 hPa 0.0 l/m 0.4 km/h (0 Bft) W-SW 248 0 min 0.0 km/h (0 Bft)
21.10.2020 18:13 14.2 C 75 % 1007.2 hPa 0.0 l/m 0.4 km/h (0 Bft) W-SW 248 0 min 0.0 km/h (0 Bft)
21.10.2020 18:12 14.3 C 75 % 1007.0 hPa 0.0 l/m 0.7 km/h (0 Bft) NW 315 0 min 2.5 km/h (1 Bft)
21.10.2020 18:11 14.3 C 75 % 1007.0 hPa 0.0 l/m 0.7 km/h (0 Bft) NW 315 0 min 2.5 km/h (1 Bft)
21.10.2020 18:10 14.3 C 75 % 1007.0 hPa 0.0 l/m 0.7 km/h (0 Bft) NW 315 0 min 2.5 km/h (1 Bft)
21.10.2020 18:09 14.3 C 75 % 1007.0 hPa 0.0 l/m 0.7 km/h (0 Bft) NW 315 0 min 2.5 km/h (1 Bft)
21.10.2020 18:08 14.3 C 75 % 1007.0 hPa 0.0 l/m 1.4 km/h (1 Bft) W-NW 293 0 min 2.5 km/h (1 Bft)
21.10.2020 18:07 14.3 C 75 % 1007.0 hPa 0.0 l/m 1.4 km/h (1 Bft) W-NW 293 0 min 2.5 km/h (1 Bft)
21.10.2020 18:06 14.3 C 75 % 1007.0 hPa 0.0 l/m 2.2 km/h (1 Bft) W-SW 248 0 min 0.0 km/h (0 Bft)
21.10.2020 18:05 14.3 C 75 % 1007.0 hPa 0.0 l/m 2.2 km/h (1 Bft) W-SW 248 0 min 0.0 km/h (0 Bft)
21.10.2020 18:04 14.4 C 75 % 1007.0 hPa 0.0 l/m 3.6 km/h (1 Bft) NO 45 0 min 0.0 km/h (0 Bft)
21.10.2020 18:03 14.4 C 75 % 1007.0 hPa 0.0 l/m 3.6 km/h (1 Bft) NO 45 0 min 0.0 km/h (0 Bft)
21.10.2020 18:02 14.5 C 75 % 1007.0 hPa 0.0 l/m 4.3 km/h (1 Bft) W-NW 293 0 min 0.0 km/h (0 Bft)
21.10.2020 18:01 14.5 C 75 % 1007.0 hPa 0.0 l/m 4.3 km/h (1 Bft) W-NW 293 0 min 0.0 km/h (0 Bft)
21.10.2020 18:00 14.4 C 75 % 1007.0 hPa 0.0 l/m 4.3 km/h (1 Bft) S-SW 203 0 min 5.0 km/h (1 Bft)
21.10.2020 17:59 14.4 C 75 % 1007.0 hPa 0.0 l/m 4.3 km/h (1 Bft) S-SW 203 0 min 5.0 km/h (1 Bft)
21.10.2020 17:58 14.4 C 75 % 1007.0 hPa 0.0 l/m 3.6 km/h (1 Bft) W-SW 248 0 min 6.1 km/h (2 Bft)
21.10.2020 17:57 14.5 C 76 % 1007.0 hPa 0.0 l/m 3.6 km/h (1 Bft) W-SW 248 0 min 6.1 km/h (2 Bft)
21.10.2020 17:56 14.5 C 76 % 1007.0 hPa 0.0 l/m 2.5 km/h (1 Bft) W-SW 248 0 min 12.2 km/h (2 Bft)
21.10.2020 17:55 14.5 C 76 % 1007.0 hPa 0.0 l/m 2.5 km/h (1 Bft) W-SW 248 0 min 12.2 km/h (2 Bft)
21.10.2020 17:54 14.5 C 76 % 1007.0 hPa 0.0 l/m 2.5 km/h (1 Bft) W-SW 248 0 min 12.2 km/h (2 Bft)
21.10.2020 17:53 14.5 C 77 % 1007.0 hPa 0.0 l/m 1.4 km/h (1 Bft) W-SW 248 0 min 5.8 km/h (2 Bft)
21.10.2020 17:52 14.5 C 77 % 1007.0 hPa 0.0 l/m 1.4 km/h (1 Bft) W-SW 248 0 min 5.8 km/h (2 Bft)
21.10.2020 17:51 14.4 C 77 % 1006.6 hPa 0.0 l/m 0.0 km/h (0 Bft) W-SW 248 0 min 0.0 km/h (0 Bft)
21.10.2020 17:50 14.4 C 77 % 1006.6 hPa 0.0 l/m 0.0 km/h (0 Bft) W-SW 248 0 min 0.0 km/h (0 Bft)
21.10.2020 17:49 14.5 C 77 % 1006.6 hPa 0.0 l/m 0.0 km/h (0 Bft) W-SW 248 0 min 0.0 km/h (0 Bft)
21.10.2020 17:48 14.5 C 77 % 1006.6 hPa 0.0 l/m 0.0 km/h (0 Bft) W-SW 248 0 min 0.0 km/h (0 Bft)
21.10.2020 17:47 14.5 C 77 % 1006.6 hPa 0.0 l/m 0.0 km/h (0 Bft) W 270 0 min 0.0 km/h (0 Bft)
21.10.2020 17:46 14.5 C 77 % 1006.6 hPa 0.0 l/m 0.0 km/h (0 Bft) W 270 0 min 0.0 km/h (0 Bft)
21.10.2020 17:45 14.6 C 76 % 1006.6 hPa 0.0 l/m 0.0 km/h (0 Bft) O-NO 68 0 min 0.0 km/h (0 Bft)
21.10.2020 17:44 14.6 C 76 % 1006.6 hPa 0.0 l/m 0.0 km/h (0 Bft) O-NO 68 0 min 0.0 km/h (0 Bft)
21.10.2020 17:43 14.6 C 76 % 1006.6 hPa 0.0 l/m 0.0 km/h (0 Bft) W-NW 293 0 min 0.0 km/h (0 Bft)
21.10.2020 17:42 14.7 C 76 % 1006.6 hPa 0.0 l/m 0.0 km/h (0 Bft) W-NW 293 0 min 0.0 km/h (0 Bft)
21.10.2020 17:41 14.7 C 76 % 1006.6 hPa 0.0 l/m 0.0 km/h (0 Bft) S-SW 203 0 min 0.0 km/h (0 Bft)
21.10.2020 17:40 14.7 C 76 % 1006.6 hPa 0.0 l/m 0.0 km/h (0 Bft) S-SW 203 0 min 0.0 km/h (0 Bft)
21.10.2020 17:39 14.7 C 76 % 1006.6 hPa 0.0 l/m 0.0 km/h (0 Bft) S-SW 203 0 min 0.0 km/h (0 Bft)
21.10.2020 17:38 14.8 C 75 % 1006.6 hPa 0.0 l/m 0.0 km/h (0 Bft) W-NW 293 0 min 0.0 km/h (0 Bft)
21.10.2020 17:37 14.8 C 75 % 1006.6 hPa 0.0 l/m 0.0 km/h (0 Bft) W-NW 293 0 min 0.0 km/h (0 Bft)
21.10.2020 17:36 14.8 C 74 % 1006.6 hPa 0.0 l/m 0.0 km/h (0 Bft) W 270 0 min 0.0 km/h (0 Bft)
21.10.2020 17:35 14.8 C 74 % 1006.6 hPa 0.0 l/m 0.0 km/h (0 Bft) W 270 0 min 0.0 km/h (0 Bft)
21.10.2020 17:34 14.9 C 74 % 1006.6 hPa 0.0 l/m 0.4 km/h (0 Bft) O 90 0 min 0.0 km/h (0 Bft)
21.10.2020 17:33 14.9 C 74 % 1006.6 hPa 0.0 l/m 0.4 km/h (0 Bft) O 90 0 min 0.0 km/h (0 Bft)
21.10.2020 17:32 15.0 C 73 % 1006.4 hPa 0.0 l/m 0.4 km/h (0 Bft) O-NO 68 0 min 0.0 km/h (0 Bft)
21.10.2020 17:31 15.0 C 73 % 1006.4 hPa 0.0 l/m 0.4 km/h (0 Bft) O-NO 68 0 min 0.0 km/h (0 Bft)
21.10.2020 17:30 15.0 C 73 % 1006.4 hPa 0.0 l/m 0.4 km/h (0 Bft) O-NO 68 0 min 0.0 km/h (0 Bft)
21.10.2020 17:29 15.0 C 73 % 1006.4 hPa 0.0 l/m 0.4 km/h (0 Bft) O-NO 68 0 min 0.0 km/h (0 Bft)
21.10.2020 17:28 15.1 C 73 % 1006.4 hPa 0.0 l/m 0.7 km/h (0 Bft) S 180 0 min 0.0 km/h (0 Bft)
21.10.2020 17:27 15.1 C 73 % 1006.4 hPa 0.0 l/m 0.7 km/h (0 Bft) S 180 0 min 0.0 km/h (0 Bft)
21.10.2020 17:26 15.0 C 73 % 1006.4 hPa 0.0 l/m 0.7 km/h (0 Bft) NO 45 0 min 0.0 km/h (0 Bft)
21.10.2020 17:25 15.0 C 73 % 1006.4 hPa 0.0 l/m 0.7 km/h (0 Bft) NO 45 0 min 0.0 km/h (0 Bft)
21.10.2020 17:24 15.1 C 74 % 1006.4 hPa 0.0 l/m 0.4 km/h (0 Bft) S 180 0 min 0.0 km/h (0 Bft)
21.10.2020 17:23 15.1 C 74 % 1006.4 hPa 0.0 l/m 0.4 km/h (0 Bft) S 180 0 min 0.0 km/h (0 Bft)
21.10.2020 17:22 15.1 C 74 % 1006.4 hPa 0.0 l/m 0.4 km/h (0 Bft) S-SO 158 0 min 0.0 km/h (0 Bft)
21.10.2020 17:21 15.1 C 74 % 1006.4 hPa 0.0 l/m 0.4 km/h (0 Bft) S-SO 158 0 min 0.0 km/h (0 Bft)
21.10.2020 17:20 15.1 C 74 % 1006.4 hPa 0.0 l/m 0.4 km/h (0 Bft) N-NO 23 0 min 2.5 km/h (1 Bft)
21.10.2020 17:19 15.1 C 74 % 1006.4 hPa 0.0 l/m 0.4 km/h (0 Bft) N-NO 23 0 min 2.5 km/h (1 Bft)
21.10.2020 17:18 15.1 C 74 % 1006.4 hPa 0.0 l/m 0.4 km/h (0 Bft) O-NO 68 0 min 3.6 km/h (1 Bft)
21.10.2020 17:17 15.3 C 74 % 1006.4 hPa 0.0 l/m 0.4 km/h (0 Bft) O-NO 68 0 min 3.6 km/h (1 Bft)
21.10.2020 17:16 15.3 C 74 % 1006.4 hPa 0.0 l/m 0.7 km/h (0 Bft) W 270 0 min 0.0 km/h (0 Bft)
21.10.2020 17:15 15.3 C 74 % 1006.4 hPa 0.0 l/m 0.7 km/h (0 Bft) W 270 0 min 0.0 km/h (0 Bft)
21.10.2020 17:14 15.3 C 74 % 1006.4 hPa 0.0 l/m 0.7 km/h (0 Bft) W 270 0 min 0.0 km/h (0 Bft)
21.10.2020 17:13 15.2 C 74 % 1006.4 hPa 0.0 l/m 0.7 km/h (0 Bft) W-SW 248 1 min 0.0 km/h (0 Bft)
21.10.2020 17:12 15.2 C 74 % 1006.4 hPa 0.0 l/m 0.7 km/h (0 Bft) W-SW 248 1 min 0.0 km/h (0 Bft)
21.10.2020 17:11 15.3 C 74 % 1006.2 hPa 0.0 l/m 2.9 km/h (1 Bft) SO 135 1 min 0.0 km/h (0 Bft)
21.10.2020 17:10 15.3 C 74 % 1006.2 hPa 0.0 l/m 2.9 km/h (1 Bft) SO 135 1 min 0.0 km/h (0 Bft)
21.10.2020 17:09 15.4 C 73 % 1006.2 hPa 0.0 l/m 2.9 km/h (1 Bft) SO 135 1 min 0.0 km/h (0 Bft)
21.10.2020 17:08 15.4 C 73 % 1006.2 hPa 0.0 l/m 2.9 km/h (1 Bft) SO 135 1 min 0.0 km/h (0 Bft)
21.10.2020 17:07 15.4 C 73 % 1006.2 hPa 0.0 l/m 4.0 km/h (1 Bft) W-NW 293 1 min 0.0 km/h (0 Bft)
21.10.2020 17:06 15.4 C 73 % 1006.2 hPa 0.0 l/m 4.0 km/h (1 Bft) W-NW 293 1 min 0.0 km/h (0 Bft)
21.10.2020 17:05 15.5 C 73 % 1006.2 hPa 0.0 l/m 4.3 km/h (1 Bft) NW 315 1 min 5.0 km/h (1 Bft)
21.10.2020 17:04 15.5 C 73 % 1006.2 hPa 0.0 l/m 4.3 km/h (1 Bft) NW 315 1 min 5.0 km/h (1 Bft)
21.10.2020 17:03 15.4 C 72 % 1006.2 hPa 0.0 l/m 4.3 km/h (1 Bft) W 270 1 min 2.5 km/h (1 Bft)
21.10.2020 17:02 15.4 C 72 % 1006.2 hPa 0.0 l/m 4.7 km/h (1 Bft) W 270 1 min 9.0 km/h (2 Bft)
21.10.2020 17:01 15.5 C 72 % 1006.2 hPa 0.0 l/m 5.0 km/h (1 Bft) W-NW 293 1 min 9.0 km/h (2 Bft)
21.10.2020 17:00 15.4 C 72 % 1006.2 hPa 0.0 l/m 4.7 km/h (1 Bft) W-NW 293 1 min 6.1 km/h (2 Bft)
21.10.2020 16:59 15.4 C 72 % 1006.2 hPa 0.0 l/m 4.7 km/h (1 Bft) W-NW 293 1 min 6.1 km/h (2 Bft)
21.10.2020 16:58 15.4 C 72 % 1006.2 hPa 0.0 l/m 4.0 km/h (1 Bft) W-SW 248 1 min 3.6 km/h (1 Bft)
21.10.2020 16:57 15.4 C 72 % 1006.2 hPa 0.0 l/m 4.0 km/h (1 Bft) W-SW 248 1 min 3.6 km/h (1 Bft)
21.10.2020 16:56 15.4 C 72 % 1006.2 hPa 0.0 l/m 3.6 km/h (1 Bft) SW 225 1 min 5.8 km/h (2 Bft)
21.10.2020 16:55 15.4 C 72 % 1006.2 hPa 0.0 l/m 3.6 km/h (1 Bft) SW 225 1 min 5.8 km/h (2 Bft)
21.10.2020 16:54 15.4 C 72 % 1006.2 hPa 0.0 l/m 2.5 km/h (1 Bft) W-SW 248 1 min 4.3 km/h (1 Bft)
21.10.2020 16:53 15.4 C 72 % 1006.2 hPa 0.0 l/m 2.5 km/h (1 Bft) W-SW 248 1 min 4.3 km/h (1 Bft)
21.10.2020 16:52 15.3 C 73 % 1006.2 hPa 0.0 l/m 0.4 km/h (0 Bft) W-SW 248 1 min 6.1 km/h (2 Bft)
21.10.2020 16:51 15.3 C 73 % 1006.2 hPa 0.0 l/m 0.4 km/h (0 Bft) W-SW 248 1 min 6.1 km/h (2 Bft)
21.10.2020 16:50 15.4 C 73 % 1006.2 hPa 0.0 l/m 0.4 km/h (0 Bft) W-SW 248 1 min 6.1 km/h (2 Bft)
21.10.2020 16:49 15.4 C 73 % 1006.2 hPa 0.0 l/m 0.4 km/h (0 Bft) W-SW 248 1 min 6.1 km/h (2 Bft)
21.10.2020 16:48 15.4 C 72 % 1006.2 hPa 0.0 l/m 0.0 km/h (0 Bft) S-SW 203 1 min 0.0 km/h (0 Bft)
21.10.2020 16:47 15.4 C 72 % 1006.2 hPa 0.0 l/m 0.0 km/h (0 Bft) S-SW 203 1 min 0.0 km/h (0 Bft)
21.10.2020 16:46 15.5 C 72 % 1006.2 hPa 0.0 l/m 0.0 km/h (0 Bft) SO 135 1 min 0.0 km/h (0 Bft)
21.10.2020 16:45 15.5 C 72 % 1006.2 hPa 0.0 l/m 0.0 km/h (0 Bft) SO 135 1 min 0.0 km/h (0 Bft)
21.10.2020 16:44 15.4 C 72 % 1006.2 hPa 0.0 l/m 0.0 km/h (0 Bft) O-SO 113 1 min 0.0 km/h (0 Bft)
21.10.2020 16:43 15.4 C 72 % 1006.2 hPa 0.0 l/m 0.0 km/h (0 Bft) O-SO 113 1 min 0.0 km/h (0 Bft)
21.10.2020 16:42 15.4 C 72 % 1006.2 hPa 0.0 l/m 0.4 km/h (0 Bft) O-NO 68 1 min 0.0 km/h (0 Bft)
21.10.2020 16:41 15.4 C 72 % 1006.2 hPa 0.0 l/m 0.4 km/h (0 Bft) O-NO 68 1 min 0.0 km/h (0 Bft)
21.10.2020 16:40 15.4 C 72 % 1006.2 hPa 0.0 l/m 0.7 km/h (0 Bft) O-SO 113 1 min 0.0 km/h (0 Bft)
21.10.2020 16:39 15.4 C 72 % 1006.2 hPa 0.0 l/m 0.7 km/h (0 Bft) O-SO 113 1 min 0.0 km/h (0 Bft)
21.10.2020 16:38 15.4 C 72 % 1006.2 hPa 0.0 l/m 1.4 km/h (1 Bft) S-SW 203 1 min 0.0 km/h (0 Bft)
21.10.2020 16:37 15.4 C 72 % 1006.2 hPa 0.0 l/m 1.4 km/h (1 Bft) S-SW 203 1 min 0.0 km/h (0 Bft)
21.10.2020 16:36 15.4 C 72 % 1006.2 hPa 0.0 l/m 1.4 km/h (1 Bft) N-NO 23 1 min 0.0 km/h (0 Bft)
21.10.2020 16:35 15.5 C 71 % 1006.2 hPa 0.0 l/m 1.4 km/h (1 Bft) N-NO 23 1 min 0.0 km/h (0 Bft)
21.10.2020 16:34 15.5 C 71 % 1006.2 hPa 0.0 l/m 1.4 km/h (1 Bft) N-NO 23 1 min 0.0 km/h (0 Bft)
21.10.2020 16:33 15.4 C 71 % 1006.2 hPa 0.0 l/m 1.4 km/h (1 Bft) SO 135 1 min 0.0 km/h (0 Bft)
21.10.2020 16:32 15.4 C 71 % 1006.2 hPa 0.0 l/m 1.4 km/h (1 Bft) SO 135 1 min 0.0 km/h (0 Bft)
21.10.2020 16:31 15.5 C 71 % 1006.0 hPa 0.0 l/m 0.7 km/h (0 Bft) SO 135 1 min 3.6 km/h (1 Bft)
21.10.2020 16:30 15.5 C 71 % 1006.0 hPa 0.0 l/m 0.7 km/h (0 Bft) SO 135 1 min 3.6 km/h (1 Bft)
21.10.2020 16:29 15.3 C 71 % 1006.0 hPa 0.0 l/m 0.7 km/h (0 Bft) SO 135 1 min 3.6 km/h (1 Bft)
21.10.2020 16:28 15.3 C 71 % 1006.0 hPa 0.0 l/m 0.7 km/h (0 Bft) SO 135 1 min 3.6 km/h (1 Bft)
21.10.2020 16:27 15.2 C 72 % 1006.0 hPa 0.0 l/m 0.4 km/h (0 Bft) SW 225 1 min 3.6 km/h (1 Bft)
21.10.2020 16:26 15.2 C 72 % 1006.0 hPa 0.0 l/m 0.4 km/h (0 Bft) SW 225 1 min 3.6 km/h (1 Bft)
21.10.2020 16:25 15.3 C 72 % 1006.0 hPa 0.0 l/m 0.4 km/h (0 Bft) W-SW 248 1 min 0.0 km/h (0 Bft)
21.10.2020 16:24 15.3 C 72 % 1006.0 hPa 0.0 l/m 0.4 km/h (0 Bft) W-SW 248 1 min 0.0 km/h (0 Bft)
21.10.2020 16:23 15.2 C 73 % 1006.0 hPa 0.0 l/m 0.4 km/h (0 Bft) S-SW 203 1 min 0.0 km/h (0 Bft)
21.10.2020 16:22 15.2 C 72 % 1006.0 hPa 0.0 l/m 0.4 km/h (0 Bft) S-SW 203 1 min 0.0 km/h (0 Bft)
21.10.2020 16:21 15.2 C 72 % 1006.0 hPa 0.0 l/m 0.4 km/h (0 Bft) N-NW 338 1 min 0.0 km/h (0 Bft)
21.10.2020 16:20 15.3 C 71 % 1006.0 hPa 0.0 l/m 0.4 km/h (0 Bft) SO 135 1 min 2.5 km/h (1 Bft)
21.10.2020 16:19 15.3 C 71 % 1006.0 hPa 0.0 l/m 0.4 km/h (0 Bft) SO 135 1 min 2.5 km/h (1 Bft)
21.10.2020 16:18 15.2 C 72 % 1006.0 hPa 0.0 l/m 0.4 km/h (0 Bft) S 180 1 min 0.0 km/h (0 Bft)
21.10.2020 16:17 15.2 C 72 % 1006.0 hPa 0.0 l/m 0.4 km/h (0 Bft) S 180 1 min 0.0 km/h (0 Bft)
21.10.2020 16:16 15.3 C 72 % 1006.0 hPa 0.0 l/m 0.4 km/h (0 Bft) S-SO 158 1 min 0.0 km/h (0 Bft)
21.10.2020 16:15 15.3 C 72 % 1006.0 hPa 0.0 l/m 0.4 km/h (0 Bft) S-SO 158 1 min 0.0 km/h (0 Bft)
21.10.2020 16:14 15.3 C 72 % 1006.0 hPa 0.0 l/m 0.7 km/h (0 Bft) SO 135 1 min 3.6 km/h (1 Bft)
21.10.2020 16:13 15.3 C 72 % 1006.0 hPa 0.0 l/m 0.7 km/h (0 Bft) SO 135 1 min 3.6 km/h (1 Bft)
21.10.2020 16:12 15.3 C 71 % 1006.2 hPa 0.0 l/m 0.7 km/h (0 Bft) SO 135 1 min 0.0 km/h (0 Bft)
21.10.2020 16:11 15.3 C 71 % 1006.2 hPa 0.0 l/m 0.7 km/h (0 Bft) SO 135 1 min 0.0 km/h (0 Bft)
21.10.2020 16:10 15.1 C 71 % 1006.2 hPa 0.0 l/m 0.7 km/h (0 Bft) SO 135 1 min 0.0 km/h (0 Bft)
21.10.2020 16:09 15.1 C 71 % 1006.2 hPa 0.0 l/m 0.7 km/h (0 Bft) SO 135 1 min 0.0 km/h (0 Bft)
21.10.2020 16:08 15.1 C 72 % 1006.2 hPa 0.0 l/m 0.7 km/h (0 Bft) SO 135 1 min 2.5 km/h (1 Bft)
21.10.2020 16:07 15.1 C 72 % 1006.2 hPa 0.0 l/m 0.7 km/h (0 Bft) SO 135 1 min 2.5 km/h (1 Bft)
21.10.2020 16:06 15.1 C 71 % 1006.2 hPa 0.0 l/m 0.7 km/h (0 Bft) S-SW 203 1 min 0.0 km/h (0 Bft)
21.10.2020 16:05 15.1 C 71 % 1006.2 hPa 0.0 l/m 0.7 km/h (0 Bft) S-SW 203 1 min 0.0 km/h (0 Bft)
21.10.2020 16:04 15.0 C 72 % 1006.2 hPa 0.0 l/m 0.4 km/h (0 Bft) O 90 1 min 0.0 km/h (0 Bft)
21.10.2020 16:03 15.0 C 72 % 1006.2 hPa 0.0 l/m 0.4 km/h (0 Bft) O 90 1 min 0.0 km/h (0 Bft)
21.10.2020 16:02 15.1 C 72 % 1006.2 hPa 0.0 l/m 0.4 km/h (0 Bft) S-SO 158 1 min 4.7 km/h (1 Bft)
21.10.2020 16:01 15.1 C 72 % 1006.2 hPa 0.0 l/m 0.4 km/h (0 Bft) S-SO 158 1 min 4.7 km/h (1 Bft)
21.10.2020 16:00 14.9 C 73 % 1006.2 hPa 0.0 l/m 0.4 km/h (0 Bft) S-SW 203 1 min 0.0 km/h (0 Bft)
21.10.2020 15:59 14.9 C 73 % 1006.2 hPa 0.0 l/m 0.4 km/h (0 Bft) S-SW 203 1 min 0.0 km/h (0 Bft)
21.10.2020 15:58 14.9 C 73 % 1006.2 hPa 0.0 l/m 0.4 km/h (0 Bft) SO 135 1 min 2.5 km/h (1 Bft)
21.10.2020 15:57 14.9 C 73 % 1006.2 hPa 0.0 l/m 0.4 km/h (0 Bft) SO 135 1 min 2.5 km/h (1 Bft)
21.10.2020 15:56 14.9 C 73 % 1006.2 hPa 0.0 l/m 0.4 km/h (0 Bft) S-SW 203 1 min 0.0 km/h (0 Bft)
21.10.2020 15:55 14.7 C 74 % 1006.2 hPa 0.0 l/m 0.4 km/h (0 Bft) S-SW 203 1 min 0.0 km/h (0 Bft)
21.10.2020 15:54 14.7 C 74 % 1006.2 hPa 0.0 l/m 0.4 km/h (0 Bft) S-SW 203 1 min 0.0 km/h (0 Bft)
21.10.2020 15:53 14.7 C 73 % 1006.2 hPa 0.0 l/m 0.4 km/h (0 Bft) W-NW 293 1 min 0.0 km/h (0 Bft)
21.10.2020 15:52 14.7 C 73 % 1006.2 hPa 0.0 l/m 0.4 km/h (0 Bft) W-NW 293 1 min 0.0 km/h (0 Bft)
21.10.2020 15:51 14.7 C 73 % 1005.8 hPa 0.0 l/m 0.0 km/h (0 Bft) S-SW 203 1 min 0.0 km/h (0 Bft)
21.10.2020 15:50 14.7 C 73 % 1005.8 hPa 0.0 l/m 0.0 km/h (0 Bft) S-SW 203 1 min 0.0 km/h (0 Bft)
21.10.2020 15:49 14.7 C 73 % 1005.8 hPa 0.0 l/m 0.0 km/h (0 Bft) S-SW 203 1 min 0.0 km/h (0 Bft)
21.10.2020 15:48 14.7 C 73 % 1005.8 hPa 0.0 l/m 0.0 km/h (0 Bft) S-SW 203 1 min 0.0 km/h (0 Bft)
21.10.2020 15:47 14.7 C 73 % 1005.8 hPa 0.0 l/m 0.4 km/h (0 Bft) S-SW 203 1 min 0.0 km/h (0 Bft)
21.10.2020 15:46 14.7 C 73 % 1005.8 hPa 0.0 l/m 0.4 km/h (0 Bft) S-SW 203 1 min 0.0 km/h (0 Bft)
21.10.2020 15:45 14.7 C 73 % 1005.8 hPa 0.0 l/m 0.4 km/h (0 Bft) SW 225 1 min 0.0 km/h (0 Bft)
21.10.2020 15:44 14.7 C 73 % 1005.8 hPa 0.0 l/m 0.4 km/h (0 Bft) SW 225 1 min 0.0 km/h (0 Bft)
21.10.2020 15:43 14.6 C 73 % 1005.8 hPa 0.0 l/m 0.7 km/h (0 Bft) S-SO 158 1 min 0.0 km/h (0 Bft)
21.10.2020 15:42 14.6 C 73 % 1005.8 hPa 0.0 l/m 0.7 km/h (0 Bft) S-SO 158 1 min 0.0 km/h (0 Bft)
21.10.2020 15:41 14.6 C 73 % 1005.8 hPa 0.0 l/m 0.7 km/h (0 Bft) O-NO 68 1 min 0.0 km/h (0 Bft)
21.10.2020 15:40 14.6 C 74 % 1005.8 hPa 0.0 l/m 1.4 km/h (1 Bft) SO 135 1 min 0.0 km/h (0 Bft)
21.10.2020 15:39 14.6 C 74 % 1005.8 hPa 0.0 l/m 1.4 km/h (1 Bft) SO 135 1 min 0.0 km/h (0 Bft)
21.10.2020 15:38 14.5 C 74 % 1005.8 hPa 0.0 l/m 2.2 km/h (1 Bft) SO 135 1 min 2.5 km/h (1 Bft)
21.10.2020 15:37 14.5 C 74 % 1005.8 hPa 0.0 l/m 2.2 km/h (1 Bft) SO 135 1 min 2.5 km/h (1 Bft)
21.10.2020 15:36 14.5 C 75 % 1005.8 hPa 0.0 l/m 2.5 km/h (1 Bft) NO 45 1 min 3.6 km/h (1 Bft)
21.10.2020 15:35 14.5 C 75 % 1005.8 hPa 0.0 l/m 2.5 km/h (1 Bft) NO 45 1 min 3.6 km/h (1 Bft)
21.10.2020 15:34 14.5 C 75 % 1005.8 hPa 0.0 l/m 2.5 km/h (1 Bft) O-NO 68 1 min 3.6 km/h (1 Bft)
21.10.2020 15:33 14.5 C 75 % 1005.8 hPa 0.0 l/m 2.5 km/h (1 Bft) O-NO 68 1 min 3.6 km/h (1 Bft)
21.10.2020 15:32 14.2 C 75 % 1006.0 hPa 0.0 l/m 2.5 km/h (1 Bft) N 0 1 min 0.0 km/h (0 Bft)
21.10.2020 15:31 14.2 C 75 % 1006.0 hPa 0.0 l/m 2.5 km/h (1 Bft) N 0 1 min 0.0 km/h (0 Bft)
21.10.2020 15:30 14.2 C 75 % 1006.0 hPa 0.0 l/m 2.5 km/h (1 Bft) N 0 1 min 0.0 km/h (0 Bft)
21.10.2020 15:29 14.2 C 75 % 1006.0 hPa 0.0 l/m 2.5 km/h (1 Bft) N 0 1 min 0.0 km/h (0 Bft)
21.10.2020 15:28 14.2 C 75 % 1006.0 hPa 0.0 l/m 2.2 km/h (1 Bft) O-NO 68 1 min 2.9 km/h (1 Bft)
21.10.2020 15:27 14.2 C 75 % 1006.0 hPa 0.0 l/m 2.2 km/h (1 Bft) O-NO 68 1 min 2.9 km/h (1 Bft)
21.10.2020 15:26 14.1 C 75 % 1006.0 hPa 0.0 l/m 2.2 km/h (1 Bft) O 90 1 min 4.7 km/h (1 Bft)
21.10.2020 15:25 14.1 C 75 % 1006.0 hPa 0.0 l/m 2.2 km/h (1 Bft) O 90 1 min 4.7 km/h (1 Bft)
21.10.2020 15:24 14.1 C 76 % 1006.0 hPa 0.0 l/m 1.8 km/h (1 Bft) N-NO 23 1 min 3.6 km/h (1 Bft)
21.10.2020 15:23 14.1 C 76 % 1006.0 hPa 0.0 l/m 1.8 km/h (1 Bft) N-NO 23 1 min 3.6 km/h (1 Bft)
21.10.2020 15:22 13.9 C 76 % 1006.0 hPa 0.0 l/m 2.2 km/h (1 Bft) N 0 1 min 0.0 km/h (0 Bft)
21.10.2020 15:21 13.9 C 76 % 1006.0 hPa 0.0 l/m 2.2 km/h (1 Bft) N 0 1 min 0.0 km/h (0 Bft)
21.10.2020 15:20 13.8 C 77 % 1006.0 hPa 0.0 l/m 2.2 km/h (1 Bft) N-NO 23 1 min 2.5 km/h (1 Bft)
21.10.2020 15:19 13.8 C 77 % 1006.0 hPa 0.0 l/m 2.2 km/h (1 Bft) N-NO 23 1 min 2.5 km/h (1 Bft)
21.10.2020 15:18 13.8 C 77 % 1006.0 hPa 0.0 l/m 2.2 km/h (1 Bft) SO 135 1 min 2.5 km/h (1 Bft)
21.10.2020 15:17 13.8 C 77 % 1006.0 hPa 0.0 l/m 2.2 km/h (1 Bft) SO 135 1 min 2.5 km/h (1 Bft)
21.10.2020 15:16 13.8 C 77 % 1006.0 hPa 0.0 l/m 2.5 km/h (1 Bft) N-NO 23 1 min 5.0 km/h (1 Bft)
21.10.2020 15:15 13.8 C 77 % 1006.0 hPa 0.0 l/m 2.5 km/h (1 Bft) N-NO 23 1 min 5.0 km/h (1 Bft)
21.10.2020 15:14 13.8 C 77 % 1006.0 hPa 0.0 l/m 2.5 km/h (1 Bft) N-NO 23 1 min 5.0 km/h (1 Bft)
21.10.2020 15:13 13.7 C 78 % 1006.0 hPa 0.0 l/m 2.5 km/h (1 Bft) O 90 1 min 4.0 km/h (1 Bft)
21.10.2020 15:12 13.7 C 78 % 1006.0 hPa 0.0 l/m 2.5 km/h (1 Bft) O 90 1 min 4.0 km/h (1 Bft)
21.10.2020 15:11 13.7 C 78 % 1005.9 hPa 0.0 l/m 1.4 km/h (1 Bft) W 270 1 min 0.0 km/h (0 Bft)
21.10.2020 15:10 13.7 C 78 % 1005.9 hPa 0.0 l/m 1.4 km/h (1 Bft) W 270 1 min 0.0 km/h (0 Bft)
21.10.2020 15:09 13.4 C 79 % 1005.9 hPa 0.0 l/m 1.4 km/h (1 Bft) W 270 1 min 0.0 km/h (0 Bft)
21.10.2020 15:08 13.4 C 79 % 1005.9 hPa 0.0 l/m 1.4 km/h (1 Bft) W 270 1 min 0.0 km/h (0 Bft)
21.10.2020 15:07 13.5 C 79 % 1005.9 hPa 0.0 l/m 0.7 km/h (0 Bft) W 270 1 min 2.5 km/h (1 Bft)
21.10.2020 15:06 13.5 C 79 % 1005.9 hPa 0.0 l/m 0.7 km/h (0 Bft) W 270 1 min 2.5 km/h (1 Bft)
21.10.2020 15:05 13.3 C 79 % 1005.9 hPa 0.0 l/m 0.7 km/h (0 Bft) NO 45 1 min 5.0 km/h (1 Bft)
21.10.2020 15:04 13.3 C 79 % 1005.9 hPa 0.0 l/m 0.7 km/h (0 Bft) NO 45 1 min 5.0 km/h (1 Bft)
21.10.2020 15:03 13.3 C 79 % 1005.9 hPa 0.0 l/m 0.4 km/h (0 Bft) O-NO 68 1 min 2.5 km/h (1 Bft)
21.10.2020 15:02 13.2 C 80 % 1005.9 hPa 0.0 l/m 0.4 km/h (0 Bft) O-NO 68 1 min 2.5 km/h (1 Bft)
21.10.2020 15:01 13.2 C 80 % 1005.9 hPa 0.0 l/m 0.4 km/h (0 Bft) N-NO 23 1 min 0.0 km/h (0 Bft)
21.10.2020 15:00 13.1 C 80 % 1005.9 hPa 0.0 l/m 0.7 km/h (0 Bft) NO 45 1 min 0.0 km/h (0 Bft)
21.10.2020 14:59 13.1 C 80 % 1005.9 hPa 0.0 l/m 0.7 km/h (0 Bft) NO 45 1 min 0.0 km/h (0 Bft)
21.10.2020 14:58 13.0 C 80 % 1005.9 hPa 0.0 l/m 0.7 km/h (0 Bft) O-NO 68 1 min 0.0 km/h (0 Bft)
21.10.2020 14:57 13.0 C 80 % 1005.9 hPa 0.0 l/m 0.7 km/h (0 Bft) O-NO 68 1 min 0.0 km/h (0 Bft)
21.10.2020 14:56 13.1 C 80 % 1005.9 hPa 0.0 l/m 1.8 km/h (1 Bft) NW 315 1 min 0.0 km/h (0 Bft)
21.10.2020 14:55 13.1 C 80 % 1005.9 hPa 0.0 l/m 1.8 km/h (1 Bft) NW 315 1 min 0.0 km/h (0 Bft)
21.10.2020 14:54 13.0 C 80 % 1005.9 hPa 0.0 l/m 1.8 km/h (1 Bft) S-SO 158 1 min 2.9 km/h (1 Bft)
21.10.2020 14:53 13.0 C 80 % 1005.9 hPa 0.0 l/m 1.8 km/h (1 Bft) S-SO 158 1 min 2.9 km/h (1 Bft)
21.10.2020 14:52 13.1 C 80 % 1006.1 hPa 0.0 l/m 1.4 km/h (1 Bft) O 90 1 min 4.7 km/h (1 Bft)
21.10.2020 14:51 13.1 C 80 % 1006.1 hPa 0.0 l/m 1.4 km/h (1 Bft) O 90 1 min 4.7 km/h (1 Bft)
21.10.2020 14:50 13.0 C 80 % 1006.1 hPa 0.0 l/m 1.4 km/h (1 Bft) O 90 1 min 4.7 km/h (1 Bft)
21.10.2020 14:49 13.0 C 80 % 1006.1 hPa 0.0 l/m 1.4 km/h (1 Bft) O 90 1 min 4.7 km/h (1 Bft)
21.10.2020 14:48 13.0 C 80 % 1006.1 hPa 0.0 l/m 1.4 km/h (1 Bft) N-NW 338 1 min 0.0 km/h (0 Bft)
21.10.2020 14:47 13.0 C 80 % 1006.1 hPa 0.0 l/m 1.4 km/h (1 Bft) N-NW 338 1 min 0.0 km/h (0 Bft)
21.10.2020 14:46 12.9 C 81 % 1006.1 hPa 0.0 l/m 0.7 km/h (0 Bft) O-NO 68 1 min 6.8 km/h (2 Bft)
21.10.2020 14:45 12.9 C 81 % 1006.1 hPa 0.0 l/m 0.7 km/h (0 Bft) O-NO 68 1 min 6.8 km/h (2 Bft)
21.10.2020 14:44 12.9 C 81 % 1006.1 hPa 0.0 l/m 0.4 km/h (0 Bft) O 90 1 min 0.0 km/h (0 Bft)
21.10.2020 14:43 12.9 C 81 % 1006.1 hPa 0.0 l/m 0.4 km/h (0 Bft) O 90 1 min 0.0 km/h (0 Bft)
21.10.2020 14:42 12.9 C 81 % 1006.1 hPa 0.0 l/m 0.4 km/h (0 Bft) O-NO 68 0 min 3.6 km/h (1 Bft)
21.10.2020 14:41 12.9 C 81 % 1006.1 hPa 0.0 l/m 0.4 km/h (0 Bft) O-NO 68 0 min 3.6 km/h (1 Bft)
21.10.2020 14:40 12.9 C 81 % 1006.1 hPa 0.0 l/m 0.7 km/h (0 Bft) N 0 0 min 0.0 km/h (0 Bft)
21.10.2020 14:39 12.9 C 81 % 1006.1 hPa 0.0 l/m 0.7 km/h (0 Bft) N 0 0 min 0.0 km/h (0 Bft)
21.10.2020 14:38 12.9 C 81 % 1006.1 hPa 0.0 l/m 0.7 km/h (0 Bft) O-SO 113 0 min 2.5 km/h (1 Bft)
21.10.2020 14:37 12.7 C 81 % 1006.1 hPa 0.0 l/m 0.7 km/h (0 Bft) O-SO 113 0 min 2.5 km/h (1 Bft)
21.10.2020 14:36 12.7 C 81 % 1006.1 hPa 0.0 l/m 1.4 km/h (1 Bft) W-SW 248 0 min 0.0 km/h (0 Bft)
21.10.2020 14:35 12.8 C 81 % 1006.1 hPa 0.0 l/m 1.4 km/h (1 Bft) W-SW 248 0 min 0.0 km/h (0 Bft)
21.10.2020 14:34 12.8 C 81 % 1006.1 hPa 0.0 l/m 1.4 km/h (1 Bft) W-SW 248 0 min 0.0 km/h (0 Bft)
21.10.2020 14:33 12.8 C 81 % 1006.1 hPa 0.0 l/m 1.4 km/h (1 Bft) W 270 0 min 0.0 km/h (0 Bft)
21.10.2020 14:32 12.8 C 81 % 1006.1 hPa 0.0 l/m 1.4 km/h (1 Bft) W 270 0 min 0.0 km/h (0 Bft)
21.10.2020 14:31 12.7 C 81 % 1006.1 hPa 0.0 l/m 0.7 km/h (0 Bft) O-SO 113 0 min 4.0 km/h (1 Bft)
21.10.2020 14:30 12.7 C 81 % 1006.1 hPa 0.0 l/m 0.7 km/h (0 Bft) O-SO 113 0 min 4.0 km/h (1 Bft)
21.10.2020 14:29 12.7 C 81 % 1006.1 hPa 0.0 l/m 0.7 km/h (0 Bft) O-SO 113 1 min 4.0 km/h (1 Bft)
21.10.2020 14:28 12.7 C 81 % 1006.1 hPa 0.0 l/m 0.7 km/h (0 Bft) O-SO 113 1 min 4.0 km/h (1 Bft)
21.10.2020 14:27 12.6 C 81 % 1006.1 hPa 0.0 l/m 0.4 km/h (0 Bft) S-SO 158 1 min 0.0 km/h (0 Bft)
21.10.2020 14:26 12.6 C 81 % 1006.1 hPa 0.0 l/m 0.4 km/h (0 Bft) S-SO 158 1 min 0.0 km/h (0 Bft)
21.10.2020 14:25 12.6 C 81 % 1006.1 hPa 0.0 l/m 0.4 km/h (0 Bft) O-NO 68 1 min 4.0 km/h (1 Bft)
21.10.2020 14:24 12.6 C 81 % 1006.1 hPa 0.0 l/m 0.4 km/h (0 Bft) O-NO 68 1 min 4.0 km/h (1 Bft)
21.10.2020 14:23 12.6 C 81 % 1006.1 hPa 0.0 l/m 0.4 km/h (0 Bft) SO 135 1 min 0.0 km/h (0 Bft)
21.10.2020 14:22 12.6 C 80 % 1006.1 hPa 0.0 l/m 0.4 km/h (0 Bft) SO 135 1 min 0.0 km/h (0 Bft)
21.10.2020 14:21 12.6 C 80 % 1006.1 hPa 0.0 l/m 0.4 km/h (0 Bft) W 270 0 min 0.0 km/h (0 Bft)
21.10.2020 14:20 12.6 C 80 % 1006.1 hPa 0.0 l/m 0.0 km/h (0 Bft) NW 315 0 min 2.9 km/h (1 Bft)
21.10.2020 14:19 12.6 C 80 % 1006.1 hPa 0.0 l/m 0.0 km/h (0 Bft) NW 315 0 min 2.9 km/h (1 Bft)
21.10.2020 14:18 12.5 C 80 % 1006.1 hPa 0.0 l/m 0.0 km/h (0 Bft) S-SO 158 0 min 0.0 km/h (0 Bft)
21.10.2020 14:17 12.5 C 80 % 1006.1 hPa 0.0 l/m 0.0 km/h (0 Bft) S-SO 158 0 min 0.0 km/h (0 Bft)
21.10.2020 14:16 12.6 C 80 % 1006.1 hPa 0.0 l/m 0.0 km/h (0 Bft) W-NW 293 0 min 0.0 km/h (0 Bft)
21.10.2020 14:15 12.6 C 80 % 1006.1 hPa 0.0 l/m 0.0 km/h (0 Bft) W-NW 293 0 min 0.0 km/h (0 Bft)
21.10.2020 14:14 12.5 C 80 % 1006.1 hPa 0.0 l/m 0.0 km/h (0 Bft) SW 225 0 min 0.0 km/h (0 Bft)
21.10.2020 14:13 12.5 C 80 % 1006.1 hPa 0.0 l/m 0.0 km/h (0 Bft) SW 225 0 min 0.0 km/h (0 Bft)
21.10.2020 14:12 12.5 C 80 % 1005.7 hPa 0.0 l/m 0.4 km/h (0 Bft) O 90 0 min 0.0 km/h (0 Bft)
21.10.2020 14:11 12.5 C 80 % 1005.7 hPa 0.0 l/m 0.4 km/h (0 Bft) O 90 0 min 0.0 km/h (0 Bft)
21.10.2020 14:10 12.5 C 80 % 1005.7 hPa 0.0 l/m 0.4 km/h (0 Bft) O 90 0 min 0.0 km/h (0 Bft)
21.10.2020 14:09 12.5 C 80 % 1005.7 hPa 0.0 l/m 0.4 km/h (0 Bft) O 90 0 min 0.0 km/h (0 Bft)
21.10.2020 14:08 12.5 C 79 % 1005.7 hPa 0.0 l/m 0.7 km/h (0 Bft) SO 135 0 min 2.5 km/h (1 Bft)
21.10.2020 14:07 12.5 C 79 % 1005.7 hPa 0.0 l/m 0.7 km/h (0 Bft) SO 135 0 min 2.5 km/h (1 Bft)
21.10.2020 14:06 12.5 C 80 % 1005.7 hPa 0.0 l/m 1.4 km/h (1 Bft) SO 135 0 min 0.0 km/h (0 Bft)
21.10.2020 14:05 12.5 C 80 % 1005.7 hPa 0.0 l/m 1.4 km/h (1 Bft) SO 135 0 min 0.0 km/h (0 Bft)
21.10.2020 14:04 12.5 C 79 % 1005.7 hPa 0.0 l/m 2.2 km/h (1 Bft) N-NO 23 0 min 0.0 km/h (0 Bft)
21.10.2020 14:03 12.5 C 79 % 1005.7 hPa 0.0 l/m 2.2 km/h (1 Bft) N-NO 23 0 min 0.0 km/h (0 Bft)
21.10.2020 14:02 12.5 C 79 % 1005.7 hPa 0.0 l/m 2.2 km/h (1 Bft) W-SW 248 0 min 0.0 km/h (0 Bft)
21.10.2020 14:01 12.5 C 79 % 1005.7 hPa 0.0 l/m 2.2 km/h (1 Bft) W-SW 248 0 min 0.0 km/h (0 Bft)
21.10.2020 14:00 12.5 C 79 % 1005.7 hPa 0.0 l/m 1.4 km/h (1 Bft) W-SW 248 0 min 4.7 km/h (1 Bft)
21.10.2020 13:59 12.5 C 79 % 1005.7 hPa 0.0 l/m 1.4 km/h (1 Bft) W-SW 248 0 min 4.7 km/h (1 Bft)
21.10.2020 13:58 12.5 C 79 % 1005.7 hPa 0.0 l/m 1.4 km/h (1 Bft) S 180 0 min 2.5 km/h (1 Bft)
21.10.2020 13:57 12.5 C 79 % 1005.7 hPa 0.0 l/m 1.4 km/h (1 Bft) S 180 0 min 2.5 km/h (1 Bft)
21.10.2020 13:56 12.5 C 79 % 1005.7 hPa 0.0 l/m 0.7 km/h (0 Bft) W 270 0 min 3.6 km/h (1 Bft)
21.10.2020 13:55 12.6 C 79 % 1005.7 hPa 0.0 l/m 0.7 km/h (0 Bft) W 270 0 min 3.6 km/h (1 Bft)
21.10.2020 13:54 12.6 C 79 % 1005.7 hPa 0.0 l/m 0.7 km/h (0 Bft) W 270 0 min 3.6 km/h (1 Bft)
21.10.2020 13:53 12.5 C 78 % 1005.7 hPa 0.0 l/m 0.4 km/h (0 Bft) W-NW 293 0 min 0.0 km/h (0 Bft)
21.10.2020 13:52 12.5 C 78 % 1005.7 hPa 0.0 l/m 0.4 km/h (0 Bft) W-NW 293 0 min 0.0 km/h (0 Bft)
21.10.2020 13:51 12.6 C 78 % 1006.7 hPa 0.0 l/m 0.4 km/h (0 Bft) O-SO 113 0 min 0.0 km/h (0 Bft)
21.10.2020 13:50 12.6 C 78 % 1006.7 hPa 0.0 l/m 0.4 km/h (0 Bft) O-SO 113 0 min 0.0 km/h (0 Bft)
21.10.2020 13:49 12.6 C 78 % 1006.7 hPa 0.0 l/m 0.4 km/h (0 Bft) O-SO 113 0 min 0.0 km/h (0 Bft)
21.10.2020 13:48 12.6 C 78 % 1006.7 hPa 0.0 l/m 0.4 km/h (0 Bft) O-SO 113 0 min 0.0 km/h (0 Bft)
21.10.2020 13:47 12.6 C 78 % 1006.7 hPa 0.0 l/m 0.4 km/h (0 Bft) O-NO 68 0 min 2.5 km/h (1 Bft)
21.10.2020 13:46 12.6 C 78 % 1006.7 hPa 0.0 l/m 0.4 km/h (0 Bft) O-NO 68 0 min 2.5 km/h (1 Bft)
21.10.2020 13:45 12.7 C 78 % 1006.7 hPa 0.0 l/m 0.4 km/h (0 Bft) O-SO 113 0 min 0.0 km/h (0 Bft)
21.10.2020 13:44 12.7 C 78 % 1006.7 hPa 0.0 l/m 0.4 km/h (0 Bft) O-SO 113 0 min 0.0 km/h (0 Bft)
21.10.2020 13:43 12.6 C 78 % 1006.7 hPa 0.0 l/m 0.7 km/h (0 Bft) NO 45 0 min 0.0 km/h (0 Bft)
21.10.2020 13:42 12.6 C 78 % 1006.7 hPa 0.0 l/m 1.1 km/h (1 Bft) NO 45 0 min 0.0 km/h (0 Bft)
21.10.2020 13:41 12.6 C 78 % 1006.7 hPa 0.0 l/m 1.4 km/h (1 Bft) S-SW 203 0 min 0.0 km/h (0 Bft)
21.10.2020 13:40 12.6 C 78 % 1006.7 hPa 0.0 l/m 1.4 km/h (1 Bft) O-SO 113 0 min 0.0 km/h (0 Bft)
21.10.2020 13:39 12.6 C 78 % 1006.7 hPa 0.0 l/m 1.4 km/h (1 Bft) O-SO 113 0 min 0.0 km/h (0 Bft)
21.10.2020 13:38 12.6 C 78 % 1006.7 hPa 0.0 l/m 1.4 km/h (1 Bft) O-SO 113 0 min 2.9 km/h (1 Bft)
21.10.2020 13:37 12.6 C 78 % 1006.7 hPa 0.0 l/m 1.4 km/h (1 Bft) O-SO 113 0 min 2.9 km/h (1 Bft)
21.10.2020 13:36 12.6 C 78 % 1006.7 hPa 0.0 l/m 0.7 km/h (0 Bft) O-NO 68 0 min 2.5 km/h (1 Bft)
21.10.2020 13:35 12.6 C 78 % 1006.7 hPa 0.0 l/m 0.7 km/h (0 Bft) O-NO 68 0 min 2.5 km/h (1 Bft)
21.10.2020 13:34 12.6 C 78 % 1006.7 hPa 0.0 l/m 0.7 km/h (0 Bft) N 0 0 min 0.0 km/h (0 Bft)
21.10.2020 13:33 12.6 C 78 % 1006.7 hPa 0.0 l/m 0.7 km/h (0 Bft) N 0 0 min 0.0 km/h (0 Bft)
21.10.2020 13:32 12.6 C 78 % 1006.3 hPa 0.0 l/m 0.7 km/h (0 Bft) NO 45 0 min 2.5 km/h (1 Bft)
21.10.2020 13:31 12.6 C 78 % 1006.3 hPa 0.0 l/m 0.7 km/h (0 Bft) NO 45 0 min 2.5 km/h (1 Bft)
21.10.2020 13:30 12.7 C 78 % 1006.3 hPa 0.0 l/m 0.7 km/h (0 Bft) NO 45 0 min 2.5 km/h (1 Bft)
21.10.2020 13:29 12.7 C 78 % 1006.3 hPa 0.0 l/m 0.7 km/h (0 Bft) NO 45 0 min 2.5 km/h (1 Bft)
21.10.2020 13:28 12.7 C 79 % 1006.3 hPa 0.0 l/m 1.4 km/h (1 Bft) O-NO 68 1 min 2.5 km/h (1 Bft)
21.10.2020 13:27 12.7 C 79 % 1006.3 hPa 0.0 l/m 1.4 km/h (1 Bft) O-NO 68 1 min 2.5 km/h (1 Bft)
21.10.2020 13:26 12.6 C 79 % 1006.3 hPa 0.0 l/m 1.4 km/h (1 Bft) NW 315 1 min 0.0 km/h (0 Bft)
21.10.2020 13:25 12.6 C 79 % 1006.3 hPa 0.0 l/m 1.4 km/h (1 Bft) NW 315 1 min 0.0 km/h (0 Bft)
21.10.2020 13:24 12.6 C 79 % 1006.3 hPa 0.0 l/m 1.4 km/h (1 Bft) NO 45 1 min 0.0 km/h (0 Bft)
21.10.2020 13:23 12.6 C 79 % 1006.3 hPa 0.0 l/m 1.4 km/h (1 Bft) NO 45 1 min 0.0 km/h (0 Bft)
21.10.2020 13:22 12.6 C 79 % 1006.3 hPa 0.0 l/m 1.4 km/h (1 Bft) N-NW 338 1 min 4.0 km/h (1 Bft)
21.10.2020 13:21 12.6 C 79 % 1006.3 hPa 0.0 l/m 1.4 km/h (1 Bft) N-NW 338 1 min 4.0 km/h (1 Bft)
21.10.2020 13:20 12.7 C 80 % 1006.3 hPa 0.0 l/m 0.7 km/h (0 Bft) W 270 1 min 4.7 km/h (1 Bft)
21.10.2020 13:19 12.7 C 80 % 1006.3 hPa 0.0 l/m 0.7 km/h (0 Bft) W 270 1 min 4.7 km/h (1 Bft)
21.10.2020 13:18 12.7 C 80 % 1006.3 hPa 0.0 l/m 0.4 km/h (0 Bft) O-NO 68 1 min 2.9 km/h (1 Bft)
21.10.2020 13:17 12.6 C 80 % 1006.3 hPa 0.0 l/m 0.4 km/h (0 Bft) O-NO 68 1 min 2.9 km/h (1 Bft)
21.10.2020 13:16 12.6 C 80 % 1006.3 hPa 0.0 l/m 0.4 km/h (0 Bft) NO 45 1 min 2.9 km/h (1 Bft)
21.10.2020 13:15 12.5 C 81 % 1006.3 hPa 0.0 l/m 0.4 km/h (0 Bft) NO 45 1 min 2.9 km/h (1 Bft)
21.10.2020 13:14 12.5 C 81 % 1006.3 hPa 0.0 l/m 0.4 km/h (0 Bft) NO 45 1 min 2.9 km/h (1 Bft)
21.10.2020 13:13 12.5 C 81 % 1006.3 hPa 0.0 l/m 0.4 km/h (0 Bft) NO 45 1 min 0.0 km/h (0 Bft)
21.10.2020 13:12 12.5 C 81 % 1006.3 hPa 0.0 l/m 0.4 km/h (0 Bft) NO 45 1 min 0.0 km/h (0 Bft)
21.10.2020 13:11 12.5 C 81 % 1006.2 hPa 0.0 l/m 0.4 km/h (0 Bft) N 0 1 min 0.0 km/h (0 Bft)
21.10.2020 13:10 12.5 C 81 % 1006.2 hPa 0.0 l/m 0.4 km/h (0 Bft) N 0 1 min 0.0 km/h (0 Bft)
21.10.2020 13:09 12.5 C 81 % 1006.2 hPa 0.0 l/m 0.4 km/h (0 Bft) N 0 0 min 0.0 km/h (0 Bft)
21.10.2020 13:08 12.5 C 81 % 1006.2 hPa 0.0 l/m 0.4 km/h (0 Bft) N 0 0 min 0.0 km/h (0 Bft)
21.10.2020 13:07 12.5 C 80 % 1006.2 hPa 0.0 l/m 0.4 km/h (0 Bft) W-SW 248 0 min 0.0 km/h (0 Bft)
21.10.2020 13:06 12.5 C 80 % 1006.2 hPa 0.0 l/m 0.4 km/h (0 Bft) W-SW 248 0 min 0.0 km/h (0 Bft)
21.10.2020 13:05 12.3 C 79 % 1006.2 hPa 0.0 l/m 0.4 km/h (0 Bft) W 270 0 min 0.0 km/h (0 Bft)
21.10.2020 13:04 12.3 C 79 % 1006.2 hPa 0.0 l/m 0.4 km/h (0 Bft) W 270 0 min 0.0 km/h (0 Bft)
21.10.2020 13:03 12.3 C 79 % 1006.2 hPa 0.0 l/m 0.4 km/h (0 Bft) W-NW 293 0 min 0.0 km/h (0 Bft)
21.10.2020 13:02 12.3 C 79 % 1006.2 hPa 0.0 l/m 0.5 km/h (0 Bft) W-NW 293 0 min 2.5 km/h (1 Bft)
21.10.2020 13:01 12.3 C 79 % 1006.2 hPa 0.0 l/m 0.7 km/h (0 Bft) O-NO 68 0 min 2.5 km/h (1 Bft)
21.10.2020 13:00 12.5 C 78 % 1006.2 hPa 0.0 l/m 0.7 km/h (0 Bft) W-SW 248 0 min 2.9 km/h (1 Bft)
21.10.2020 12:59 12.5 C 78 % 1006.2 hPa 0.0 l/m 0.7 km/h (0 Bft) W-SW 248 0 min 2.9 km/h (1 Bft)
21.10.2020 12:58 12.5 C 78 % 1006.2 hPa 0.0 l/m 0.7 km/h (0 Bft) W-SW 248 0 min 0.0 km/h (0 Bft)
21.10.2020 12:57 12.5 C 78 % 1006.2 hPa 0.0 l/m 0.7 km/h (0 Bft) W-SW 248 0 min 0.0 km/h (0 Bft)
21.10.2020 12:56 12.5 C 78 % 1006.2 hPa 0.0 l/m 1.4 km/h (1 Bft) W-NW 293 0 min 0.0 km/h (0 Bft)
21.10.2020 12:55 12.5 C 78 % 1006.2 hPa 0.0 l/m 1.4 km/h (1 Bft) W-NW 293 0 min 0.0 km/h (0 Bft)
21.10.2020 12:54 12.5 C 78 % 1006.2 hPa 0.0 l/m 1.4 km/h (1 Bft) NO 45 0 min 2.5 km/h (1 Bft)
21.10.2020 12:53 12.5 C 78 % 1006.2 hPa 0.0 l/m 1.4 km/h (1 Bft) NO 45 0 min 2.5 km/h (1 Bft)
21.10.2020 12:52 12.5 C 78 % 1006.3 hPa 0.0 l/m 0.7 km/h (0 Bft) SO 135 0 min 0.0 km/h (0 Bft)
21.10.2020 12:51 12.5 C 78 % 1006.3 hPa 0.0 l/m 0.7 km/h (0 Bft) SO 135 0 min 0.0 km/h (0 Bft)
21.10.2020 12:50 12.4 C 79 % 1006.3 hPa 0.0 l/m 0.7 km/h (0 Bft) SO 135 0 min 0.0 km/h (0 Bft)
21.10.2020 12:49 12.4 C 79 % 1006.3 hPa 0.0 l/m 0.7 km/h (0 Bft) SO 135 0 min 0.0 km/h (0 Bft)
21.10.2020 12:48 12.4 C 79 % 1006.3 hPa 0.0 l/m 0.7 km/h (0 Bft) N-NW 338 0 min 4.0 km/h (1 Bft)
21.10.2020 12:47 12.4 C 79 % 1006.3 hPa 0.0 l/m 0.7 km/h (0 Bft) N-NW 338 0 min 4.0 km/h (1 Bft)
21.10.2020 12:46 12.4 C 80 % 1006.3 hPa 0.0 l/m 0.4 km/h (0 Bft) N-NO 23 0 min 6.8 km/h (2 Bft)
21.10.2020 12:45 12.4 C 80 % 1006.3 hPa 0.0 l/m 0.4 km/h (0 Bft) N-NO 23 0 min 6.8 km/h (2 Bft)
21.10.2020 12:44 12.5 C 80 % 1006.3 hPa 0.0 l/m 0.0 km/h (0 Bft) NO 45 0 min 0.0 km/h (0 Bft)
21.10.2020 12:43 12.5 C 80 % 1006.3 hPa 0.0 l/m 0.0 km/h (0 Bft) NO 45 0 min 0.0 km/h (0 Bft)
21.10.2020 12:42 12.5 C 80 % 1006.3 hPa 0.0 l/m 0.4 km/h (0 Bft) W-SW 248 0 min 0.0 km/h (0 Bft)
21.10.2020 12:41 12.5 C 80 % 1006.3 hPa 0.0 l/m 0.4 km/h (0 Bft) W-SW 248 0 min 0.0 km/h (0 Bft)
21.10.2020 12:40 12.5 C 80 % 1006.3 hPa 0.0 l/m 0.4 km/h (0 Bft) SO 135 0 min 0.0 km/h (0 Bft)
21.10.2020 12:39 12.5 C 80 % 1006.3 hPa 0.0 l/m 0.4 km/h (0 Bft) SO 135 0 min 0.0 km/h (0 Bft)
21.10.2020 12:38 12.5 C 80 % 1006.3 hPa 0.0 l/m 0.4 km/h (0 Bft) SO 135 0 min 0.0 km/h (0 Bft)
21.10.2020 12:37 12.5 C 80 % 1006.3 hPa 0.0 l/m 0.4 km/h (0 Bft) SO 135 0 min 0.0 km/h (0 Bft)
21.10.2020 12:36 12.5 C 80 % 1006.3 hPa 0.0 l/m 0.4 km/h (0 Bft) N-NO 23 0 min 0.0 km/h (0 Bft)
21.10.2020 12:35 12.5 C 80 % 1006.3 hPa 0.0 l/m 0.4 km/h (0 Bft) N-NO 23 0 min 0.0 km/h (0 Bft)
21.10.2020 12:34 12.5 C 80 % 1006.3 hPa 0.0 l/m 0.4 km/h (0 Bft) N-NO 23 0 min 0.0 km/h (0 Bft)
21.10.2020 12:33 12.6 C 79 % 1006.3 hPa 0.0 l/m 0.4 km/h (0 Bft) NO 45 0 min 0.0 km/h (0 Bft)
21.10.2020 12:32 12.6 C 79 % 1006.3 hPa 0.0 l/m 0.4 km/h (0 Bft) NO 45 0 min 0.0 km/h (0 Bft)
21.10.2020 12:31 12.7 C 79 % 1006.3 hPa 0.0 l/m 1.4 km/h (1 Bft) N-NW 338 0 min 0.0 km/h (0 Bft)
21.10.2020 12:30 12.7 C 79 % 1006.3 hPa 0.0 l/m 1.4 km/h (1 Bft) N-NW 338 0 min 0.0 km/h (0 Bft)
21.10.2020 12:29 12.6 C 80 % 1006.3 hPa 0.0 l/m 1.4 km/h (1 Bft) N-NW 338 0 min 0.0 km/h (0 Bft)
21.10.2020 12:28 12.6 C 80 % 1006.3 hPa 0.0 l/m 1.4 km/h (1 Bft) N-NW 338 0 min 0.0 km/h (0 Bft)
21.10.2020 12:27 12.6 C 79 % 1006.3 hPa 0.0 l/m 2.2 km/h (1 Bft) NO 45 0 min 0.0 km/h (0 Bft)
21.10.2020 12:26 12.6 C 79 % 1006.3 hPa 0.0 l/m 2.2 km/h (1 Bft) NO 45 0 min 0.0 km/h (0 Bft)
21.10.2020 12:25 12.6 C 79 % 1006.3 hPa 0.0 l/m 2.2 km/h (1 Bft) SO 135 0 min 0.0 km/h (0 Bft)
21.10.2020 12:24 12.6 C 79 % 1006.3 hPa 0.0 l/m 2.2 km/h (1 Bft) SO 135 0 min 0.0 km/h (0 Bft)
21.10.2020 12:23 12.6 C 79 % 1006.3 hPa 0.0 l/m 2.2 km/h (1 Bft) N 0 0 min 2.5 km/h (1 Bft)
21.10.2020 12:22 12.6 C 79 % 1006.3 hPa 0.0 l/m 2.2 km/h (1 Bft) N 0 0 min 2.5 km/h (1 Bft)
21.10.2020 12:21 12.6 C 79 % 1006.3 hPa 0.0 l/m 2.2 km/h (1 Bft) O 90 0 min 0.0 km/h (0 Bft)
21.10.2020 12:20 12.7 C 79 % 1006.3 hPa 0.0 l/m 2.2 km/h (1 Bft) NO 45 0 min 10.1 km/h (2 Bft)
21.10.2020 12:19 12.7 C 79 % 1006.3 hPa 0.0 l/m 2.2 km/h (1 Bft) NO 45 0 min 10.1 km/h (2 Bft)
21.10.2020 12:18 12.7 C 80 % 1006.3 hPa 0.0 l/m 1.4 km/h (1 Bft) NO 45 1 min 4.3 km/h (1 Bft)
21.10.2020 12:17 12.7 C 80 % 1006.3 hPa 0.0 l/m 1.4 km/h (1 Bft) NO 45 1 min 4.3 km/h (1 Bft)
21.10.2020 12:16 12.7 C 81 % 1006.3 hPa 0.0 l/m 1.4 km/h (1 Bft) O-NO 68 1 min 0.0 km/h (0 Bft)
21.10.2020 12:15 12.7 C 81 % 1006.3 hPa 0.0 l/m 1.4 km/h (1 Bft) O-NO 68 1 min 0.0 km/h (0 Bft)
21.10.2020 12:14 12.7 C 81 % 1006.3 hPa 0.0 l/m 1.4 km/h (1 Bft) O-NO 68 1 min 0.0 km/h (0 Bft)
21.10.2020 12:13 12.7 C 81 % 1006.3 hPa 0.0 l/m 1.4 km/h (1 Bft) O-NO 68 1 min 0.0 km/h (0 Bft)
21.10.2020 12:12 12.6 C 81 % 1006.7 hPa 0.0 l/m 0.7 km/h (0 Bft) NW 315 1 min 0.0 km/h (0 Bft)
21.10.2020 12:11 12.6 C 81 % 1006.7 hPa 0.0 l/m 0.7 km/h (0 Bft) NW 315 1 min 0.0 km/h (0 Bft)
21.10.2020 12:10 12.6 C 82 % 1006.7 hPa 0.0 l/m 0.7 km/h (0 Bft) NW 315 1 min 0.0 km/h (0 Bft)
21.10.2020 12:09 12.6 C 82 % 1006.7 hPa 0.0 l/m 0.7 km/h (0 Bft) NW 315 1 min 0.0 km/h (0 Bft)
21.10.2020 12:08 12.5 C 81 % 1006.7 hPa 0.0 l/m 0.7 km/h (0 Bft) W 270 1 min 3.6 km/h (1 Bft)
21.10.2020 12:07 12.5 C 81 % 1006.7 hPa 0.0 l/m 0.7 km/h (0 Bft) W 270 1 min 3.6 km/h (1 Bft)
21.10.2020 12:06 12.5 C 82 % 1006.7 hPa 0.0 l/m 0.7 km/h (0 Bft) W-SW 248 1 min 0.0 km/h (0 Bft)
21.10.2020 12:05 12.5 C 82 % 1006.7 hPa 0.0 l/m 0.7 km/h (0 Bft) W-SW 248 1 min 0.0 km/h (0 Bft)
21.10.2020 12:04 12.2 C 81 % 1006.7 hPa 0.0 l/m 1.4 km/h (1 Bft) SO 135 1 min 0.0 km/h (0 Bft)
21.10.2020 12:03 12.2 C 81 % 1006.7 hPa 0.0 l/m 1.4 km/h (1 Bft) SO 135 1 min 0.0 km/h (0 Bft)
21.10.2020 12:02 12.2 C 81 % 1006.7 hPa 0.0 l/m 1.4 km/h (1 Bft) SO 135 1 min 0.0 km/h (0 Bft)
21.10.2020 12:01 12.2 C 81 % 1006.7 hPa 0.0 l/m 1.4 km/h (1 Bft) SO 135 1 min 0.0 km/h (0 Bft)
21.10.2020 12:00 12.3 C 81 % 1006.7 hPa 0.0 l/m 1.4 km/h (1 Bft) SW 225 1 min 0.0 km/h (0 Bft)
21.10.2020 11:59 12.3 C 81 % 1006.7 hPa 0.0 l/m 1.4 km/h (1 Bft) SW 225 1 min 0.0 km/h (0 Bft)
21.10.2020 11:58 12.3 C 81 % 1006.7 hPa 0.0 l/m 1.4 km/h (1 Bft) S 180 1 min 0.0 km/h (0 Bft)
21.10.2020 11:57 12.1 C 81 % 1006.7 hPa 0.0 l/m 1.4 km/h (1 Bft) S 180 1 min 0.0 km/h (0 Bft)
21.10.2020 11:56 12.1 C 81 % 1006.7 hPa 0.0 l/m 1.4 km/h (1 Bft) O-NO 68 1 min 4.3 km/h (1 Bft)
21.10.2020 11:55 12.1 C 81 % 1006.7 hPa 0.0 l/m 1.4 km/h (1 Bft) O-NO 68 1 min 4.3 km/h (1 Bft)
21.10.2020 11:54 12.1 C 81 % 1006.7 hPa 0.0 l/m 1.4 km/h (1 Bft) O-NO 68 1 min 4.3 km/h (1 Bft)
21.10.2020 11:53 12.1 C 81 % 1006.7 hPa 0.0 l/m 0.4 km/h (0 Bft) O 90 1 min 5.0 km/h (1 Bft)
21.10.2020 11:52 12.1 C 81 % 1006.7 hPa 0.0 l/m 0.4 km/h (0 Bft) O 90 1 min 5.0 km/h (1 Bft)
21.10.2020 11:51 12.0 C 81 % 1006.3 hPa 0.0 l/m 0.7 km/h (0 Bft) O-NO 68 1 min 4.0 km/h (1 Bft)
21.10.2020 11:50 12.0 C 81 % 1006.3 hPa 0.0 l/m 0.7 km/h (0 Bft) O-NO 68 1 min 4.0 km/h (1 Bft)
21.10.2020 11:49 11.9 C 82 % 1006.3 hPa 0.0 l/m 0.7 km/h (0 Bft) O-NO 68 1 min 4.0 km/h (1 Bft)
21.10.2020 11:48 11.9 C 82 % 1006.3 hPa 0.0 l/m 0.7 km/h (0 Bft) O-NO 68 1 min 4.0 km/h (1 Bft)
21.10.2020 11:47 11.9 C 82 % 1006.3 hPa 0.0 l/m 0.4 km/h (0 Bft) O 90 1 min 0.0 km/h (0 Bft)
21.10.2020 11:46 11.9 C 82 % 1006.3 hPa 0.0 l/m 0.4 km/h (0 Bft) O 90 1 min 0.0 km/h (0 Bft)
21.10.2020 11:45 11.8 C 82 % 1006.3 hPa 0.0 l/m 0.4 km/h (0 Bft) O-SO 113 1 min 0.0 km/h (0 Bft)
21.10.2020 11:44 11.8 C 82 % 1006.3 hPa 0.0 l/m 0.4 km/h (0 Bft) O-SO 113 1 min 0.0 km/h (0 Bft)
21.10.2020 11:43 11.8 C 83 % 1006.3 hPa 0.0 l/m 0.4 km/h (0 Bft) N 0 1 min 2.5 km/h (1 Bft)
21.10.2020 11:42 11.8 C 83 % 1006.3 hPa 0.0 l/m 0.4 km/h (0 Bft) N 0 1 min 4.0 km/h (1 Bft)
21.10.2020 11:41 11.7 C 83 % 1006.3 hPa 0.0 l/m 0.4 km/h (0 Bft) O 90 1 min 4.0 km/h (1 Bft)
21.10.2020 11:40 11.6 C 83 % 1006.3 hPa 0.0 l/m 0.4 km/h (0 Bft) O-NO 68 1 min 2.9 km/h (1 Bft)
21.10.2020 11:39 11.6 C 83 % 1006.3 hPa 0.0 l/m 0.4 km/h (0 Bft) O-NO 68 1 min 2.9 km/h (1 Bft)
21.10.2020 11:38 11.7 C 83 % 1006.3 hPa 0.0 l/m 0.0 km/h (0 Bft) S 180 1 min 0.0 km/h (0 Bft)
21.10.2020 11:37 11.7 C 83 % 1006.3 hPa 0.0 l/m 0.0 km/h (0 Bft) S 180 1 min 0.0 km/h (0 Bft)
21.10.2020 11:36 11.6 C 83 % 1006.3 hPa 0.0 l/m 0.4 km/h (0 Bft) O 90 1 min 0.0 km/h (0 Bft)
21.10.2020 11:35 11.6 C 83 % 1006.3 hPa 0.0 l/m 0.4 km/h (0 Bft) O 90 1 min 0.0 km/h (0 Bft)
21.10.2020 11:34 11.5 C 84 % 1006.3 hPa 0.0 l/m 1.4 km/h (1 Bft) S-SO 158 1 min 0.0 km/h (0 Bft)
21.10.2020 11:33 11.5 C 84 % 1006.3 hPa 0.0 l/m 1.4 km/h (1 Bft) S-SO 158 1 min 0.0 km/h (0 Bft)
21.10.2020 11:32 11.5 C 84 % 1006.0 hPa 0.0 l/m 1.8 km/h (1 Bft) SO 135 0 min 0.0 km/h (0 Bft)
21.10.2020 11:31 11.5 C 84 % 1006.0 hPa 0.0 l/m 1.8 km/h (1 Bft) SO 135 0 min 0.0 km/h (0 Bft)
21.10.2020 11:30 11.5 C 84 % 1006.0 hPa 0.0 l/m 1.8 km/h (1 Bft) SO 135 0 min 0.0 km/h (0 Bft)
21.10.2020 11:29 11.5 C 84 % 1006.0 hPa 0.0 l/m 1.8 km/h (1 Bft) SO 135 0 min 0.0 km/h (0 Bft)
21.10.2020 11:28 11.4 C 84 % 1006.0 hPa 0.0 l/m 1.8 km/h (1 Bft) W-NW 293 0 min 0.0 km/h (0 Bft)
21.10.2020 11:27 11.4 C 84 % 1006.0 hPa 0.0 l/m 1.8 km/h (1 Bft) W-NW 293 0 min 0.0 km/h (0 Bft)
21.10.2020 11:26 11.4 C 83 % 1006.0 hPa 0.0 l/m 1.4 km/h (1 Bft) NO 45 0 min 3.6 km/h (1 Bft)
21.10.2020 11:25 11.4 C 83 % 1006.0 hPa 0.0 l/m 1.4 km/h (1 Bft) NO 45 0 min 3.6 km/h (1 Bft)
21.10.2020 11:24 11.4 C 84 % 1006.0 hPa 0.0 l/m 0.7 km/h (0 Bft) O 90 0 min 6.1 km/h (2 Bft)
21.10.2020 11:23 11.4 C 84 % 1006.0 hPa 0.0 l/m 0.7 km/h (0 Bft) O 90 0 min 6.1 km/h (2 Bft)
21.10.2020 11:22 11.4 C 84 % 1006.0 hPa 0.0 l/m 0.4 km/h (0 Bft) O-SO 113 0 min 3.6 km/h (1 Bft)
21.10.2020 11:21 11.4 C 84 % 1006.0 hPa 0.0 l/m 0.4 km/h (0 Bft) O-SO 113 0 min 3.6 km/h (1 Bft)
21.10.2020 11:20 11.5 C 84 % 1006.0 hPa 0.0 l/m 0.0 km/h (0 Bft) O 90 0 min 0.0 km/h (0 Bft)
21.10.2020 11:19 11.5 C 84 % 1006.0 hPa 0.0 l/m 0.0 km/h (0 Bft) O 90 0 min 0.0 km/h (0 Bft)
21.10.2020 11:18 11.5 C 84 % 1006.0 hPa 0.0 l/m 0.0 km/h (0 Bft) NO 45 0 min 0.0 km/h (0 Bft)
21.10.2020 11:17 11.5 C 84 % 1006.0 hPa 0.0 l/m 0.0 km/h (0 Bft) NO 45 0 min 0.0 km/h (0 Bft)
21.10.2020 11:16 11.5 C 84 % 1006.0 hPa 0.0 l/m 0.0 km/h (0 Bft) SO 135 0 min 0.0 km/h (0 Bft)
21.10.2020 11:15 11.4 C 84 % 1006.0 hPa 0.0 l/m 0.0 km/h (0 Bft) SO 135 0 min 0.0 km/h (0 Bft)
21.10.2020 11:14 11.4 C 84 % 1006.0 hPa 0.0 l/m 0.0 km/h (0 Bft) SO 135 0 min 0.0 km/h (0 Bft)
21.10.2020 11:13 11.4 C 84 % 1006.0 hPa 0.0 l/m 0.0 km/h (0 Bft) SO 135 0 min 0.0 km/h (0 Bft)
21.10.2020 11:12 11.4 C 84 % 1006.0 hPa 0.0 l/m 0.0 km/h (0 Bft) SO 135 0 min 0.0 km/h (0 Bft)
21.10.2020 11:11 11.3 C 84 % 1006.3 hPa 0.0 l/m 0.4 km/h (0 Bft) O-NO 68 0 min 0.0 km/h (0 Bft)
21.10.2020 11:10 11.3 C 84 % 1006.3 hPa 0.0 l/m 0.4 km/h (0 Bft) O-NO 68 0 min 0.0 km/h (0 Bft)
21.10.2020 11:09 11.2 C 84 % 1006.3 hPa 0.0 l/m 0.4 km/h (0 Bft) O-NO 68 0 min 0.0 km/h (0 Bft)
21.10.2020 11:08 11.2 C 84 % 1006.3 hPa 0.0 l/m 0.4 km/h (0 Bft) O-NO 68 0 min 0.0 km/h (0 Bft)
21.10.2020 11:07 11.2 C 84 % 1006.3 hPa 0.0 l/m 0.4 km/h (0 Bft) N 0 0 min 0.0 km/h (0 Bft)
21.10.2020 11:06 11.2 C 84 % 1006.3 hPa 0.0 l/m 0.4 km/h (0 Bft) N 0 0 min 0.0 km/h (0 Bft)
21.10.2020 11:05 11.2 C 84 % 1006.3 hPa 0.0 l/m 0.4 km/h (0 Bft) NW 315 0 min 0.0 km/h (0 Bft)
21.10.2020 11:04 11.2 C 84 % 1006.3 hPa 0.0 l/m 0.4 km/h (0 Bft) NW 315 0 min 0.0 km/h (0 Bft)
21.10.2020 11:03 11.3 C 84 % 1006.3 hPa 0.0 l/m 0.4 km/h (0 Bft) W-SW 248 0 min 0.0 km/h (0 Bft)
21.10.2020 11:02 11.2 C 84 % 1006.3 hPa 0.0 l/m 0.4 km/h (0 Bft) W-SW 248 0 min 2.5 km/h (1 Bft)
21.10.2020 11:01 11.2 C 84 % 1006.3 hPa 0.0 l/m 0.4 km/h (0 Bft) W-SW 248 0 min 2.5 km/h (1 Bft)
21.10.2020 11:00 11.1 C 84 % 1006.3 hPa 0.0 l/m 0.4 km/h (0 Bft) O-NO 68 1 min 2.5 km/h (1 Bft)
21.10.2020 10:59 11.1 C 84 % 1006.3 hPa 0.0 l/m 0.4 km/h (0 Bft) O-NO 68 1 min 2.5 km/h (1 Bft)
21.10.2020 10:58 11.0 C 84 % 1006.3 hPa 0.0 l/m 0.0 km/h (0 Bft) W-SW 248 1 min 0.0 km/h (0 Bft)
21.10.2020 10:57 11.0 C 84 % 1006.3 hPa 0.0 l/m 0.0 km/h (0 Bft) W-SW 248 1 min 0.0 km/h (0 Bft)
21.10.2020 10:56 11.0 C 84 % 1006.3 hPa 0.0 l/m 0.0 km/h (0 Bft) SO 135 1 min 0.0 km/h (0 Bft)
21.10.2020 10:55 11.0 C 84 % 1006.3 hPa 0.0 l/m 0.0 km/h (0 Bft) SO 135 1 min 0.0 km/h (0 Bft)
21.10.2020 10:54 11.0 C 84 % 1006.3 hPa 0.0 l/m 0.0 km/h (0 Bft) O-NO 68 1 min 0.0 km/h (0 Bft)
21.10.2020 10:53 11.0 C 84 % 1006.3 hPa 0.0 l/m 0.0 km/h (0 Bft) O-NO 68 1 min 0.0 km/h (0 Bft)
21.10.2020 10:52 11.0 C 85 % 1006.5 hPa 0.0 l/m 0.4 km/h (0 Bft) N-NW 338 1 min 0.0 km/h (0 Bft)
21.10.2020 10:51 11.0 C 85 % 1006.5 hPa 0.0 l/m 0.4 km/h (0 Bft) N-NW 338 1 min 0.0 km/h (0 Bft)
21.10.2020 10:50 11.1 C 85 % 1006.5 hPa 0.0 l/m 0.4 km/h (0 Bft) N-NW 338 1 min 0.0 km/h (0 Bft)
21.10.2020 10:49 11.1 C 85 % 1006.5 hPa 0.0 l/m 0.4 km/h (0 Bft) N-NW 338 1 min 0.0 km/h (0 Bft)
21.10.2020 10:48 10.9 C 85 % 1006.5 hPa 0.0 l/m 0.4 km/h (0 Bft) O-NO 68 1 min 0.0 km/h (0 Bft)
21.10.2020 10:47 10.9 C 85 % 1006.5 hPa 0.0 l/m 0.4 km/h (0 Bft) O-NO 68 1 min 0.0 km/h (0 Bft)
21.10.2020 10:46 10.9 C 85 % 1006.5 hPa 0.0 l/m 0.4 km/h (0 Bft) S 180 1 min 0.0 km/h (0 Bft)
21.10.2020 10:45 10.9 C 85 % 1006.5 hPa 0.0 l/m 0.4 km/h (0 Bft) S 180 1 min 0.0 km/h (0 Bft)
21.10.2020 10:44 10.8 C 85 % 1006.5 hPa 0.0 l/m 0.4 km/h (0 Bft) N-NO 23 1 min 0.0 km/h (0 Bft)
21.10.2020 10:43 10.8 C 85 % 1006.5 hPa 0.0 l/m 0.4 km/h (0 Bft) N-NO 23 1 min 0.0 km/h (0 Bft)
21.10.2020 10:42 10.8 C 85 % 1006.5 hPa 0.0 l/m 0.4 km/h (0 Bft) NO 45 1 min 2.5 km/h (1 Bft)
21.10.2020 10:41 10.8 C 85 % 1006.5 hPa 0.0 l/m 0.4 km/h (0 Bft) NO 45 1 min 2.5 km/h (1 Bft)
21.10.2020 10:40 10.9 C 85 % 1006.5 hPa 0.0 l/m 0.0 km/h (0 Bft) O-SO 113 1 min 0.0 km/h (0 Bft)
21.10.2020 10:39 10.9 C 85 % 1006.5 hPa 0.0 l/m 0.0 km/h (0 Bft) O-SO 113 1 min 0.0 km/h (0 Bft)
21.10.2020 10:38 10.9 C 85 % 1006.5 hPa 0.0 l/m 0.4 km/h (0 Bft) W-SW 248 1 min 0.0 km/h (0 Bft)
21.10.2020 10:37 10.8 C 85 % 1006.5 hPa 0.0 l/m 0.4 km/h (0 Bft) W-SW 248 1 min 0.0 km/h (0 Bft)
21.10.2020 10:36 10.8 C 85 % 1006.5 hPa 0.0 l/m 0.4 km/h (0 Bft) W 270 1 min 0.0 km/h (0 Bft)
21.10.2020 10:35 10.7 C 85 % 1006.5 hPa 0.0 l/m 0.4 km/h (0 Bft) W 270 1 min 0.0 km/h (0 Bft)
21.10.2020 10:34 10.7 C 85 % 1006.5 hPa 0.0 l/m 0.4 km/h (0 Bft) W 270 1 min 0.0 km/h (0 Bft)
21.10.2020 10:33 10.6 C 85 % 1006.5 hPa 0.0 l/m 0.4 km/h (0 Bft) SO 135 1 min 0.0 km/h (0 Bft)
21.10.2020 10:32 10.6 C 85 % 1006.5 hPa 0.0 l/m 0.4 km/h (0 Bft) SO 135 1 min 0.0 km/h (0 Bft)
21.10.2020 10:31 10.6 C 85 % 1006.3 hPa 0.0 l/m 0.4 km/h (0 Bft) O-SO 113 1 min 0.0 km/h (0 Bft)
21.10.2020 10:30 10.6 C 85 % 1006.3 hPa 0.0 l/m 0.4 km/h (0 Bft) O-SO 113 1 min 0.0 km/h (0 Bft)
21.10.2020 10:29 10.6 C 85 % 1006.3 hPa 0.0 l/m 0.4 km/h (0 Bft) O-SO 113 0 min 0.0 km/h (0 Bft)
21.10.2020 10:28 10.6 C 85 % 1006.3 hPa 0.0 l/m 0.4 km/h (0 Bft) O-SO 113 0 min 0.0 km/h (0 Bft)
21.10.2020 10:27 10.5 C 85 % 1006.3 hPa 0.0 l/m 0.4 km/h (0 Bft) O 90 1 min 4.0 km/h (1 Bft)
21.10.2020 10:26 10.5 C 85 % 1006.3 hPa 0.0 l/m 0.4 km/h (0 Bft) O 90 1 min 4.0 km/h (1 Bft)
21.10.2020 10:25 10.5 C 86 % 1006.3 hPa 0.0 l/m 0.0 km/h (0 Bft) O-NO 68 1 min 0.0 km/h (0 Bft)
21.10.2020 10:24 10.5 C 86 % 1006.3 hPa 0.0 l/m 0.0 km/h (0 Bft) O-NO 68 1 min 0.0 km/h (0 Bft)
21.10.2020 10:23 10.4 C 86 % 1006.3 hPa 0.0 l/m 0.0 km/h (0 Bft) N 0 1 min 0.0 km/h (0 Bft)
21.10.2020 10:22 10.4 C 86 % 1006.3 hPa 0.0 l/m 0.0 km/h (0 Bft) N 0 1 min 0.0 km/h (0 Bft)
21.10.2020 10:21 10.5 C 86 % 1006.3 hPa 0.0 l/m 0.0 km/h (0 Bft) NO 45 0 min 0.0 km/h (0 Bft)
21.10.2020 10:20 10.5 C 86 % 1006.3 hPa 0.0 l/m 0.0 km/h (0 Bft) NW 315 0 min 0.0 km/h (0 Bft)
21.10.2020 10:19 10.5 C 86 % 1006.3 hPa 0.0 l/m 0.0 km/h (0 Bft) NW 315 0 min 0.0 km/h (0 Bft)
21.10.2020 10:18 10.4 C 86 % 1006.3 hPa 0.0 l/m 0.0 km/h (0 Bft) N 0 0 min 0.0 km/h (0 Bft)
21.10.2020 10:17 10.4 C 86 % 1006.3 hPa 0.0 l/m 0.0 km/h (0 Bft) N 0 0 min 0.0 km/h (0 Bft)
21.10.2020 10:16 10.3 C 86 % 1006.3 hPa 0.0 l/m 0.0 km/h (0 Bft) NW 315 0 min 0.0 km/h (0 Bft)
21.10.2020 10:15 10.3 C 86 % 1006.3 hPa 0.0 l/m 0.0 km/h (0 Bft) NW 315 0 min 0.0 km/h (0 Bft)
21.10.2020 10:14 10.2 C 86 % 1006.3 hPa 0.0 l/m 0.4 km/h (0 Bft) W-NW 293 0 min 0.0 km/h (0 Bft)
21.10.2020 10:13 10.2 C 86 % 1006.3 hPa 0.0 l/m 0.4 km/h (0 Bft) W-NW 293 0 min 0.0 km/h (0 Bft)
21.10.2020 10:12 10.3 C 86 % 1006.2 hPa 0.0 l/m 0.7 km/h (0 Bft) SO 135 0 min 0.0 km/h (0 Bft)
21.10.2020 10:11 10.3 C 86 % 1006.2 hPa 0.0 l/m 0.7 km/h (0 Bft) SO 135 0 min 0.0 km/h (0 Bft)
21.10.2020 10:10 10.2 C 86 % 1006.2 hPa 0.0 l/m 0.7 km/h (0 Bft) SO 135 0 min 0.0 km/h (0 Bft)
21.10.2020 10:09 10.2 C 86 % 1006.2 hPa 0.0 l/m 0.7 km/h (0 Bft) SO 135 0 min 0.0 km/h (0 Bft)
21.10.2020 10:08 10.3 C 86 % 1006.2 hPa 0.0 l/m 0.7 km/h (0 Bft) S-SO 158 0 min 0.0 km/h (0 Bft)
21.10.2020 10:07 10.3 C 86 % 1006.2 hPa 0.0 l/m 0.7 km/h (0 Bft) S-SO 158 0 min 0.0 km/h (0 Bft)
21.10.2020 10:06 10.2 C 87 % 1006.2 hPa 0.0 l/m 0.7 km/h (0 Bft) W 270 0 min 0.0 km/h (0 Bft)
21.10.2020 10:05 10.2 C 87 % 1006.2 hPa 0.0 l/m 0.7 km/h (0 Bft) W 270 0 min 0.0 km/h (0 Bft)
21.10.2020 10:04 10.2 C 87 % 1006.2 hPa 0.0 l/m 0.4 km/h (0 Bft) W-SW 248 0 min 2.5 km/h (1 Bft)
21.10.2020 10:03 10.2 C 87 % 1006.2 hPa 0.0 l/m 0.4 km/h (0 Bft) W-SW 248 0 min 2.5 km/h (1 Bft)
21.10.2020 10:02 10.1 C 87 % 1006.2 hPa 0.0 l/m 0.4 km/h (0 Bft) O-SO 113 0 min 2.5 km/h (1 Bft)
21.10.2020 10:01 10.1 C 87 % 1006.2 hPa 0.0 l/m 0.4 km/h (0 Bft) O-SO 113 0 min 2.5 km/h (1 Bft)
21.10.2020 10:00 10.1 C 87 % 1006.2 hPa 0.0 l/m 0.0 km/h (0 Bft) W-NW 293 0 min 0.0 km/h (0 Bft)
21.10.2020 09:59 10.1 C 87 % 1006.2 hPa 0.0 l/m 0.0 km/h (0 Bft) W-NW 293 0 min 0.0 km/h (0 Bft)
21.10.2020 09:58 10.1 C 87 % 1006.2 hPa 0.0 l/m 0.0 km/h (0 Bft) W-SW 248 0 min 0.0 km/h (0 Bft)
21.10.2020 09:57 10.1 C 87 % 1006.2 hPa 0.0 l/m 0.0 km/h (0 Bft) W-SW 248 0 min 0.0 km/h (0 Bft)
21.10.2020 09:56 10.1 C 87 % 1006.2 hPa 0.0 l/m 0.0 km/h (0 Bft) S-SW 203 0 min 0.0 km/h (0 Bft)
21.10.2020 09:55 9.9 C 87 % 1006.2 hPa 0.0 l/m 0.0 km/h (0 Bft) S-SW 203 1 min 0.0 km/h (0 Bft)
21.10.2020 09:54 9.9 C 87 % 1006.2 hPa 0.0 l/m 0.0 km/h (0 Bft) S-SW 203 1 min 0.0 km/h (0 Bft)
21.10.2020 09:53 9.9 C 87 % 1006.2 hPa 0.0 l/m 0.0 km/h (0 Bft) W 270 1 min 0.0 km/h (0 Bft)
21.10.2020 09:52 9.9 C 87 % 1006.2 hPa 0.0 l/m 0.0 km/h (0 Bft) W 270 1 min 0.0 km/h (0 Bft)
21.10.2020 09:51 9.9 C 87 % 1006.0 hPa 0.0 l/m 0.0 km/h (0 Bft) NW 315 0 min 0.0 km/h (0 Bft)
21.10.2020 09:50 9.9 C 87 % 1006.0 hPa 0.0 l/m 0.0 km/h (0 Bft) NW 315 0 min 0.0 km/h (0 Bft)
21.10.2020 09:49 9.8 C 87 % 1006.0 hPa 0.0 l/m 0.0 km/h (0 Bft) NW 315 0 min 0.0 km/h (0 Bft)
21.10.2020 09:48 9.8 C 87 % 1006.0 hPa 0.0 l/m 0.0 km/h (0 Bft) NW 315 0 min 0.0 km/h (0 Bft)
21.10.2020 09:47 9.8 C 87 % 1006.0 hPa 0.0 l/m 0.0 km/h (0 Bft) W-SW 248 0 min 0.0 km/h (0 Bft)
21.10.2020 09:46 9.8 C 87 % 1006.0 hPa 0.0 l/m 0.0 km/h (0 Bft) W-SW 248 0 min 0.0 km/h (0 Bft)
21.10.2020 09:45 9.8 C 87 % 1006.0 hPa 0.0 l/m 0.0 km/h (0 Bft) W 270 0 min 0.0 km/h (0 Bft)
21.10.2020 09:44 9.8 C 87 % 1006.0 hPa 0.0 l/m 0.0 km/h (0 Bft) W 270 0 min 0.0 km/h (0 Bft)
21.10.2020 09:43 9.8 C 87 % 1006.0 hPa 0.0 l/m 0.0 km/h (0 Bft) O-SO 113 0 min 0.0 km/h (0 Bft)
21.10.2020 09:42 9.8 C 87 % 1006.0 hPa 0.0 l/m 0.0 km/h (0 Bft) O-SO 113 0 min 0.0 km/h (0 Bft)
21.10.2020 09:41 9.7 C 87 % 1006.0 hPa 0.0 l/m 0.0 km/h (0 Bft) SO 135 0 min 0.0 km/h (0 Bft)
21.10.2020 09:40 9.7 C 87 % 1006.0 hPa 0.0 l/m 0.0 km/h (0 Bft) O-NO 68 0 min 0.0 km/h (0 Bft)
21.10.2020 09:39 9.7 C 87 % 1006.0 hPa 0.0 l/m 0.0 km/h (0 Bft) O-NO 68 0 min 0.0 km/h (0 Bft)
21.10.2020 09:38 9.7 C 87 % 1006.0 hPa 0.0 l/m 0.0 km/h (0 Bft) N 0 0 min 0.0 km/h (0 Bft)
21.10.2020 09:37 9.7 C 87 % 1006.0 hPa 0.0 l/m 0.0 km/h (0 Bft) N 0 0 min 0.0 km/h (0 Bft)
21.10.2020 09:36 9.7 C 87 % 1006.0 hPa 0.0 l/m 0.0 km/h (0 Bft) NW 315 0 min 0.0 km/h (0 Bft)
21.10.2020 09:35 9.7 C 87 % 1006.0 hPa 0.0 l/m 0.0 km/h (0 Bft) NW 315 0 min 0.0 km/h (0 Bft)
21.10.2020 09:34 9.7 C 87 % 1006.0 hPa 0.0 l/m 0.0 km/h (0 Bft) W-NW 293 0 min 0.0 km/h (0 Bft)
21.10.2020 09:33 9.7 C 87 % 1006.0 hPa 0.0 l/m 0.0 km/h (0 Bft) W-NW 293 0 min 0.0 km/h (0 Bft)
21.10.2020 09:32 9.7 C 87 % 1005.7 hPa 0.0 l/m 0.4 km/h (0 Bft) SO 135 0 min 0.0 km/h (0 Bft)
21.10.2020 09:31 9.7 C 87 % 1005.7 hPa 0.0 l/m 0.4 km/h (0 Bft) SO 135 0 min 0.0 km/h (0 Bft)
21.10.2020 09:30 9.6 C 87 % 1005.7 hPa 0.0 l/m 0.4 km/h (0 Bft) SO 135 0 min 0.0 km/h (0 Bft)
21.10.2020 09:29 9.6 C 87 % 1005.7 hPa 0.0 l/m 0.4 km/h (0 Bft) SO 135 0 min 0.0 km/h (0 Bft)
21.10.2020 09:28 9.6 C 87 % 1005.7 hPa 0.0 l/m 0.4 km/h (0 Bft) W 270 0 min 0.0 km/h (0 Bft)
21.10.2020 09:27 9.6 C 87 % 1005.7 hPa 0.0 l/m 0.4 km/h (0 Bft) W 270 0 min 0.0 km/h (0 Bft)
21.10.2020 09:26 9.5 C 87 % 1005.7 hPa 0.0 l/m 0.4 km/h (0 Bft) N 0 0 min 0.0 km/h (0 Bft)
21.10.2020 09:25 9.5 C 87 % 1005.7 hPa 0.0 l/m 0.4 km/h (0 Bft) N 0 0 min 0.0 km/h (0 Bft)
21.10.2020 09:24 9.5 C 87 % 1005.7 hPa 0.0 l/m 0.4 km/h (0 Bft) NO 45 0 min 0.0 km/h (0 Bft)
21.10.2020 09:23 9.5 C 87 % 1005.7 hPa 0.0 l/m 0.4 km/h (0 Bft) NO 45 0 min 0.0 km/h (0 Bft)
21.10.2020 09:22 9.5 C 87 % 1005.7 hPa 0.0 l/m 0.4 km/h (0 Bft) O-NO 68 0 min 0.0 km/h (0 Bft)
21.10.2020 09:21 9.5 C 87 % 1005.7 hPa 0.0 l/m 0.4 km/h (0 Bft) O-NO 68 0 min 0.0 km/h (0 Bft)
21.10.2020 09:20 9.5 C 87 % 1005.7 hPa 0.0 l/m 0.4 km/h (0 Bft) O 90 0 min 0.0 km/h (0 Bft)
21.10.2020 09:19 9.5 C 87 % 1005.7 hPa 0.0 l/m 0.4 km/h (0 Bft) O 90 0 min 0.0 km/h (0 Bft)
21.10.2020 09:18 9.5 C 87 % 1005.7 hPa 0.0 l/m 0.4 km/h (0 Bft) O-NO 68 0 min 2.5 km/h (1 Bft)
21.10.2020 09:17 9.4 C 87 % 1005.7 hPa 0.0 l/m 0.4 km/h (0 Bft) O-NO 68 0 min 2.5 km/h (1 Bft)
21.10.2020 09:16 9.4 C 87 % 1005.7 hPa 0.0 l/m 0.4 km/h (0 Bft) NO 45 0 min 0.0 km/h (0 Bft)
21.10.2020 09:15 9.4 C 87 % 1005.7 hPa 0.0 l/m 0.4 km/h (0 Bft) NO 45 0 min 0.0 km/h (0 Bft)
21.10.2020 09:14 9.4 C 87 % 1005.7 hPa 0.0 l/m 0.4 km/h (0 Bft) NO 45 0 min 0.0 km/h (0 Bft)
21.10.2020 09:13 9.4 C 87 % 1005.7 hPa 0.0 l/m 0.4 km/h (0 Bft) N-NW 338 0 min 0.0 km/h (0 Bft)
21.10.2020 09:12 9.4 C 87 % 1005.7 hPa 0.0 l/m 0.4 km/h (0 Bft) N-NW 338 0 min 0.0 km/h (0 Bft)
21.10.2020 09:11 9.5 C 87 % 1005.5 hPa 0.0 l/m 0.4 km/h (0 Bft) NO 45 0 min 0.0 km/h (0 Bft)
21.10.2020 09:10 9.5 C 87 % 1005.5 hPa 0.0 l/m 0.4 km/h (0 Bft) NO 45 0 min 0.0 km/h (0 Bft)
21.10.2020 09:09 9.4 C 87 % 1005.5 hPa 0.0 l/m 0.4 km/h (0 Bft) NO 45 0 min 0.0 km/h (0 Bft)
21.10.2020 09:08 9.4 C 87 % 1005.5 hPa 0.0 l/m 0.4 km/h (0 Bft) NO 45 0 min 0.0 km/h (0 Bft)
21.10.2020 09:07 9.4 C 87 % 1005.5 hPa 0.0 l/m 0.4 km/h (0 Bft) O 90 0 min 3.6 km/h (1 Bft)
21.10.2020 09:06 9.4 C 87 % 1005.5 hPa 0.0 l/m 0.4 km/h (0 Bft) O 90 0 min 3.6 km/h (1 Bft)
21.10.2020 09:05 9.4 C 87 % 1005.5 hPa 0.0 l/m 0.0 km/h (0 Bft) SO 135 0 min 0.0 km/h (0 Bft)
21.10.2020 09:04 9.4 C 87 % 1005.5 hPa 0.0 l/m 0.0 km/h (0 Bft) SO 135 0 min 0.0 km/h (0 Bft)
21.10.2020 09:03 9.4 C 87 % 1005.5 hPa 0.0 l/m 0.0 km/h (0 Bft) NW 315 0 min 0.0 km/h (0 Bft)
21.10.2020 09:02 9.3 C 87 % 1005.5 hPa 0.0 l/m 0.0 km/h (0 Bft) NW 315 0 min 0.0 km/h (0 Bft)
21.10.2020 09:01 9.3 C 87 % 1005.5 hPa 0.0 l/m 0.0 km/h (0 Bft) SO 135 0 min 0.0 km/h (0 Bft)
21.10.2020 09:00 9.4 C 87 % 1005.5 hPa 0.0 l/m 0.0 km/h (0 Bft) SW 225 0 min 0.0 km/h (0 Bft)
21.10.2020 08:59 9.4 C 87 % 1005.5 hPa 0.0 l/m 0.0 km/h (0 Bft) SW 225 0 min 0.0 km/h (0 Bft)
21.10.2020 08:58 9.3 C 87 % 1005.5 hPa 0.0 l/m 0.0 km/h (0 Bft) W-SW 248 0 min 0.0 km/h (0 Bft)
21.10.2020 08:57 9.3 C 87 % 1005.5 hPa 0.0 l/m 0.0 km/h (0 Bft) W-SW 248 0 min 0.0 km/h (0 Bft)
21.10.2020 08:56 9.3 C 87 % 1005.5 hPa 0.0 l/m 0.4 km/h (0 Bft) SW 225 0 min 0.0 km/h (0 Bft)
21.10.2020 08:55 9.3 C 87 % 1005.5 hPa 0.0 l/m 0.4 km/h (0 Bft) SW 225 0 min 0.0 km/h (0 Bft)
21.10.2020 08:54 9.3 C 87 % 1005.5 hPa 0.0 l/m 0.4 km/h (0 Bft) S-SO 158 0 min 0.0 km/h (0 Bft)
21.10.2020 08:53 9.3 C 87 % 1005.5 hPa 0.0 l/m 0.4 km/h (0 Bft) S-SO 158 0 min 0.0 km/h (0 Bft)
21.10.2020 08:52 9.2 C 87 % 1005.2 hPa 0.0 l/m 0.4 km/h (0 Bft) O 90 0 min 0.0 km/h (0 Bft)
21.10.2020 08:51 9.2 C 87 % 1005.2 hPa 0.0 l/m 0.4 km/h (0 Bft) O 90 0 min 0.0 km/h (0 Bft)
21.10.2020 08:50 9.2 C 87 % 1005.2 hPa 0.0 l/m 0.4 km/h (0 Bft) O 90 0 min 0.0 km/h (0 Bft)
21.10.2020 08:49 9.2 C 87 % 1005.2 hPa 0.0 l/m 0.4 km/h (0 Bft) O 90 0 min 0.0 km/h (0 Bft)
21.10.2020 08:48 9.2 C 87 % 1005.2 hPa 0.0 l/m 0.4 km/h (0 Bft) O-SO 113 0 min 0.0 km/h (0 Bft)
21.10.2020 08:47 9.2 C 87 % 1005.2 hPa 0.0 l/m 0.4 km/h (0 Bft) O-SO 113 0 min 0.0 km/h (0 Bft)
21.10.2020 08:46 9.2 C 87 % 1005.2 hPa 0.0 l/m 0.4 km/h (0 Bft) S-SW 203 0 min 4.0 km/h (1 Bft)
21.10.2020 08:45 9.2 C 87 % 1005.2 hPa 0.0 l/m 0.4 km/h (0 Bft) S-SW 203 0 min 4.0 km/h (1 Bft)
21.10.2020 08:44 9.2 C 87 % 1005.2 hPa 0.0 l/m 0.0 km/h (0 Bft) NW 315 0 min 4.0 km/h (1 Bft)
21.10.2020 08:43 9.2 C 87 % 1005.2 hPa 0.0 l/m 0.0 km/h (0 Bft) NW 315 0 min 4.0 km/h (1 Bft)
21.10.2020 08:42 9.3 C 87 % 1005.2 hPa 0.0 l/m 0.4 km/h (0 Bft) S-SW 203 0 min 0.0 km/h (0 Bft)
21.10.2020 08:41 9.3 C 87 % 1005.2 hPa 0.0 l/m 0.4 km/h (0 Bft) S-SW 203 0 min 0.0 km/h (0 Bft)
21.10.2020 08:40 9.3 C 86 % 1005.2 hPa 0.0 l/m 0.4 km/h (0 Bft) S 180 0 min 0.0 km/h (0 Bft)
21.10.2020 08:39 9.3 C 86 % 1005.2 hPa 0.0 l/m 0.4 km/h (0 Bft) S 180 0 min 0.0 km/h (0 Bft)
21.10.2020 08:38 9.3 C 86 % 1005.2 hPa 0.0 l/m 0.4 km/h (0 Bft) O-SO 113 0 min 0.0 km/h (0 Bft)
21.10.2020 08:37 9.2 C 86 % 1005.2 hPa 0.0 l/m 0.4 km/h (0 Bft) O-SO 113 0 min 0.0 km/h (0 Bft)
21.10.2020 08:36 9.2 C 86 % 1005.2 hPa 0.0 l/m 0.4 km/h (0 Bft) O-NO 68 0 min 0.0 km/h (0 Bft)
21.10.2020 08:35 9.3 C 86 % 1005.2 hPa 0.0 l/m 0.4 km/h (0 Bft) O-NO 68 0 min 0.0 km/h (0 Bft)
21.10.2020 08:34 9.3 C 86 % 1005.2 hPa 0.0 l/m 0.4 km/h (0 Bft) O-NO 68 0 min 0.0 km/h (0 Bft)
21.10.2020 08:33 9.3 C 86 % 1005.2 hPa 0.0 l/m 0.4 km/h (0 Bft) O-SO 113 0 min 0.0 km/h (0 Bft)
21.10.2020 08:32 9.3 C 86 % 1005.2 hPa 0.0 l/m 0.4 km/h (0 Bft) O-SO 113 0 min 0.0 km/h (0 Bft)
21.10.2020 08:31 9.3 C 86 % 1004.7 hPa 0.0 l/m 0.4 km/h (0 Bft) W-SW 248 0 min 0.0 km/h (0 Bft)
21.10.2020 08:30 9.3 C 86 % 1004.7 hPa 0.0 l/m 0.4 km/h (0 Bft) W-SW 248 0 min 0.0 km/h (0 Bft)
21.10.2020 08:29 9.3 C 86 % 1004.7 hPa 0.0 l/m 0.4 km/h (0 Bft) W-SW 248 0 min 0.0 km/h (0 Bft)
21.10.2020 08:28 9.3 C 86 % 1004.7 hPa 0.0 l/m 0.4 km/h (0 Bft) W-SW 248 0 min 0.0 km/h (0 Bft)
21.10.2020 08:27 9.3 C 86 % 1004.7 hPa 0.0 l/m 0.4 km/h (0 Bft) W-SW 248 0 min 0.0 km/h (0 Bft)
21.10.2020 08:26 9.3 C 86 % 1004.7 hPa 0.0 l/m 0.4 km/h (0 Bft) W-SW 248 0 min 0.0 km/h (0 Bft)
21.10.2020 08:25 9.3 C 86 % 1004.7 hPa 0.0 l/m 0.0 km/h (0 Bft) W-SW 248 0 min 2.9 km/h (1 Bft)
21.10.2020 08:24 9.3 C 86 % 1004.7 hPa 0.0 l/m 0.0 km/h (0 Bft) W-SW 248 0 min 2.9 km/h (1 Bft)
21.10.2020 08:23 9.2 C 86 % 1004.7 hPa 0.0 l/m 0.0 km/h (0 Bft) SO 135 0 min 0.0 km/h (0 Bft)
21.10.2020 08:22 9.2 C 86 % 1004.7 hPa 0.0 l/m 0.2 km/h (0 Bft) SO 135 0 min 0.0 km/h (0 Bft)
21.10.2020 08:21 9.3 C 86 % 1004.7 hPa 0.0 l/m 0.4 km/h (0 Bft) N 0 0 min 0.0 km/h (0 Bft)
21.10.2020 08:20 9.3 C 86 % 1004.7 hPa 0.0 l/m 0.4 km/h (0 Bft) NW 315 0 min 0.0 km/h (0 Bft)
21.10.2020 08:19 9.3 C 86 % 1004.7 hPa 0.0 l/m 0.4 km/h (0 Bft) NW 315 0 min 0.0 km/h (0 Bft)
21.10.2020 08:18 9.2 C 86 % 1004.7 hPa 0.0 l/m 0.4 km/h (0 Bft) W-SW 248 0 min 0.0 km/h (0 Bft)
21.10.2020 08:17 9.2 C 86 % 1004.7 hPa 0.0 l/m 0.4 km/h (0 Bft) W-SW 248 0 min 0.0 km/h (0 Bft)
21.10.2020 08:16 9.3 C 86 % 1004.7 hPa 0.0 l/m 0.4 km/h (0 Bft) O 90 0 min 0.0 km/h (0 Bft)
21.10.2020 08:15 9.3 C 86 % 1004.7 hPa 0.0 l/m 0.4 km/h (0 Bft) O 90 0 min 0.0 km/h (0 Bft)
21.10.2020 08:14 9.3 C 86 % 1004.7 hPa 0.0 l/m 0.4 km/h (0 Bft) S 180 0 min 0.0 km/h (0 Bft)
21.10.2020 08:13 9.3 C 86 % 1004.7 hPa 0.0 l/m 0.4 km/h (0 Bft) S 180 0 min 0.0 km/h (0 Bft)
21.10.2020 08:12 9.2 C 86 % 1004.7 hPa 0.0 l/m 0.0 km/h (0 Bft) W-SW 248 0 min 0.0 km/h (0 Bft)
21.10.2020 08:11 9.2 C 86 % 1004.7 hPa 0.0 l/m 0.0 km/h (0 Bft) W-SW 248 0 min 0.0 km/h (0 Bft)
21.10.2020 08:10 9.3 C 86 % 1004.7 hPa 0.0 l/m 0.0 km/h (0 Bft) W-SW 248 0 min 0.0 km/h (0 Bft)
21.10.2020 08:09 9.3 C 86 % 1004.7 hPa 0.0 l/m 0.0 km/h (0 Bft) W-SW 248 0 min 0.0 km/h (0 Bft)
21.10.2020 08:08 9.3 C 86 % 1004.7 hPa 0.0 l/m 0.0 km/h (0 Bft) S-SO 158 0 min 0.0 km/h (0 Bft)
21.10.2020 08:07 9.3 C 86 % 1004.7 hPa 0.0 l/m 0.0 km/h (0 Bft) S-SO 158 0 min 0.0 km/h (0 Bft)
21.10.2020 08:06 9.3 C 85 % 1004.7 hPa 0.0 l/m 0.0 km/h (0 Bft) W-SW 248 0 min 0.0 km/h (0 Bft)
21.10.2020 08:05 9.3 C 85 % 1004.7 hPa 0.0 l/m 0.0 km/h (0 Bft) W-SW 248 0 min 0.0 km/h (0 Bft)
21.10.2020 08:04 9.4 C 86 % 1004.7 hPa 0.0 l/m 0.0 km/h (0 Bft) N-NO 23 0 min 0.0 km/h (0 Bft)
21.10.2020 08:03 9.4 C 86 % 1004.7 hPa 0.0 l/m 0.0 km/h (0 Bft) N-NO 23 0 min 0.0 km/h (0 Bft)
21.10.2020 08:02 9.3 C 85 % 1004.7 hPa 0.0 l/m 0.0 km/h (0 Bft) W 270 0 min 0.0 km/h (0 Bft)
21.10.2020 08:01 9.3 C 85 % 1004.7 hPa 0.0 l/m 0.0 km/h (0 Bft) W 270 0 min 0.0 km/h (0 Bft)
21.10.2020 08:00 9.3 C 85 % 1004.7 hPa 0.0 l/m 0.0 km/h (0 Bft) O-NO 68 0 min 0.0 km/h (0 Bft)
21.10.2020 07:59 9.3 C 85 % 1004.7 hPa 0.0 l/m 0.0 km/h (0 Bft) O-NO 68 0 min 0.0 km/h (0 Bft)
21.10.2020 07:58 9.3 C 85 % 1004.7 hPa 0.0 l/m 0.0 km/h (0 Bft) O-NO 68 0 min 0.0 km/h (0 Bft)
21.10.2020 07:57 9.3 C 85 % 1004.7 hPa 0.0 l/m 0.0 km/h (0 Bft) O-NO 68 0 min 0.0 km/h (0 Bft)
21.10.2020 07:56 9.3 C 85 % 1004.7 hPa 0.0 l/m 0.0 km/h (0 Bft) O-SO 113 0 min 0.0 km/h (0 Bft)
21.10.2020 07:55 9.3 C 85 % 1004.7 hPa 0.0 l/m 0.0 km/h (0 Bft) O-SO 113 0 min 0.0 km/h (0 Bft)
21.10.2020 07:54 9.3 C 85 % 1004.7 hPa 0.0 l/m 0.0 km/h (0 Bft) O-SO 113 0 min 0.0 km/h (0 Bft)
21.10.2020 07:53 9.4 C 85 % 1004.7 hPa 0.0 l/m 0.0 km/h (0 Bft) W-NW 293 0 min 0.0 km/h (0 Bft)
21.10.2020 07:52 9.4 C 85 % 1004.7 hPa 0.0 l/m 0.0 km/h (0 Bft) W-NW 293 0 min 0.0 km/h (0 Bft)
21.10.2020 07:51 9.4 C 85 % 1004.7 hPa 0.0 l/m 0.0 km/h (0 Bft) S-SW 203 0 min 0.0 km/h (0 Bft)
21.10.2020 07:50 9.4 C 85 % 1004.7 hPa 0.0 l/m 0.0 km/h (0 Bft) S-SW 203 0 min 0.0 km/h (0 Bft)
21.10.2020 07:49 9.5 C 85 % 1004.7 hPa 0.0 l/m 0.0 km/h (0 Bft) S-SW 203 0 min 0.0 km/h (0 Bft)
21.10.2020 07:48 9.5 C 85 % 1004.7 hPa 0.0 l/m 0.0 km/h (0 Bft) S-SW 203 0 min 0.0 km/h (0 Bft)
21.10.2020 07:47 9.5 C 85 % 1004.7 hPa 0.0 l/m 0.0 km/h (0 Bft) NO 45 0 min 0.0 km/h (0 Bft)
21.10.2020 07:46 9.5 C 85 % 1004.7 hPa 0.0 l/m 0.0 km/h (0 Bft) NO 45 0 min 0.0 km/h (0 Bft)
21.10.2020 07:45 9.5 C 85 % 1004.7 hPa 0.0 l/m 0.4 km/h (0 Bft) NO 45 0 min 0.0 km/h (0 Bft)
21.10.2020 07:44 9.5 C 85 % 1004.7 hPa 0.0 l/m 0.4 km/h (0 Bft) NO 45 0 min 0.0 km/h (0 Bft)
21.10.2020 07:43 9.4 C 85 % 1004.7 hPa 0.0 l/m 0.4 km/h (0 Bft) N 0 0 min 0.0 km/h (0 Bft)
21.10.2020 07:42 9.4 C 85 % 1004.7 hPa 0.0 l/m 0.4 km/h (0 Bft) N 0 0 min 0.0 km/h (0 Bft)
21.10.2020 07:41 9.4 C 85 % 1004.7 hPa 0.0 l/m 0.4 km/h (0 Bft) N 0 0 min 0.0 km/h (0 Bft)
21.10.2020 07:40 9.4 C 85 % 1004.7 hPa 0.0 l/m 0.4 km/h (0 Bft) NO 45 0 min 0.0 km/h (0 Bft)
21.10.2020 07:39 9.4 C 85 % 1004.7 hPa 0.0 l/m 0.4 km/h (0 Bft) NO 45 0 min 0.0 km/h (0 Bft)
21.10.2020 07:38 9.4 C 85 % 1004.7 hPa 0.0 l/m 0.4 km/h (0 Bft) S-SO 158 0 min 0.0 km/h (0 Bft)
21.10.2020 07:37 9.4 C 85 % 1004.7 hPa 0.0 l/m 0.4 km/h (0 Bft) S-SO 158 0 min 0.0 km/h (0 Bft)
21.10.2020 07:36 9.4 C 85 % 1004.7 hPa 0.0 l/m 0.4 km/h (0 Bft) O 90 0 min 4.7 km/h (1 Bft)
21.10.2020 07:35 9.4 C 85 % 1004.7 hPa 0.0 l/m 0.4 km/h (0 Bft) O 90 0 min 4.7 km/h (1 Bft)
21.10.2020 07:34 9.4 C 85 % 1004.7 hPa 0.0 l/m 0.4 km/h (0 Bft) NW 315 0 min 0.0 km/h (0 Bft)
21.10.2020 07:33 9.4 C 85 % 1004.7 hPa 0.0 l/m 0.4 km/h (0 Bft) NW 315 0 min 0.0 km/h (0 Bft)
21.10.2020 07:32 9.4 C 85 % 1004.2 hPa 0.0 l/m 0.0 km/h (0 Bft) O-SO 113 0 min 2.5 km/h (1 Bft)
21.10.2020 07:31 9.4 C 85 % 1004.2 hPa 0.0 l/m 0.0 km/h (0 Bft) O-SO 113 0 min 2.5 km/h (1 Bft)
21.10.2020 07:30 9.4 C 85 % 1004.2 hPa 0.0 l/m 0.0 km/h (0 Bft) O-SO 113 0 min 2.5 km/h (1 Bft)
21.10.2020 07:29 9.4 C 85 % 1004.2 hPa 0.0 l/m 0.0 km/h (0 Bft) O-SO 113 0 min 2.5 km/h (1 Bft)
21.10.2020 07:28 9.4 C 85 % 1004.2 hPa 0.0 l/m 0.0 km/h (0 Bft) NW 315 0 min 0.0 km/h (0 Bft)
21.10.2020 07:27 9.4 C 85 % 1004.2 hPa 0.0 l/m 0.0 km/h (0 Bft) NW 315 0 min 0.0 km/h (0 Bft)
21.10.2020 07:26 9.4 C 86 % 1004.2 hPa 0.0 l/m 0.0 km/h (0 Bft) O-SO 113 0 min 0.0 km/h (0 Bft)
21.10.2020 07:25 9.4 C 86 % 1004.2 hPa 0.0 l/m 0.0 km/h (0 Bft) O-SO 113 0 min 0.0 km/h (0 Bft)
21.10.2020 07:24 9.3 C 86 % 1004.2 hPa 0.0 l/m 0.0 km/h (0 Bft) SO 135 0 min 0.0 km/h (0 Bft)
21.10.2020 07:23 9.3 C 86 % 1004.2 hPa 0.0 l/m 0.0 km/h (0 Bft) SO 135 0 min 0.0 km/h (0 Bft)
21.10.2020 07:22 9.4 C 86 % 1004.2 hPa 0.0 l/m 0.0 km/h (0 Bft) O-NO 68 0 min 0.0 km/h (0 Bft)
21.10.2020 07:21 9.4 C 86 % 1004.2 hPa 0.0 l/m 0.0 km/h (0 Bft) O-NO 68 0 min 0.0 km/h (0 Bft)
21.10.2020 07:20 9.4 C 86 % 1004.2 hPa 0.0 l/m 0.0 km/h (0 Bft) S-SW 203 0 min 0.0 km/h (0 Bft)
21.10.2020 07:19 9.4 C 86 % 1004.2 hPa 0.0 l/m 0.0 km/h (0 Bft) S-SW 203 0 min 0.0 km/h (0 Bft)
21.10.2020 07:18 9.4 C 86 % 1004.2 hPa 0.0 l/m 0.4 km/h (0 Bft) S-SW 203 0 min 0.0 km/h (0 Bft)
21.10.2020 07:17 9.4 C 86 % 1004.2 hPa 0.0 l/m 0.4 km/h (0 Bft) S-SW 203 0 min 0.0 km/h (0 Bft)
21.10.2020 07:16 9.4 C 86 % 1004.2 hPa 0.0 l/m 0.7 km/h (0 Bft) O 90 0 min 0.0 km/h (0 Bft)
21.10.2020 07:15 9.4 C 86 % 1004.2 hPa 0.0 l/m 0.7 km/h (0 Bft) O 90 0 min 0.0 km/h (0 Bft)
21.10.2020 07:14 9.4 C 86 % 1004.2 hPa 0.0 l/m 0.7 km/h (0 Bft) O 90 0 min 0.0 km/h (0 Bft)
21.10.2020 07:13 9.5 C 86 % 1004.2 hPa 0.0 l/m 1.4 km/h (1 Bft) N 0 0 min 0.0 km/h (0 Bft)
21.10.2020 07:12 9.5 C 86 % 1004.2 hPa 0.0 l/m 1.4 km/h (1 Bft) N 0 0 min 0.0 km/h (0 Bft)
21.10.2020 07:11 9.5 C 86 % 1004.7 hPa 0.0 l/m 2.5 km/h (1 Bft) S-SW 203 0 min 0.0 km/h (0 Bft)
21.10.2020 07:10 9.5 C 86 % 1004.7 hPa 0.0 l/m 2.5 km/h (1 Bft) S-SW 203 0 min 0.0 km/h (0 Bft)
21.10.2020 07:09 9.5 C 86 % 1004.7 hPa 0.0 l/m 2.5 km/h (1 Bft) S-SW 203 0 min 0.0 km/h (0 Bft)
21.10.2020 07:08 9.5 C 86 % 1004.7 hPa 0.0 l/m 2.5 km/h (1 Bft) S-SW 203 0 min 0.0 km/h (0 Bft)
21.10.2020 07:07 9.4 C 86 % 1004.7 hPa 0.0 l/m 3.6 km/h (1 Bft) W-SW 248 0 min 0.0 km/h (0 Bft)
21.10.2020 07:06 9.4 C 86 % 1004.7 hPa 0.0 l/m 3.6 km/h (1 Bft) W-SW 248 0 min 0.0 km/h (0 Bft)
21.10.2020 07:05 9.2 C 87 % 1004.7 hPa 0.0 l/m 3.6 km/h (1 Bft) NW 315 0 min 5.0 km/h (1 Bft)
21.10.2020 07:04 9.2 C 87 % 1004.7 hPa 0.0 l/m 3.6 km/h (1 Bft) NW 315 0 min 5.0 km/h (1 Bft)
21.10.2020 07:03 9.2 C 87 % 1004.7 hPa 0.0 l/m 3.6 km/h (1 Bft) O 90 0 min 4.0 km/h (1 Bft)
21.10.2020 07:02 9.2 C 87 % 1004.7 hPa 0.0 l/m 3.2 km/h (1 Bft) O 90 0 min 4.0 km/h (1 Bft)
21.10.2020 07:01 9.3 C 87 % 1004.7 hPa 0.0 l/m 2.9 km/h (1 Bft) S-SW 203 0 min 3.6 km/h (1 Bft)
21.10.2020 07:00 9.1 C 87 % 1004.7 hPa 0.0 l/m 2.5 km/h (1 Bft) W-SW 248 0 min 3.6 km/h (1 Bft)
21.10.2020 06:59 9.1 C 87 % 1004.7 hPa 0.0 l/m 2.5 km/h (1 Bft) W-SW 248 0 min 3.6 km/h (1 Bft)
21.10.2020 06:58 9.1 C 87 % 1004.7 hPa 0.0 l/m 2.2 km/h (1 Bft) W 270 0 min 6.8 km/h (2 Bft)
21.10.2020 06:57 9.1 C 87 % 1004.7 hPa 0.0 l/m 2.2 km/h (1 Bft) W 270 0 min 6.8 km/h (2 Bft)
21.10.2020 06:56 9.2 C 87 % 1004.7 hPa 0.0 l/m 1.4 km/h (1 Bft) W 270 0 min 4.7 km/h (1 Bft)
21.10.2020 06:55 9.2 C 87 % 1004.7 hPa 0.0 l/m 1.4 km/h (1 Bft) W 270 0 min 4.7 km/h (1 Bft)
21.10.2020 06:54 9.2 C 87 % 1004.7 hPa 0.0 l/m 1.4 km/h (1 Bft) W 270 0 min 4.7 km/h (1 Bft)
21.10.2020 06:53 9.2 C 87 % 1004.7 hPa 0.0 l/m 1.4 km/h (1 Bft) W 270 0 min 4.7 km/h (1 Bft)
21.10.2020 06:52 9.1 C 87 % 1004.7 hPa 0.0 l/m 0.7 km/h (0 Bft) W 270 0 min 6.1 km/h (2 Bft)
21.10.2020 06:51 9.1 C 87 % 1004.7 hPa 0.0 l/m 0.7 km/h (0 Bft) W 270 0 min 6.1 km/h (2 Bft)
21.10.2020 06:50 9.1 C 87 % 1004.9 hPa 0.0 l/m 0.4 km/h (0 Bft) W-SW 248 0 min 0.0 km/h (0 Bft)
21.10.2020 06:49 9.1 C 87 % 1004.9 hPa 0.0 l/m 0.4 km/h (0 Bft) W-SW 248 0 min 0.0 km/h (0 Bft)
21.10.2020 06:48 9.1 C 87 % 1004.9 hPa 0.0 l/m 0.4 km/h (0 Bft) W-SW 248 0 min 0.0 km/h (0 Bft)
21.10.2020 06:47 9.1 C 87 % 1004.9 hPa 0.0 l/m 0.4 km/h (0 Bft) W-SW 248 0 min 0.0 km/h (0 Bft)
21.10.2020 06:46 9.1 C 87 % 1004.9 hPa 0.0 l/m 0.4 km/h (0 Bft) W-SW 248 0 min 0.0 km/h (0 Bft)
21.10.2020 06:45 9.1 C 87 % 1004.9 hPa 0.0 l/m 0.4 km/h (0 Bft) W-SW 248 0 min 0.0 km/h (0 Bft)
21.10.2020 06:44 9.1 C 87 % 1004.9 hPa 0.0 l/m 0.4 km/h (0 Bft) O-NO 68 0 min 0.0 km/h (0 Bft)
21.10.2020 06:43 9.1 C 87 % 1004.9 hPa 0.0 l/m 0.4 km/h (0 Bft) O-NO 68 0 min 0.0 km/h (0 Bft)
21.10.2020 06:42 9.1 C 87 % 1004.9 hPa 0.0 l/m 0.4 km/h (0 Bft) S-SW 203 0 min 0.0 km/h (0 Bft)
21.10.2020 06:41 9.1 C 87 % 1004.9 hPa 0.0 l/m 0.4 km/h (0 Bft) S-SW 203 0 min 0.0 km/h (0 Bft)
21.10.2020 06:40 9.1 C 87 % 1004.9 hPa 0.0 l/m 0.4 km/h (0 Bft) NW 315 0 min 0.0 km/h (0 Bft)
21.10.2020 06:39 9.1 C 87 % 1004.9 hPa 0.0 l/m 0.4 km/h (0 Bft) S 180 0 min 3.6 km/h (1 Bft)
21.10.2020 06:38 9.1 C 87 % 1004.9 hPa 0.0 l/m 0.4 km/h (0 Bft) S 180 0 min 3.6 km/h (1 Bft)
21.10.2020 06:37 9.1 C 87 % 1004.9 hPa 0.0 l/m 0.4 km/h (0 Bft) W-NW 293 0 min 0.0 km/h (0 Bft)
21.10.2020 06:36 9.1 C 87 % 1004.9 hPa 0.0 l/m 0.4 km/h (0 Bft) W-NW 293 0 min 0.0 km/h (0 Bft)
21.10.2020 06:35 9.1 C 87 % 1004.9 hPa 0.0 l/m 0.0 km/h (0 Bft) O-SO 113 0 min 0.0 km/h (0 Bft)
21.10.2020 06:34 9.1 C 87 % 1004.9 hPa 0.0 l/m 0.0 km/h (0 Bft) O-SO 113 0 min 0.0 km/h (0 Bft)
21.10.2020 06:33 9.1 C 87 % 1004.9 hPa 0.0 l/m 0.0 km/h (0 Bft) O-SO 113 0 min 0.0 km/h (0 Bft)
21.10.2020 06:32 9.1 C 87 % 1004.9 hPa 0.0 l/m 0.0 km/h (0 Bft) W 270 0 min 0.0 km/h (0 Bft)
21.10.2020 06:31 9.1 C 87 % 1004.9 hPa 0.0 l/m 0.0 km/h (0 Bft) W 270 0 min 0.0 km/h (0 Bft)
21.10.2020 06:30 9.1 C 87 % 1004.8 hPa 0.0 l/m 0.0 km/h (0 Bft) N-NW 338 0 min 0.0 km/h (0 Bft)
21.10.2020 06:29 9.1 C 87 % 1004.8 hPa 0.0 l/m 0.0 km/h (0 Bft) N-NW 338 0 min 0.0 km/h (0 Bft)
21.10.2020 06:28 9.1 C 87 % 1004.8 hPa 0.0 l/m 0.0 km/h (0 Bft) N-NW 338 0 min 0.0 km/h (0 Bft)
21.10.2020 06:27 9.1 C 87 % 1004.8 hPa 0.0 l/m 0.0 km/h (0 Bft) N-NW 338 0 min 0.0 km/h (0 Bft)
21.10.2020 06:26 9.1 C 87 % 1004.8 hPa 0.0 l/m 0.0 km/h (0 Bft) N 0 0 min 0.0 km/h (0 Bft)
21.10.2020 06:25 9.1 C 87 % 1004.8 hPa 0.0 l/m 0.0 km/h (0 Bft) N 0 0 min 0.0 km/h (0 Bft)
21.10.2020 06:24 9.1 C 87 % 1004.8 hPa 0.0 l/m 0.0 km/h (0 Bft) N-NO 23 0 min 0.0 km/h (0 Bft)
21.10.2020 06:23 9.1 C 87 % 1004.8 hPa 0.0 l/m 0.0 km/h (0 Bft) N-NO 23 0 min 0.0 km/h (0 Bft)
21.10.2020 06:22 9.1 C 87 % 1004.8 hPa 0.0 l/m 0.0 km/h (0 Bft) N-NW 338 0 min 0.0 km/h (0 Bft)
21.10.2020 06:21 9.1 C 87 % 1004.8 hPa 0.0 l/m 0.0 km/h (0 Bft) N-NW 338 0 min 0.0 km/h (0 Bft)
21.10.2020 06:20 9.1 C 87 % 1004.8 hPa 0.0 l/m 0.0 km/h (0 Bft) SO 135 0 min 0.0 km/h (0 Bft)
21.10.2020 06:19 9.1 C 87 % 1004.8 hPa 0.0 l/m 0.0 km/h (0 Bft) SO 135 0 min 0.0 km/h (0 Bft)
21.10.2020 06:18 9.1 C 87 % 1004.8 hPa 0.0 l/m 0.0 km/h (0 Bft) W-NW 293 0 min 0.0 km/h (0 Bft)
21.10.2020 06:17 9.1 C 87 % 1004.8 hPa 0.0 l/m 0.0 km/h (0 Bft) W-NW 293 0 min 0.0 km/h (0 Bft)
21.10.2020 06:16 9.1 C 86 % 1004.8 hPa 0.0 l/m 0.0 km/h (0 Bft) S-SW 203 0 min 0.0 km/h (0 Bft)
21.10.2020 06:15 9.1 C 86 % 1004.8 hPa 0.0 l/m 0.0 km/h (0 Bft) S-SW 203 0 min 0.0 km/h (0 Bft)
21.10.2020 06:14 9.1 C 86 % 1004.8 hPa 0.0 l/m 0.0 km/h (0 Bft) N-NO 23 0 min 0.0 km/h (0 Bft)
21.10.2020 06:13 9.1 C 86 % 1004.8 hPa 0.0 l/m 0.0 km/h (0 Bft) N-NO 23 0 min 0.0 km/h (0 Bft)
21.10.2020 06:12 9.1 C 86 % 1004.8 hPa 0.0 l/m 0.0 km/h (0 Bft) N-NW 338 0 min 0.0 km/h (0 Bft)
21.10.2020 06:11 9.1 C 86 % 1004.8 hPa 0.0 l/m 0.0 km/h (0 Bft) N-NW 338 0 min 0.0 km/h (0 Bft)
21.10.2020 06:10 9.1 C 87 % 1004.9 hPa 0.0 l/m 0.4 km/h (0 Bft) O-NO 68 0 min 0.0 km/h (0 Bft)
21.10.2020 06:09 9.1 C 87 % 1004.9 hPa 0.0 l/m 0.4 km/h (0 Bft) O-NO 68 0 min 0.0 km/h (0 Bft)
21.10.2020 06:08 9.1 C 86 % 1004.9 hPa 0.0 l/m 0.4 km/h (0 Bft) O-NO 68 0 min 0.0 km/h (0 Bft)
21.10.2020 06:07 9.1 C 86 % 1004.9 hPa 0.0 l/m 0.4 km/h (0 Bft) O-NO 68 0 min 0.0 km/h (0 Bft)
21.10.2020 06:06 9.1 C 86 % 1004.9 hPa 0.0 l/m 0.4 km/h (0 Bft) W-NW 293 0 min 0.0 km/h (0 Bft)
21.10.2020 06:05 9.1 C 86 % 1004.9 hPa 0.0 l/m 0.4 km/h (0 Bft) W-NW 293 0 min 0.0 km/h (0 Bft)
21.10.2020 06:04 9.1 C 86 % 1004.9 hPa 0.0 l/m 0.7 km/h (0 Bft) W-SW 248 0 min 0.0 km/h (0 Bft)
21.10.2020 06:03 9.1 C 86 % 1004.9 hPa 0.0 l/m 0.7 km/h (0 Bft) W-SW 248 0 min 0.0 km/h (0 Bft)
21.10.2020 06:02 9.1 C 86 % 1004.9 hPa 0.0 l/m 0.7 km/h (0 Bft) N-NO 23 0 min 0.0 km/h (0 Bft)
21.10.2020 06:01 9.1 C 86 % 1004.9 hPa 0.0 l/m 0.7 km/h (0 Bft) N-NO 23 0 min 0.0 km/h (0 Bft)
21.10.2020 06:00 9.1 C 86 % 1004.9 hPa 0.0 l/m 0.7 km/h (0 Bft) N-NO 23 0 min 0.0 km/h (0 Bft)
21.10.2020 05:59 9.1 C 86 % 1004.9 hPa 0.0 l/m 0.5 km/h (0 Bft) N-NO 23 0 min 2.5 km/h (1 Bft)
21.10.2020 05:58 9.0 C 86 % 1004.9 hPa 0.0 l/m 0.4 km/h (0 Bft) NO 45 0 min 2.5 km/h (1 Bft)
21.10.2020 05:57 9.0 C 86 % 1004.9 hPa 0.0 l/m 0.4 km/h (0 Bft) NO 45 0 min 0.0 km/h (0 Bft)
21.10.2020 05:56 9.1 C 86 % 1004.9 hPa 0.0 l/m 0.4 km/h (0 Bft) NO 45 0 min 0.0 km/h (0 Bft)
21.10.2020 05:55 9.1 C 86 % 1004.9 hPa 0.0 l/m 0.0 km/h (0 Bft) N 0 0 min 0.0 km/h (0 Bft)
21.10.2020 05:54 9.1 C 86 % 1004.9 hPa 0.0 l/m 0.0 km/h (0 Bft) N 0 0 min 0.0 km/h (0 Bft)
21.10.2020 05:53 9.1 C 86 % 1004.9 hPa 0.0 l/m 0.0 km/h (0 Bft) N 0 0 min 0.0 km/h (0 Bft)
21.10.2020 05:52 9.1 C 86 % 1004.9 hPa 0.0 l/m 0.0 km/h (0 Bft) O-NO 68 0 min 0.0 km/h (0 Bft)
21.10.2020 05:51 9.1 C 86 % 1004.9 hPa 0.0 l/m 0.0 km/h (0 Bft) O-NO 68 0 min 0.0 km/h (0 Bft)
21.10.2020 05:50 9.1 C 86 % 1004.8 hPa 0.0 l/m 0.0 km/h (0 Bft) NO 45 0 min 0.0 km/h (0 Bft)
21.10.2020 05:49 9.1 C 86 % 1004.8 hPa 0.0 l/m 0.0 km/h (0 Bft) NO 45 0 min 0.0 km/h (0 Bft)
21.10.2020 05:48 9.1 C 86 % 1004.8 hPa 0.0 l/m 0.0 km/h (0 Bft) NO 45 0 min 0.0 km/h (0 Bft)
21.10.2020 05:47 9.1 C 86 % 1004.8 hPa 0.0 l/m 0.0 km/h (0 Bft) NO 45 0 min 0.0 km/h (0 Bft)
21.10.2020 05:46 9.1 C 86 % 1004.8 hPa 0.0 l/m 0.0 km/h (0 Bft) NO 45 0 min 0.0 km/h (0 Bft)
21.10.2020 05:45 9.1 C 86 % 1004.8 hPa 0.0 l/m 0.0 km/h (0 Bft) NO 45 0 min 0.0 km/h (0 Bft)
21.10.2020 05:44 9.1 C 86 % 1004.8 hPa 0.0 l/m 0.4 km/h (0 Bft) W-NW 293 0 min 0.0 km/h (0 Bft)
21.10.2020 05:43 9.1 C 86 % 1004.8 hPa 0.0 l/m 0.4 km/h (0 Bft) W-NW 293 0 min 0.0 km/h (0 Bft)
21.10.2020 05:42 9.3 C 86 % 1004.8 hPa 0.0 l/m 0.4 km/h (0 Bft) NO 45 0 min 0.0 km/h (0 Bft)
21.10.2020 05:41 9.3 C 86 % 1004.8 hPa 0.0 l/m 0.4 km/h (0 Bft) NO 45 0 min 0.0 km/h (0 Bft)
21.10.2020 05:40 9.2 C 86 % 1004.8 hPa 0.0 l/m 0.4 km/h (0 Bft) NO 45 0 min 0.0 km/h (0 Bft)
21.10.2020 05:39 9.2 C 86 % 1004.8 hPa 0.0 l/m 0.4 km/h (0 Bft) NO 45 0 min 0.0 km/h (0 Bft)
21.10.2020 05:38 9.2 C 86 % 1004.8 hPa 0.0 l/m 0.7 km/h (0 Bft) O-NO 68 0 min 2.5 km/h (1 Bft)
21.10.2020 05:37 9.2 C 86 % 1004.8 hPa 0.0 l/m 0.7 km/h (0 Bft) O-NO 68 0 min 2.5 km/h (1 Bft)
21.10.2020 05:36 9.2 C 87 % 1004.8 hPa 0.0 l/m 0.7 km/h (0 Bft) S-SO 158 0 min 0.0 km/h (0 Bft)
21.10.2020 05:35 9.2 C 87 % 1004.8 hPa 0.0 l/m 0.7 km/h (0 Bft) S-SO 158 0 min 0.0 km/h (0 Bft)
21.10.2020 05:34 9.1 C 86 % 1004.8 hPa 0.0 l/m 0.7 km/h (0 Bft) SO 135 0 min 3.6 km/h (1 Bft)
21.10.2020 05:33 9.1 C 86 % 1004.8 hPa 0.0 l/m 0.7 km/h (0 Bft) SO 135 0 min 3.6 km/h (1 Bft)
21.10.2020 05:32 9.2 C 87 % 1004.8 hPa 0.0 l/m 0.7 km/h (0 Bft) O 90 0 min 4.0 km/h (1 Bft)
21.10.2020 05:31 9.2 C 87 % 1004.8 hPa 0.0 l/m 0.7 km/h (0 Bft) O 90 0 min 4.0 km/h (1 Bft)
21.10.2020 05:30 9.1 C 86 % 1004.7 hPa 0.0 l/m 0.7 km/h (0 Bft) S-SO 158 0 min 4.0 km/h (1 Bft)
21.10.2020 05:29 9.1 C 86 % 1004.7 hPa 0.0 l/m 0.7 km/h (0 Bft) S-SO 158 0 min 4.0 km/h (1 Bft)
21.10.2020 05:28 9.1 C 86 % 1004.7 hPa 0.0 l/m 0.7 km/h (0 Bft) S-SO 158 0 min 4.0 km/h (1 Bft)
21.10.2020 05:27 9.1 C 86 % 1004.7 hPa 0.0 l/m 0.7 km/h (0 Bft) S-SO 158 0 min 4.0 km/h (1 Bft)
21.10.2020 05:26 9.1 C 86 % 1004.7 hPa 0.0 l/m 0.4 km/h (0 Bft) N 0 0 min 0.0 km/h (0 Bft)
21.10.2020 05:25 9.1 C 86 % 1004.7 hPa 0.0 l/m 0.4 km/h (0 Bft) N 0 0 min 0.0 km/h (0 Bft)
21.10.2020 05:24 9.1 C 86 % 1004.7 hPa 0.0 l/m 0.4 km/h (0 Bft) S 180 0 min 4.7 km/h (1 Bft)
21.10.2020 05:23 9.1 C 86 % 1004.7 hPa 0.0 l/m 0.4 km/h (0 Bft) S 180 0 min 4.7 km/h (1 Bft)
21.10.2020 05:22 9.0 C 86 % 1004.7 hPa 0.0 l/m 0.4 km/h (0 Bft) SW 225 0 min 5.0 km/h (1 Bft)
21.10.2020 05:21 9.0 C 86 % 1004.7 hPa 0.0 l/m 0.4 km/h (0 Bft) SW 225 0 min 5.0 km/h (1 Bft)
21.10.2020 05:20 9.0 C 86 % 1004.7 hPa 0.0 l/m 0.0 km/h (0 Bft) O-NO 68 0 min 0.0 km/h (0 Bft)
21.10.2020 05:19 9.0 C 86 % 1004.7 hPa 0.0 l/m 0.0 km/h (0 Bft) S-SO 158 0 min 0.0 km/h (0 Bft)
21.10.2020 05:18 9.0 C 86 % 1004.7 hPa 0.0 l/m 0.0 km/h (0 Bft) S-SO 158 0 min 0.0 km/h (0 Bft)
21.10.2020 05:17 9.0 C 86 % 1004.7 hPa 0.0 l/m 0.0 km/h (0 Bft) SO 135 0 min 0.0 km/h (0 Bft)
21.10.2020 05:16 9.0 C 86 % 1004.7 hPa 0.0 l/m 0.0 km/h (0 Bft) SO 135 0 min 0.0 km/h (0 Bft)
21.10.2020 05:15 9.0 C 86 % 1004.7 hPa 0.0 l/m 0.0 km/h (0 Bft) O-NO 68 0 min 0.0 km/h (0 Bft)
21.10.2020 05:14 9.0 C 86 % 1004.7 hPa 0.0 l/m 0.0 km/h (0 Bft) O-NO 68 0 min 0.0 km/h (0 Bft)
21.10.2020 05:13 9.0 C 86 % 1004.7 hPa 0.0 l/m 0.0 km/h (0 Bft) O-NO 68 0 min 0.0 km/h (0 Bft)
21.10.2020 05:12 9.0 C 86 % 1004.7 hPa 0.0 l/m 0.0 km/h (0 Bft) W 270 0 min 0.0 km/h (0 Bft)
21.10.2020 05:11 9.0 C 86 % 1004.7 hPa 0.0 l/m 0.0 km/h (0 Bft) W 270 0 min 0.0 km/h (0 Bft)
21.10.2020 05:10 9.0 C 86 % 1004.8 hPa 0.0 l/m 0.0 km/h (0 Bft) W-NW 293 0 min 0.0 km/h (0 Bft)
21.10.2020 05:09 9.0 C 86 % 1004.8 hPa 0.0 l/m 0.0 km/h (0 Bft) W-NW 293 0 min 0.0 km/h (0 Bft)
21.10.2020 05:08 9.0 C 86 % 1004.8 hPa 0.0 l/m 0.0 km/h (0 Bft) W-NW 293 0 min 0.0 km/h (0 Bft)
21.10.2020 05:07 9.0 C 86 % 1004.8 hPa 0.0 l/m 0.0 km/h (0 Bft) W-NW 293 0 min 0.0 km/h (0 Bft)
21.10.2020 05:06 9.0 C 86 % 1004.8 hPa 0.0 l/m 0.0 km/h (0 Bft) SW 225 0 min 0.0 km/h (0 Bft)
21.10.2020 05:05 9.0 C 86 % 1004.8 hPa 0.0 l/m 0.0 km/h (0 Bft) SW 225 0 min 0.0 km/h (0 Bft)
21.10.2020 05:04 9.0 C 86 % 1004.8 hPa 0.0 l/m 0.0 km/h (0 Bft) W 270 0 min 0.0 km/h (0 Bft)
21.10.2020 05:03 9.0 C 86 % 1004.8 hPa 0.0 l/m 0.0 km/h (0 Bft) W 270 0 min 0.0 km/h (0 Bft)
21.10.2020 05:02 9.0 C 86 % 1004.8 hPa 0.0 l/m 0.0 km/h (0 Bft) O-NO 68 0 min 0.0 km/h (0 Bft)
21.10.2020 05:01 9.0 C 86 % 1004.8 hPa 0.0 l/m 0.0 km/h (0 Bft) O-NO 68 0 min 0.0 km/h (0 Bft)
21.10.2020 05:00 9.0 C 86 % 1004.8 hPa 0.0 l/m 0.0 km/h (0 Bft) O-NO 68 0 min 0.0 km/h (0 Bft)
21.10.2020 04:59 9.0 C 86 % 1004.8 hPa 0.0 l/m 0.0 km/h (0 Bft) O-NO 68 0 min 0.0 km/h (0 Bft)
21.10.2020 04:58 9.0 C 86 % 1004.8 hPa 0.0 l/m 0.0 km/h (0 Bft) N-NO 23 0 min 0.0 km/h (0 Bft)
21.10.2020 04:57 9.0 C 86 % 1004.8 hPa 0.0 l/m 0.0 km/h (0 Bft) N-NO 23 0 min 0.0 km/h (0 Bft)
21.10.2020 04:56 9.0 C 86 % 1004.8 hPa 0.0 l/m 0.0 km/h (0 Bft) W-NW 293 0 min 0.0 km/h (0 Bft)
21.10.2020 04:55 9.0 C 86 % 1004.8 hPa 0.0 l/m 0.0 km/h (0 Bft) W-NW 293 0 min 0.0 km/h (0 Bft)
21.10.2020 04:54 9.0 C 86 % 1004.8 hPa 0.0 l/m 0.4 km/h (0 Bft) S 180 0 min 0.0 km/h (0 Bft)
21.10.2020 04:53 9.0 C 86 % 1004.8 hPa 0.0 l/m 0.4 km/h (0 Bft) S 180 0 min 0.0 km/h (0 Bft)
21.10.2020 04:52 9.0 C 86 % 1004.8 hPa 0.0 l/m 0.7 km/h (0 Bft) O-SO 113 0 min 0.0 km/h (0 Bft)
21.10.2020 04:51 9.0 C 86 % 1004.8 hPa 0.0 l/m 0.7 km/h (0 Bft) O-SO 113 0 min 0.0 km/h (0 Bft)
21.10.2020 04:50 9.1 C 86 % 1004.8 hPa 0.0 l/m 0.7 km/h (0 Bft) NW 315 0 min 0.0 km/h (0 Bft)
21.10.2020 04:49 9.1 C 86 % 1004.8 hPa 0.0 l/m 0.7 km/h (0 Bft) NW 315 0 min 0.0 km/h (0 Bft)
21.10.2020 04:48 9.1 C 86 % 1004.8 hPa 0.0 l/m 0.7 km/h (0 Bft) NW 315 0 min 0.0 km/h (0 Bft)
21.10.2020 04:47 9.1 C 86 % 1004.8 hPa 0.0 l/m 0.7 km/h (0 Bft) NW 315 0 min 0.0 km/h (0 Bft)
21.10.2020 04:46 9.1 C 86 % 1004.8 hPa 0.0 l/m 0.7 km/h (0 Bft) NW 315 0 min 0.0 km/h (0 Bft)
21.10.2020 04:45 9.1 C 86 % 1004.8 hPa 0.0 l/m 0.7 km/h (0 Bft) NW 315 0 min 0.0 km/h (0 Bft)
21.10.2020 04:44 9.2 C 86 % 1004.8 hPa 0.0 l/m 0.7 km/h (0 Bft) W-SW 248 0 min 2.5 km/h (1 Bft)
21.10.2020 04:43 9.2 C 86 % 1004.8 hPa 0.0 l/m 0.7 km/h (0 Bft) W-SW 248 0 min 2.5 km/h (1 Bft)
21.10.2020 04:42 9.3 C 85 % 1004.8 hPa 0.0 l/m 0.0 km/h (0 Bft) W-SW 248 0 min 0.0 km/h (0 Bft)
21.10.2020 04:41 9.3 C 85 % 1004.8 hPa 0.0 l/m 0.0 km/h (0 Bft) W-SW 248 0 min 0.0 km/h (0 Bft)
21.10.2020 04:40 9.3 C 85 % 1004.8 hPa 0.0 l/m 0.0 km/h (0 Bft) S 180 0 min 0.0 km/h (0 Bft)
21.10.2020 04:39 9.2 C 85 % 1004.8 hPa 0.0 l/m 0.4 km/h (0 Bft) O-NO 68 0 min 0.0 km/h (0 Bft)
21.10.2020 04:38 9.2 C 85 % 1004.8 hPa 0.0 l/m 0.4 km/h (0 Bft) O-NO 68 0 min 0.0 km/h (0 Bft)
21.10.2020 04:37 9.2 C 85 % 1004.8 hPa 0.0 l/m 0.4 km/h (0 Bft) O-NO 68 0 min 0.0 km/h (0 Bft)
21.10.2020 04:36 9.3 C 85 % 1004.8 hPa 0.0 l/m 0.4 km/h (0 Bft) O-NO 68 0 min 0.0 km/h (0 Bft)
21.10.2020 04:35 9.3 C 85 % 1004.8 hPa 0.0 l/m 0.4 km/h (0 Bft) N-NW 338 0 min 0.0 km/h (0 Bft)
21.10.2020 04:34 9.3 C 85 % 1004.8 hPa 0.0 l/m 0.4 km/h (0 Bft) N-NW 338 0 min 0.0 km/h (0 Bft)
21.10.2020 04:33 9.3 C 85 % 1004.8 hPa 0.0 l/m 0.4 km/h (0 Bft) N-NW 338 0 min 0.0 km/h (0 Bft)
21.10.2020 04:32 9.3 C 85 % 1004.8 hPa 0.0 l/m 0.4 km/h (0 Bft) W-NW 293 0 min 0.0 km/h (0 Bft)
21.10.2020 04:31 9.3 C 85 % 1004.8 hPa 0.0 l/m 0.4 km/h (0 Bft) W-NW 293 0 min 0.0 km/h (0 Bft)
21.10.2020 04:30 9.2 C 85 % 1004.8 hPa 0.0 l/m 0.4 km/h (0 Bft) SW 225 0 min 2.5 km/h (1 Bft)
21.10.2020 04:29 9.2 C 85 % 1004.8 hPa 0.0 l/m 0.4 km/h (0 Bft) SW 225 0 min 2.5 km/h (1 Bft)
21.10.2020 04:28 9.2 C 85 % 1004.8 hPa 0.0 l/m 0.4 km/h (0 Bft) SW 225 0 min 2.5 km/h (1 Bft)
21.10.2020 04:27 9.2 C 85 % 1004.8 hPa 0.0 l/m 0.4 km/h (0 Bft) SW 225 0 min 2.5 km/h (1 Bft)
21.10.2020 04:26 9.3 C 85 % 1004.8 hPa 0.0 l/m 0.4 km/h (0 Bft) O 90 0 min 0.0 km/h (0 Bft)
21.10.2020 04:25 9.3 C 85 % 1004.8 hPa 0.0 l/m 0.4 km/h (0 Bft) O 90 0 min 0.0 km/h (0 Bft)
21.10.2020 04:24 9.3 C 85 % 1004.8 hPa 0.0 l/m 0.4 km/h (0 Bft) O 90 0 min 3.6 km/h (1 Bft)
21.10.2020 04:23 9.3 C 85 % 1004.8 hPa 0.0 l/m 0.4 km/h (0 Bft) O 90 0 min 3.6 km/h (1 Bft)
21.10.2020 04:22 9.2 C 85 % 1004.8 hPa 0.0 l/m 0.0 km/h (0 Bft) O-NO 68 0 min 0.0 km/h (0 Bft)
21.10.2020 04:21 9.2 C 85 % 1004.8 hPa 0.0 l/m 0.0 km/h (0 Bft) O-NO 68 0 min 0.0 km/h (0 Bft)
21.10.2020 04:20 9.2 C 85 % 1004.8 hPa 0.0 l/m 0.0 km/h (0 Bft) W-NW 293 0 min 0.0 km/h (0 Bft)
21.10.2020 04:19 9.2 C 85 % 1004.8 hPa 0.0 l/m 0.0 km/h (0 Bft) W-NW 293 0 min 0.0 km/h (0 Bft)
21.10.2020 04:18 9.2 C 85 % 1004.8 hPa 0.0 l/m 0.0 km/h (0 Bft) W-NW 293 0 min 0.0 km/h (0 Bft)
21.10.2020 04:17 9.2 C 85 % 1004.8 hPa 0.0 l/m 0.0 km/h (0 Bft) W-NW 293 0 min 0.0 km/h (0 Bft)
21.10.2020 04:16 9.3 C 85 % 1004.8 hPa 0.0 l/m 0.0 km/h (0 Bft) W-NW 293 0 min 0.0 km/h (0 Bft)
21.10.2020 04:15 9.3 C 85 % 1004.8 hPa 0.0 l/m 0.0 km/h (0 Bft) W-NW 293 0 min 0.0 km/h (0 Bft)
21.10.2020 04:14 9.3 C 85 % 1004.8 hPa 0.0 l/m 0.0 km/h (0 Bft) N 0 0 min 0.0 km/h (0 Bft)
21.10.2020 04:13 9.3 C 85 % 1004.8 hPa 0.0 l/m 0.0 km/h (0 Bft) N 0 0 min 0.0 km/h (0 Bft)
21.10.2020 04:12 9.3 C 85 % 1004.8 hPa 0.0 l/m 0.0 km/h (0 Bft) W-NW 293 0 min 0.0 km/h (0 Bft)
21.10.2020 04:11 9.3 C 85 % 1004.8 hPa 0.0 l/m 0.0 km/h (0 Bft) W-NW 293 0 min 0.0 km/h (0 Bft)
21.10.2020 04:10 9.2 C 85 % 1005.2 hPa 0.0 l/m 0.0 km/h (0 Bft) S-SO 158 0 min 0.0 km/h (0 Bft)
21.10.2020 04:09 9.2 C 85 % 1005.2 hPa 0.0 l/m 0.0 km/h (0 Bft) S-SO 158 0 min 0.0 km/h (0 Bft)
21.10.2020 04:08 9.3 C 85 % 1005.2 hPa 0.0 l/m 0.0 km/h (0 Bft) S-SO 158 0 min 0.0 km/h (0 Bft)
21.10.2020 04:07 9.3 C 85 % 1005.2 hPa 0.0 l/m 0.0 km/h (0 Bft) S-SO 158 0 min 0.0 km/h (0 Bft)
21.10.2020 04:06 9.2 C 85 % 1005.2 hPa 0.0 l/m 0.0 km/h (0 Bft) W 270 0 min 0.0 km/h (0 Bft)
21.10.2020 04:05 9.2 C 85 % 1005.2 hPa 0.0 l/m 0.0 km/h (0 Bft) W 270 0 min 0.0 km/h (0 Bft)
21.10.2020 04:04 9.2 C 85 % 1005.2 hPa 0.0 l/m 0.0 km/h (0 Bft) W-SW 248 0 min 0.0 km/h (0 Bft)
21.10.2020 04:03 9.2 C 85 % 1005.2 hPa 0.0 l/m 0.0 km/h (0 Bft) W-SW 248 0 min 0.0 km/h (0 Bft)
21.10.2020 04:02 9.2 C 85 % 1005.2 hPa 0.0 l/m 0.0 km/h (0 Bft) W-SW 248 0 min 0.0 km/h (0 Bft)
21.10.2020 04:01 9.2 C 85 % 1005.2 hPa 0.0 l/m 0.0 km/h (0 Bft) W-SW 248 0 min 0.0 km/h (0 Bft)
21.10.2020 04:00 9.2 C 85 % 1005.2 hPa 0.0 l/m 0.0 km/h (0 Bft) W-NW 293 0 min 0.0 km/h (0 Bft)
21.10.2020 03:59 9.2 C 85 % 1005.2 hPa 0.0 l/m 0.0 km/h (0 Bft) O-NO 68 0 min 0.0 km/h (0 Bft)
21.10.2020 03:58 9.2 C 85 % 1005.2 hPa 0.0 l/m 0.0 km/h (0 Bft) O-SO 113 0 min 0.0 km/h (0 Bft)
21.10.2020 03:57 9.2 C 85 % 1005.2 hPa 0.0 l/m 0.0 km/h (0 Bft) O-SO 113 0 min 0.0 km/h (0 Bft)
21.10.2020 03:56 9.2 C 85 % 1005.2 hPa 0.0 l/m 0.0 km/h (0 Bft) O-NO 68 0 min 0.0 km/h (0 Bft)
21.10.2020 03:55 9.2 C 85 % 1005.2 hPa 0.0 l/m 0.0 km/h (0 Bft) O-NO 68 0 min 0.0 km/h (0 Bft)
21.10.2020 03:54 9.2 C 85 % 1005.2 hPa 0.0 l/m 0.0 km/h (0 Bft) O-NO 68 0 min 0.0 km/h (0 Bft)
21.10.2020 03:53 9.3 C 85 % 1005.2 hPa 0.0 l/m 0.0 km/h (0 Bft) NO 45 0 min 0.0 km/h (0 Bft)
21.10.2020 03:52 9.3 C 85 % 1005.2 hPa 0.0 l/m 0.0 km/h (0 Bft) NO 45 0 min 0.0 km/h (0 Bft)
21.10.2020 03:51 9.3 C 85 % 1005.2 hPa 0.0 l/m 0.4 km/h (0 Bft) O 90 0 min 0.0 km/h (0 Bft)
21.10.2020 03:50 9.3 C 85 % 1005.2 hPa 0.0 l/m 0.4 km/h (0 Bft) O 90 0 min 0.0 km/h (0 Bft)
21.10.2020 03:49 9.3 C 85 % 1005.2 hPa 0.0 l/m 0.4 km/h (0 Bft) O 90 0 min 0.0 km/h (0 Bft)
21.10.2020 03:48 9.3 C 85 % 1005.2 hPa 0.0 l/m 0.4 km/h (0 Bft) O 90 0 min 0.0 km/h (0 Bft)
21.10.2020 03:47 9.3 C 85 % 1005.2 hPa 0.0 l/m 0.4 km/h (0 Bft) S-SO 158 0 min 0.0 km/h (0 Bft)
21.10.2020 03:46 9.3 C 85 % 1005.2 hPa 0.0 l/m 0.4 km/h (0 Bft) S-SO 158 0 min 0.0 km/h (0 Bft)
21.10.2020 03:45 9.3 C 85 % 1005.2 hPa 0.0 l/m 0.4 km/h (0 Bft) O 90 0 min 0.0 km/h (0 Bft)
21.10.2020 03:44 9.3 C 85 % 1005.2 hPa 0.0 l/m 0.4 km/h (0 Bft) O 90 0 min 0.0 km/h (0 Bft)
21.10.2020 03:43 9.3 C 85 % 1005.2 hPa 0.0 l/m 0.4 km/h (0 Bft) O 90 0 min 0.0 km/h (0 Bft)
21.10.2020 03:42 9.2 C 85 % 1005.2 hPa 0.0 l/m 0.4 km/h (0 Bft) O 90 0 min 0.0 km/h (0 Bft)
21.10.2020 03:41 9.2 C 85 % 1005.2 hPa 0.0 l/m 0.4 km/h (0 Bft) O-NO 68 0 min 0.0 km/h (0 Bft)
21.10.2020 03:40 9.2 C 85 % 1005.2 hPa 0.0 l/m 0.0 km/h (0 Bft) O-NO 68 0 min 2.5 km/h (1 Bft)
21.10.2020 03:39 9.2 C 85 % 1005.2 hPa 0.0 l/m 0.0 km/h (0 Bft) O-NO 68 0 min 2.5 km/h (1 Bft)
21.10.2020 03:38 9.3 C 85 % 1005.2 hPa 0.0 l/m 0.4 km/h (0 Bft) NO 45 0 min 0.0 km/h (0 Bft)
21.10.2020 03:37 9.3 C 85 % 1005.2 hPa 0.0 l/m 0.4 km/h (0 Bft) NO 45 0 min 0.0 km/h (0 Bft)
21.10.2020 03:36 9.3 C 85 % 1005.2 hPa 0.0 l/m 0.4 km/h (0 Bft) NO 45 0 min 0.0 km/h (0 Bft)
21.10.2020 03:35 9.3 C 85 % 1005.2 hPa 0.0 l/m 0.4 km/h (0 Bft) NO 45 0 min 0.0 km/h (0 Bft)
21.10.2020 03:34 9.3 C 85 % 1005.2 hPa 0.0 l/m 0.7 km/h (0 Bft) W-SW 248 0 min 0.0 km/h (0 Bft)
21.10.2020 03:33 9.3 C 85 % 1005.2 hPa 0.0 l/m 0.7 km/h (0 Bft) W-SW 248 0 min 0.0 km/h (0 Bft)
21.10.2020 03:32 9.3 C 85 % 1005.3 hPa 0.0 l/m 1.4 km/h (1 Bft) O-NO 68 0 min 0.0 km/h (0 Bft)
21.10.2020 03:31 9.3 C 85 % 1005.3 hPa 0.0 l/m 1.4 km/h (1 Bft) O-NO 68 0 min 0.0 km/h (0 Bft)
21.10.2020 03:30 9.3 C 85 % 1005.3 hPa 0.0 l/m 1.4 km/h (1 Bft) O-NO 68 0 min 0.0 km/h (0 Bft)
21.10.2020 03:29 9.3 C 85 % 1005.3 hPa 0.0 l/m 1.4 km/h (1 Bft) O-NO 68 0 min 0.0 km/h (0 Bft)
21.10.2020 03:28 9.3 C 85 % 1005.3 hPa 0.0 l/m 1.4 km/h (1 Bft) NO 45 0 min 5.0 km/h (1 Bft)
21.10.2020 03:27 9.3 C 85 % 1005.3 hPa 0.0 l/m 1.4 km/h (1 Bft) NO 45 0 min 5.0 km/h (1 Bft)
21.10.2020 03:26 9.4 C 85 % 1005.3 hPa 0.0 l/m 1.4 km/h (1 Bft) W-NW 293 0 min 0.0 km/h (0 Bft)
21.10.2020 03:25 9.4 C 85 % 1005.3 hPa 0.0 l/m 1.4 km/h (1 Bft) W-NW 293 0 min 0.0 km/h (0 Bft)
21.10.2020 03:24 9.3 C 85 % 1005.3 hPa 0.0 l/m 1.8 km/h (1 Bft) W-SW 248 0 min 4.0 km/h (1 Bft)
21.10.2020 03:23 9.3 C 85 % 1005.3 hPa 0.0 l/m 1.8 km/h (1 Bft) W-SW 248 0 min 4.0 km/h (1 Bft)
21.10.2020 03:22 9.3 C 85 % 1005.3 hPa 0.0 l/m 2.2 km/h (1 Bft) W 270 0 min 2.5 km/h (1 Bft)
21.10.2020 03:21 9.3 C 85 % 1005.3 hPa 0.0 l/m 2.2 km/h (1 Bft) W 270 0 min 2.5 km/h (1 Bft)
21.10.2020 03:20 9.3 C 85 % 1005.3 hPa 0.0 l/m 2.2 km/h (1 Bft) W-SW 248 0 min 3.6 km/h (1 Bft)
21.10.2020 03:19 9.3 C 85 % 1005.3 hPa 0.0 l/m 2.2 km/h (1 Bft) W-SW 248 0 min 3.6 km/h (1 Bft)
21.10.2020 03:18 9.3 C 85 % 1005.3 hPa 0.0 l/m 1.8 km/h (1 Bft) W-NW 293 0 min 2.5 km/h (1 Bft)
21.10.2020 03:17 9.3 C 85 % 1005.3 hPa 0.0 l/m 1.8 km/h (1 Bft) W-NW 293 0 min 2.5 km/h (1 Bft)
21.10.2020 03:16 9.3 C 85 % 1005.3 hPa 0.0 l/m 2.2 km/h (1 Bft) W-SW 248 0 min 2.5 km/h (1 Bft)
21.10.2020 03:15 9.3 C 85 % 1005.3 hPa 0.0 l/m 2.2 km/h (1 Bft) W-SW 248 0 min 2.5 km/h (1 Bft)
21.10.2020 03:14 9.3 C 85 % 1005.3 hPa 0.0 l/m 2.2 km/h (1 Bft) W-SW 248 0 min 2.5 km/h (1 Bft)
21.10.2020 03:13 9.3 C 85 % 1005.3 hPa 0.0 l/m 1.4 km/h (1 Bft) W-SW 248 0 min 4.3 km/h (1 Bft)
21.10.2020 03:12 9.3 C 85 % 1005.3 hPa 0.0 l/m 1.4 km/h (1 Bft) W-SW 248 0 min 4.3 km/h (1 Bft)
21.10.2020 03:11 9.3 C 85 % 1005.4 hPa 0.0 l/m 0.7 km/h (0 Bft) W-NW 293 0 min 2.5 km/h (1 Bft)
21.10.2020 03:10 9.3 C 85 % 1005.4 hPa 0.0 l/m 0.7 km/h (0 Bft) W-NW 293 0 min 2.5 km/h (1 Bft)
21.10.2020 03:09 9.3 C 85 % 1005.4 hPa 0.0 l/m 0.7 km/h (0 Bft) W-NW 293 0 min 2.5 km/h (1 Bft)
21.10.2020 03:08 9.3 C 85 % 1005.4 hPa 0.0 l/m 0.7 km/h (0 Bft) W-NW 293 0 min 2.5 km/h (1 Bft)
21.10.2020 03:07 9.3 C 84 % 1005.4 hPa 0.0 l/m 0.7 km/h (0 Bft) W-SW 248 0 min 0.0 km/h (0 Bft)
21.10.2020 03:06 9.3 C 84 % 1005.4 hPa 0.0 l/m 0.7 km/h (0 Bft) W-SW 248 0 min 0.0 km/h (0 Bft)
21.10.2020 03:05 9.2 C 84 % 1005.4 hPa 0.0 l/m 0.0 km/h (0 Bft) W-SW 248 0 min 3.6 km/h (1 Bft)
21.10.2020 03:04 9.2 C 84 % 1005.4 hPa 0.0 l/m 0.0 km/h (0 Bft) W-SW 248 0 min 3.6 km/h (1 Bft)
21.10.2020 03:03 9.3 C 84 % 1005.4 hPa 0.0 l/m 0.0 km/h (0 Bft) NW 315 0 min 0.0 km/h (0 Bft)
21.10.2020 03:02 9.3 C 84 % 1005.4 hPa 0.0 l/m 0.0 km/h (0 Bft) NW 315 0 min 0.0 km/h (0 Bft)
21.10.2020 03:01 9.3 C 84 % 1005.4 hPa 0.0 l/m 0.0 km/h (0 Bft) NW 315 0 min 0.0 km/h (0 Bft)
21.10.2020 03:00 9.3 C 84 % 1005.4 hPa 0.0 l/m 0.0 km/h (0 Bft) S 180 0 min 0.0 km/h (0 Bft)
21.10.2020 02:59 9.3 C 84 % 1005.4 hPa 0.0 l/m 0.0 km/h (0 Bft) S 180 0 min 0.0 km/h (0 Bft)
21.10.2020 02:58 9.3 C 84 % 1005.4 hPa 0.0 l/m 0.0 km/h (0 Bft) SO 135 0 min 0.0 km/h (0 Bft)
21.10.2020 02:57 9.3 C 84 % 1005.4 hPa 0.0 l/m 0.0 km/h (0 Bft) SO 135 0 min 0.0 km/h (0 Bft)
21.10.2020 02:56 9.3 C 84 % 1005.4 hPa 0.0 l/m 0.4 km/h (0 Bft) S-SO 158 0 min 0.0 km/h (0 Bft)
21.10.2020 02:55 9.3 C 84 % 1005.4 hPa 0.0 l/m 0.4 km/h (0 Bft) S-SO 158 0 min 0.0 km/h (0 Bft)
21.10.2020 02:54 9.4 C 84 % 1005.4 hPa 0.0 l/m 0.7 km/h (0 Bft) NO 45 0 min 0.0 km/h (0 Bft)
21.10.2020 02:53 9.4 C 84 % 1005.4 hPa 0.0 l/m 0.7 km/h (0 Bft) NO 45 0 min 0.0 km/h (0 Bft)
21.10.2020 02:52 9.4 C 84 % 1005.7 hPa 0.0 l/m 1.4 km/h (1 Bft) SO 135 0 min 0.0 km/h (0 Bft)
21.10.2020 02:51 9.4 C 84 % 1005.7 hPa 0.0 l/m 1.4 km/h (1 Bft) SO 135 0 min 0.0 km/h (0 Bft)
21.10.2020 02:50 9.4 C 84 % 1005.7 hPa 0.0 l/m 1.4 km/h (1 Bft) SO 135 0 min 0.0 km/h (0 Bft)
21.10.2020 02:49 9.4 C 84 % 1005.7 hPa 0.0 l/m 1.4 km/h (1 Bft) SO 135 0 min 0.0 km/h (0 Bft)
21.10.2020 02:48 9.4 C 84 % 1005.7 hPa 0.0 l/m 1.4 km/h (1 Bft) W-SW 248 0 min 0.0 km/h (0 Bft)
21.10.2020 02:47 9.4 C 84 % 1005.7 hPa 0.0 l/m 1.4 km/h (1 Bft) W-SW 248 0 min 0.0 km/h (0 Bft)
21.10.2020 02:46 9.5 C 84 % 1005.7 hPa 0.0 l/m 0.7 km/h (0 Bft) W-SW 248 0 min 4.0 km/h (1 Bft)
21.10.2020 02:45 9.5 C 84 % 1005.7 hPa 0.0 l/m 0.7 km/h (0 Bft) W-SW 248 0 min 4.0 km/h (1 Bft)
21.10.2020 02:44 9.4 C 84 % 1005.7 hPa 0.0 l/m 0.4 km/h (0 Bft) W-SW 248 0 min 4.3 km/h (1 Bft)
21.10.2020 02:43 9.4 C 84 % 1005.7 hPa 0.0 l/m 0.4 km/h (0 Bft) W-SW 248 0 min 4.3 km/h (1 Bft)
21.10.2020 02:42 9.4 C 84 % 1005.7 hPa 0.0 l/m 0.4 km/h (0 Bft) W-SW 248 0 min 0.0 km/h (0 Bft)
21.10.2020 02:41 9.4 C 84 % 1005.7 hPa 0.0 l/m 0.4 km/h (0 Bft) W-SW 248 0 min 0.0 km/h (0 Bft)
21.10.2020 02:40 9.5 C 83 % 1005.7 hPa 0.0 l/m 0.4 km/h (0 Bft) W-SW 248 0 min 0.0 km/h (0 Bft)
21.10.2020 02:39 9.5 C 83 % 1005.7 hPa 0.0 l/m 0.4 km/h (0 Bft) W-SW 248 0 min 0.0 km/h (0 Bft)
21.10.2020 02:38 9.5 C 83 % 1005.7 hPa 0.0 l/m 0.7 km/h (0 Bft) W-SW 248 0 min 0.0 km/h (0 Bft)
21.10.2020 02:37 9.5 C 83 % 1005.7 hPa 0.0 l/m 0.7 km/h (0 Bft) W-SW 248 0 min 0.0 km/h (0 Bft)
21.10.2020 02:36 9.5 C 83 % 1005.7 hPa 0.0 l/m 1.4 km/h (1 Bft) SW 225 0 min 2.5 km/h (1 Bft)
21.10.2020 02:35 9.6 C 83 % 1005.7 hPa 0.0 l/m 1.4 km/h (1 Bft) SW 225 0 min 2.5 km/h (1 Bft)
21.10.2020 02:34 9.6 C 83 % 1005.7 hPa 0.0 l/m 1.4 km/h (1 Bft) SW 225 0 min 2.5 km/h (1 Bft)
21.10.2020 02:33 9.7 C 83 % 1005.7 hPa 0.0 l/m 1.8 km/h (1 Bft) W-SW 248 0 min 0.0 km/h (0 Bft)
21.10.2020 02:32 9.7 C 83 % 1005.7 hPa 0.0 l/m 1.8 km/h (1 Bft) W-SW 248 0 min 0.0 km/h (0 Bft)
21.10.2020 02:31 9.6 C 83 % 1005.9 hPa 0.0 l/m 1.4 km/h (1 Bft) W 270 0 min 3.6 km/h (1 Bft)
21.10.2020 02:30 9.6 C 83 % 1005.9 hPa 0.0 l/m 1.4 km/h (1 Bft) W 270 0 min 3.6 km/h (1 Bft)
21.10.2020 02:29 9.7 C 83 % 1005.9 hPa 0.0 l/m 1.4 km/h (1 Bft) W 270 0 min 3.6 km/h (1 Bft)
21.10.2020 02:28 9.7 C 83 % 1005.9 hPa 0.0 l/m 1.4 km/h (1 Bft) W 270 0 min 3.6 km/h (1 Bft)
21.10.2020 02:27 9.7 C 83 % 1005.9 hPa 0.0 l/m 1.4 km/h (1 Bft) W 270 0 min 4.7 km/h (1 Bft)
21.10.2020 02:26 9.7 C 83 % 1005.9 hPa 0.0 l/m 1.4 km/h (1 Bft) W 270 0 min 4.7 km/h (1 Bft)
21.10.2020 02:25 9.7 C 82 % 1005.9 hPa 0.0 l/m 0.4 km/h (0 Bft) W-SW 248 0 min 4.3 km/h (1 Bft)
21.10.2020 02:24 9.7 C 82 % 1005.9 hPa 0.0 l/m 0.4 km/h (0 Bft) W-SW 248 0 min 4.3 km/h (1 Bft)
21.10.2020 02:23 9.8 C 83 % 1005.9 hPa 0.0 l/m 0.0 km/h (0 Bft) W-NW 293 0 min 0.0 km/h (0 Bft)
21.10.2020 02:22 9.8 C 83 % 1005.9 hPa 0.0 l/m 0.0 km/h (0 Bft) W-NW 293 0 min 0.0 km/h (0 Bft)
21.10.2020 02:21 9.8 C 83 % 1005.9 hPa 0.0 l/m 0.0 km/h (0 Bft) W-NW 293 0 min 0.0 km/h (0 Bft)
21.10.2020 02:20 9.9 C 83 % 1005.9 hPa 0.0 l/m 0.0 km/h (0 Bft) W 270 0 min 0.0 km/h (0 Bft)
21.10.2020 02:19 9.9 C 83 % 1005.9 hPa 0.0 l/m 0.0 km/h (0 Bft) W 270 0 min 0.0 km/h (0 Bft)
21.10.2020 02:18 9.9 C 82 % 1005.9 hPa 0.0 l/m 0.0 km/h (0 Bft) W 270 0 min 0.0 km/h (0 Bft)
21.10.2020 02:17 9.9 C 82 % 1005.9 hPa 0.0 l/m 0.0 km/h (0 Bft) W 270 0 min 0.0 km/h (0 Bft)
21.10.2020 02:16 9.9 C 82 % 1005.9 hPa 0.0 l/m 0.0 km/h (0 Bft) W-SW 248 0 min 0.0 km/h (0 Bft)
21.10.2020 02:15 9.9 C 82 % 1005.9 hPa 0.0 l/m 0.0 km/h (0 Bft) W-SW 248 0 min 0.0 km/h (0 Bft)
21.10.2020 02:14 9.9 C 82 % 1005.9 hPa 0.0 l/m 0.0 km/h (0 Bft) SO 135 0 min 0.0 km/h (0 Bft)
21.10.2020 02:13 9.9 C 82 % 1005.9 hPa 0.0 l/m 0.0 km/h (0 Bft) SO 135 0 min 0.0 km/h (0 Bft)
21.10.2020 02:12 9.9 C 82 % 1006.2 hPa 0.0 l/m 0.0 km/h (0 Bft) O-NO 68 0 min 0.0 km/h (0 Bft)
21.10.2020 02:11 9.9 C 82 % 1006.2 hPa 0.0 l/m 0.0 km/h (0 Bft) O-NO 68 0 min 0.0 km/h (0 Bft)
21.10.2020 02:10 10.1 C 82 % 1006.2 hPa 0.0 l/m 0.0 km/h (0 Bft) O-NO 68 0 min 0.0 km/h (0 Bft)
21.10.2020 02:09 10.1 C 82 % 1006.2 hPa 0.0 l/m 0.0 km/h (0 Bft) O-NO 68 0 min 0.0 km/h (0 Bft)
21.10.2020 02:08 10.0 C 81 % 1006.2 hPa 0.0 l/m 0.0 km/h (0 Bft) NO 45 0 min 0.0 km/h (0 Bft)
21.10.2020 02:07 10.0 C 81 % 1006.2 hPa 0.0 l/m 0.0 km/h (0 Bft) NO 45 0 min 0.0 km/h (0 Bft)
21.10.2020 02:06 10.1 C 81 % 1006.2 hPa 0.0 l/m 0.0 km/h (0 Bft) O-NO 68 0 min 0.0 km/h (0 Bft)
21.10.2020 02:05 10.1 C 81 % 1006.2 hPa 0.0 l/m 0.0 km/h (0 Bft) O-NO 68 0 min 0.0 km/h (0 Bft)
21.10.2020 02:04 10.1 C 81 % 1006.2 hPa 0.0 l/m 0.0 km/h (0 Bft) NO 45 0 min 0.0 km/h (0 Bft)
21.10.2020 02:03 10.1 C 81 % 1006.2 hPa 0.0 l/m 0.0 km/h (0 Bft) NO 45 0 min 0.0 km/h (0 Bft)
21.10.2020 02:02 10.2 C 81 % 1006.2 hPa 0.0 l/m 0.0 km/h (0 Bft) S-SW 203 0 min 0.0 km/h (0 Bft)
21.10.2020 02:01 10.2 C 81 % 1006.2 hPa 0.0 l/m 0.0 km/h (0 Bft) S-SW 203 0 min 0.0 km/h (0 Bft)
21.10.2020 02:00 10.3 C 81 % 1006.2 hPa 0.0 l/m 0.0 km/h (0 Bft) SW 225 0 min 0.0 km/h (0 Bft)
21.10.2020 01:59 10.3 C 81 % 1006.2 hPa 0.0 l/m 0.0 km/h (0 Bft) SW 225 0 min 0.0 km/h (0 Bft)
21.10.2020 01:58 10.3 C 81 % 1006.2 hPa 0.0 l/m 0.0 km/h (0 Bft) S 180 0 min 0.0 km/h (0 Bft)
21.10.2020 01:57 10.2 C 81 % 1006.2 hPa 0.0 l/m 0.0 km/h (0 Bft) S 180 0 min 0.0 km/h (0 Bft)
21.10.2020 01:56 10.2 C 81 % 1006.2 hPa 0.0 l/m 0.0 km/h (0 Bft) SW 225 0 min 0.0 km/h (0 Bft)
21.10.2020 01:55 10.2 C 81 % 1006.2 hPa 0.0 l/m 0.0 km/h (0 Bft) SW 225 0 min 0.0 km/h (0 Bft)
21.10.2020 01:54 10.2 C 81 % 1006.2 hPa 0.0 l/m 0.0 km/h (0 Bft) SW 225 0 min 0.0 km/h (0 Bft)
21.10.2020 01:53 10.2 C 81 % 1006.2 hPa 0.0 l/m 0.0 km/h (0 Bft) O-SO 113 0 min 0.0 km/h (0 Bft)
21.10.2020 01:52 10.2 C 81 % 1006.2 hPa 0.0 l/m 0.0 km/h (0 Bft) O-SO 113 0 min 0.0 km/h (0 Bft)
21.10.2020 01:51 10.2 C 81 % 1006.2 hPa 0.0 l/m 0.4 km/h (0 Bft) O-NO 68 0 min 0.0 km/h (0 Bft)
21.10.2020 01:50 10.2 C 81 % 1006.2 hPa 0.0 l/m 0.4 km/h (0 Bft) O-NO 68 0 min 0.0 km/h (0 Bft)
21.10.2020 01:49 10.2 C 81 % 1006.2 hPa 0.0 l/m 0.4 km/h (0 Bft) O-NO 68 0 min 0.0 km/h (0 Bft)
21.10.2020 01:48 10.2 C 81 % 1006.2 hPa 0.0 l/m 0.4 km/h (0 Bft) O-NO 68 0 min 0.0 km/h (0 Bft)
21.10.2020 01:47 10.3 C 81 % 1006.2 hPa 0.0 l/m 0.7 km/h (0 Bft) SW 225 0 min 0.0 km/h (0 Bft)
21.10.2020 01:46 10.3 C 81 % 1006.2 hPa 0.0 l/m 0.7 km/h (0 Bft) SW 225 0 min 0.0 km/h (0 Bft)
21.10.2020 01:45 10.2 C 81 % 1006.2 hPa 0.0 l/m 0.7 km/h (0 Bft) W-SW 248 0 min 0.0 km/h (0 Bft)
21.10.2020 01:44 10.2 C 81 % 1006.2 hPa 0.0 l/m 0.7 km/h (0 Bft) W-SW 248 0 min 0.0 km/h (0 Bft)
21.10.2020 01:43 10.3 C 81 % 1006.2 hPa 0.0 l/m 0.7 km/h (0 Bft) W-SW 248 0 min 0.0 km/h (0 Bft)
21.10.2020 01:42 10.2 C 81 % 1006.2 hPa 0.0 l/m 1.1 km/h (1 Bft) W-SW 248 0 min 0.0 km/h (0 Bft)
21.10.2020 01:41 10.2 C 81 % 1006.2 hPa 0.0 l/m 1.4 km/h (1 Bft) NO 45 0 min 0.0 km/h (0 Bft)
21.10.2020 01:40 10.3 C 80 % 1006.2 hPa 0.0 l/m 1.8 km/h (1 Bft) W-SW 248 0 min 2.5 km/h (1 Bft)
21.10.2020 01:39 10.3 C 80 % 1006.2 hPa 0.0 l/m 1.8 km/h (1 Bft) W-SW 248 0 min 2.5 km/h (1 Bft)
21.10.2020 01:38 10.3 C 80 % 1006.2 hPa 0.0 l/m 1.4 km/h (1 Bft) SW 225 0 min 4.0 km/h (1 Bft)
21.10.2020 01:37 10.3 C 80 % 1006.2 hPa 0.0 l/m 1.4 km/h (1 Bft) SW 225 0 min 4.0 km/h (1 Bft)
21.10.2020 01:36 10.3 C 80 % 1006.2 hPa 0.0 l/m 0.7 km/h (0 Bft) W 270 0 min 0.0 km/h (0 Bft)
21.10.2020 01:35 10.3 C 80 % 1006.2 hPa 0.0 l/m 0.7 km/h (0 Bft) W 270 0 min 0.0 km/h (0 Bft)
21.10.2020 01:34 10.4 C 80 % 1006.2 hPa 0.0 l/m 1.4 km/h (1 Bft) S-SO 158 0 min 0.0 km/h (0 Bft)
21.10.2020 01:33 10.4 C 80 % 1006.2 hPa 0.0 l/m 1.4 km/h (1 Bft) S-SO 158 0 min 0.0 km/h (0 Bft)
21.10.2020 01:32 10.5 C 80 % 1006.3 hPa 0.0 l/m 0.7 km/h (0 Bft) W 270 0 min 2.9 km/h (1 Bft)
21.10.2020 01:31 10.5 C 80 % 1006.3 hPa 0.0 l/m 0.7 km/h (0 Bft) W 270 0 min 2.9 km/h (1 Bft)
21.10.2020 01:30 10.4 C 80 % 1006.3 hPa 0.0 l/m 0.7 km/h (0 Bft) W 270 0 min 2.9 km/h (1 Bft)
21.10.2020 01:29 10.4 C 80 % 1006.3 hPa 0.0 l/m 0.7 km/h (0 Bft) W 270 0 min 2.9 km/h (1 Bft)
21.10.2020 01:28 10.5 C 80 % 1006.3 hPa 0.0 l/m 0.7 km/h (0 Bft) W-SW 248 0 min 0.0 km/h (0 Bft)
21.10.2020 01:27 10.5 C 80 % 1006.3 hPa 0.0 l/m 0.7 km/h (0 Bft) W-SW 248 0 min 0.0 km/h (0 Bft)
21.10.2020 01:26 10.5 C 80 % 1006.3 hPa 0.0 l/m 0.7 km/h (0 Bft) S-SO 158 0 min 0.0 km/h (0 Bft)
21.10.2020 01:25 10.5 C 80 % 1006.3 hPa 0.0 l/m 0.7 km/h (0 Bft) S-SO 158 0 min 0.0 km/h (0 Bft)
21.10.2020 01:24 10.5 C 80 % 1006.3 hPa 0.0 l/m 0.7 km/h (0 Bft) S 180 0 min 4.0 km/h (1 Bft)
21.10.2020 01:23 10.5 C 80 % 1006.3 hPa 0.0 l/m 0.7 km/h (0 Bft) S 180 0 min 4.0 km/h (1 Bft)
21.10.2020 01:22 10.4 C 80 % 1006.3 hPa 0.0 l/m 0.7 km/h (0 Bft) S-SW 203 0 min 0.0 km/h (0 Bft)
21.10.2020 01:21 10.4 C 80 % 1006.3 hPa 0.0 l/m 0.7 km/h (0 Bft) S-SW 203 0 min 0.0 km/h (0 Bft)
21.10.2020 01:20 10.4 C 80 % 1006.3 hPa 0.0 l/m 0.7 km/h (0 Bft) NO 45 0 min 0.0 km/h (0 Bft)
21.10.2020 01:19 10.4 C 80 % 1006.3 hPa 0.0 l/m 0.7 km/h (0 Bft) NO 45 0 min 0.0 km/h (0 Bft)
21.10.2020 01:18 10.4 C 80 % 1006.3 hPa 0.0 l/m 0.7 km/h (0 Bft) NO 45 0 min 5.8 km/h (2 Bft)
21.10.2020 01:17 10.5 C 80 % 1006.3 hPa 0.0 l/m 0.7 km/h (0 Bft) NO 45 0 min 5.8 km/h (2 Bft)
21.10.2020 01:16 10.5 C 80 % 1006.3 hPa 0.0 l/m 0.4 km/h (0 Bft) W-NW 293 0 min 0.0 km/h (0 Bft)
21.10.2020 01:15 10.5 C 80 % 1006.3 hPa 0.0 l/m 0.4 km/h (0 Bft) W-NW 293 0 min 0.0 km/h (0 Bft)
21.10.2020 01:14 10.5 C 80 % 1006.3 hPa 0.0 l/m 0.4 km/h (0 Bft) W-NW 293 0 min 0.0 km/h (0 Bft)
21.10.2020 01:13 10.5 C 80 % 1006.3 hPa 0.0 l/m 0.4 km/h (0 Bft) S-SW 203 0 min 2.5 km/h (1 Bft)
21.10.2020 01:12 10.5 C 80 % 1006.3 hPa 0.0 l/m 0.4 km/h (0 Bft) S-SW 203 0 min 2.5 km/h (1 Bft)
21.10.2020 01:11 10.6 C 80 % 1006.6 hPa 0.0 l/m 0.4 km/h (0 Bft) S-SO 158 0 min 0.0 km/h (0 Bft)
21.10.2020 01:10 10.6 C 80 % 1006.6 hPa 0.0 l/m 0.4 km/h (0 Bft) S-SO 158 0 min 0.0 km/h (0 Bft)
21.10.2020 01:09 10.6 C 80 % 1006.6 hPa 0.0 l/m 0.4 km/h (0 Bft) S-SO 158 0 min 0.0 km/h (0 Bft)
21.10.2020 01:08 10.6 C 80 % 1006.6 hPa 0.0 l/m 0.4 km/h (0 Bft) S-SO 158 0 min 0.0 km/h (0 Bft)
21.10.2020 01:07 10.6 C 80 % 1006.6 hPa 0.0 l/m 0.7 km/h (0 Bft) NO 45 0 min 0.0 km/h (0 Bft)
21.10.2020 01:06 10.6 C 80 % 1006.6 hPa 0.0 l/m 0.7 km/h (0 Bft) NO 45 0 min 0.0 km/h (0 Bft)
21.10.2020 01:05 10.6 C 80 % 1006.6 hPa 0.0 l/m 1.4 km/h (1 Bft) S-SO 158 0 min 2.9 km/h (1 Bft)
21.10.2020 01:04 10.6 C 80 % 1006.6 hPa 0.0 l/m 1.4 km/h (1 Bft) S-SO 158 0 min 2.9 km/h (1 Bft)
21.10.2020 01:03 10.6 C 80 % 1006.6 hPa 0.0 l/m 1.4 km/h (1 Bft) W-SW 248 0 min 2.9 km/h (1 Bft)
21.10.2020 01:02 10.7 C 80 % 1006.6 hPa 0.0 l/m 1.4 km/h (1 Bft) W-SW 248 0 min 2.9 km/h (1 Bft)
21.10.2020 01:01 10.7 C 80 % 1006.6 hPa 0.0 l/m 1.4 km/h (1 Bft) W-NW 293 0 min 0.0 km/h (0 Bft)
21.10.2020 01:00 10.7 C 80 % 1006.6 hPa 0.0 l/m 1.8 km/h (1 Bft) W-SW 248 0 min 0.0 km/h (0 Bft)
_ Min-Zeit 04:51 16:05 07:12 - 01:52 - - - 01:00
Minimum _ 9.0 C 71 % 1004.2 hPa - 0.0 km/h (0 Bft) - - - 0.0 km/h (0 Bft)
_ Max-Zeit 16:30 05:31 23:12 01:00 17:01 - - 09:52 17:54
Maximum _ 15.5 C 87 % 1010.5 hPa 0.0 l/m 5.0 km/h
W-NW (1 Bft)
- - 1 min 12.2 km/h
W-SW (2 Bft)
Durchschnitt _ 11.2 C 82 % 1006.6 hPa #0.0 l/m 0.8 km/h (0 Bft) W-SW - 0 min 1.1 km/h (1 Bft)